GFSSW_925_rhum_000.txt.gz
RH
98 98 98 98 99 98 99 99 99 99 100 100 100 100 100 97 55 63 80 18 13 14 15 18 16 18 23 24 20 17 24 24 22 27 24 17 21 16 35 47 43 44 59 72 98
97 98 98 98 98 98 97 98 98 98 99 100 100 100 100 98 80 82 12 12 13 15 17 19 20 24 28 23 21 22 25 20 14 14 27 22 26 31 42 46 50 52 72 93 99
98 99 100 99 98 98 98 98 98 98 99 100 100 100 100 98 84 39 16 7 12 15 18 17 16 21 23 19 19 18 19 12 7 9 9 21 17 30 46 45 51 59 84 90 100
99 100 100 100 99 98 98 98 98 99 99 100 100 100 100 91 33 17 15 10 10 17 20 18 20 22 24 21 17 12 12 8 9 10 10 21 13 37 25 30 43 54 71 77 86
100 100 96 100 99 98 98 99 99 99 100 100 100 100 91 79 52 18 15 16 16 22 20 21 22 22 23 22 11 10 8 11 10 9 11 9 17 28 17 36 43 51 62 67 71
97 97 82 99 99 100 99 99 100 100 100 100 100 100 90 49 17 18 15 16 19 23 23 20 22 20 18 11 14 13 10 10 14 10 9 11 12 11 16 51 46 48 57 58 61
80 84 75 84 98 100 100 99 100 100 100 100 100 100 95 41 16 17 17 15 16 19 23 19 16 16 17 12 10 11 10 11 11 12 12 15 14 14 27 49 48 43 45 45 43
63 78 68 69 95 99 100 100 100 100 100 100 100 99 67 15 13 16 14 10 14 16 16 13 18 18 11 12 16 14 17 15 11 14 16 11 13 20 41 52 56 55 53 56 57
58 63 59 66 84 96 98 100 100 100 100 100 95 96 39 13 16 11 11 10 10 11 13 12 14 16 13 17 18 19 19 16 14 16 16 15 24 40 38 54 56 60 58 61 66
50 57 59 64 86 100 100 98 97 99 98 100 90 63 26 16 14 11 10 10 13 14 15 18 22 20 23 16 20 16 17 17 17 17 44 40 60 61 62 57 70 73 74 75 71
50 58 60 65 96 97 97 94 83 77 98 31 27 27 27 18 13 11 10 12 16 20 21 23 25 23 18 17 14 16 17 18 20 25 48 57 60 60 69 74 74 75 73 70 67
51 58 62 84 98 97 98 96 40 38 48 54 46 37 28 22 15 13 15 16 18 22 20 25 24 19 25 26 25 26 29 34 32 34 47 50 52 50 54 59 67 70 70 65 64
49 55 60 98 95 98 94 51 42 44 44 24 36 30 19 18 16 16 17 20 19 21 24 26 20 22 26 30 31 34 28 28 39 42 42 44 50 53 48 60 62 64 61 61 63
44 52 66 98 82 65 63 29 53 44 38 26 17 15 16 18 19 16 16 19 24 27 27 30 28 26 28 29 31 31 28 33 45 44 51 38 70 46 53 62 62 62 64 65 61
44 53 62 53 66 80 47 53 52 33 50 21 18 14 15 20 16 17 22 20 23 26 27 30 28 30 29 26 28 32 30 32 31 38 39 42 62 51 57 65 65 65 62 59 55
42 57 73 84 71 47 57 47 32 66 47 22 19 18 20 22 23 22 26 27 24 33 32 31 26 27 26 28 26 29 38 45 51 52 60 44 54 60 67 62 62 57 60 61 60
41 61 69 61 63 60 45 35 58 71 27 25 24 20 23 31 32 30 33 37 33 37 41 32 31 28 26 29 29 39 44 64 58 69 71 49 52 51 48 52 56 58 60 62 59
42 64 57 56 60 50 26 41 46 42 35 22 26 25 28 30 33 34 33 38 34 38 47 43 45 28 25 27 31 33 43 65 57 79 61 46 58 51 43 45 50 53 56 64 63
46 78 67 48 51 40 51 68 58 49 26 28 28 30 32 30 33 37 37 37 36 34 41 43 36 27 25 26 30 34 44 40 69 67 67 65 47 43 52 52 53 54 58 68 67
59 68 58 54 39 31 67 66 58 48 31 26 31 32 36 33 36 40 39 40 37 38 35 39 35 30 25 29 31 30 37 43 66 54 64 64 58 64 56 58 55 58 63 69 67
62 47 43 55 24 50 60 62 57 46 34 24 32 36 34 34 40 44 43 43 44 41 37 36 39 37 31 36 37 38 40 55 58 69 68 81 68 51 53 55 54 60 67 68 71
49 46 71 35 46 77 52 57 50 31 28 34 34 30 35 44 51 51 49 46 50 47 35 41 53 62 34 32 36 32 36 41 57 44 85 82 56 55 58 50 60 70 69 70 64
68 88 66 28 59 82 48 47 43 30 31 32 36 38 45 56 57 57 56 47 38 42 43 42 56 70 50 37 34 33 46 55 59 72 70 76 55 62 67 69 68 76 73 70 68
79 88 79 72 62 43 37 37 41 34 34 33 41 42 50 58 63 64 59 49 39 47 69 52 57 49 57 42 43 34 44 47 45 69 63 70 40 61 70 74 79 77 74 70 65
72 75 71 88 80 50 38 42 42 38 33 35 37 39 48 56 59 64 58 48 46 56 66 48 51 50 58 60 44 34 35 54 47 46 51 47 52 43 68 74 76 73 73 70 65
84 69 63 65 72 66 64 50 47 39 39 36 39 48 43 57 47 64 56 46 38 65 67 62 69 57 62 70 66 46 41 45 50 46 58 54 55 62 70 77 76 74 72 69 63
73 64 59 84 72 74 78 55 50 44 48 48 45 55 51 55 62 71 69 70 62 63 74 69 87 56 43 74 60 50 46 49 46 47 52 65 51 77 78 76 75 78 72 68 59

GFSSW_925_rhum_003.txt.gz
RH
97 98 98 97 99 99 98 97 98 98 98 99 98 100 100 100 91 77 85 17 15 17 19 20 18 19 23 24 19 17 18 28 23 24 25 22 25 22 36 41 40 39 62 67 98
98 98 99 97 98 98 98 98 98 98 98 98 99 100 100 100 92 94 15 16 16 18 18 17 19 24 24 23 20 18 19 18 18 21 24 19 18 30 39 40 42 63 85 89 92
98 99 98 98 98 98 99 99 99 99 98 98 98 100 100 99 88 39 20 11 15 17 16 16 16 22 24 20 20 20 17 13 9 6 15 21 18 30 38 38 38 58 91 90 93
99 100 100 98 99 98 98 97 99 98 98 97 97 99 100 97 30 18 18 7 10 15 18 18 18 20 23 21 17 15 14 8 6 8 18 18 23 37 28 24 33 58 84 89 87
98 100 100 100 100 98 98 98 98 98 98 98 97 100 95 82 54 19 16 12 16 21 19 20 22 23 25 22 13 13 10 12 9 11 17 13 27 31 14 37 42 64 77 81 90
100 100 100 100 100 98 100 100 98 98 97 97 99 99 96 52 18 20 20 19 18 23 22 19 18 19 20 15 14 12 11 12 11 10 10 14 12 13 21 38 52 67 70 73 74
98 100 91 100 100 100 100 99 98 98 98 99 99 99 95 45 19 20 19 20 19 19 24 20 17 18 18 12 11 12 11 12 14 14 15 14 14 20 33 41 46 60 59 59 55
98 100 90 97 100 100 99 98 98 97 98 99 98 99 74 16 17 17 17 18 20 22 20 15 18 17 13 14 16 13 16 14 12 15 17 10 14 31 36 41 43 42 44 46 48
98 96 81 80 100 99 99 98 98 98 98 98 97 98 54 16 19 13 12 10 13 18 20 19 16 18 14 17 17 19 16 17 16 26 17 18 28 43 42 45 48 49 48 50 52
97 79 74 88 99 99 99 99 99 98 99 99 99 78 35 19 19 11 10 10 14 17 20 18 19 19 17 14 18 17 17 17 17 23 32 38 50 52 54 48 54 55 58 54 59
91 85 77 99 98 99 90 98 86 83 98 46 40 34 26 20 13 11 11 13 16 21 21 23 18 19 18 16 14 16 17 18 20 33 42 51 53 55 56 56 60 59 56 59 65
82 90 72 99 100 100 96 97 47 38 50 70 55 45 33 23 14 13 15 16 19 22 21 22 24 21 27 26 25 26 28 34 34 35 39 45 55 54 55 60 61 58 58 59 65
78 68 88 100 99 94 98 80 45 52 49 29 47 33 20 22 16 16 18 20 20 23 24 26 22 25 27 29 31 32 31 35 34 36 35 38 47 57 56 58 59 58 57 57 61
69 56 98 100 78 84 84 35 45 54 39 26 20 16 18 18 20 20 21 20 24 26 30 30 28 25 27 30 29 34 32 37 39 36 36 34 38 55 58 62 60 58 57 56 51
62 59 99 72 84 88 53 70 64 32 54 24 18 15 20 18 18 20 23 21 27 28 27 31 28 28 30 28 30 35 37 33 32 32 32 37 37 44 55 63 60 57 56 52 47
62 61 100 94 87 48 57 63 37 63 51 22 20 20 25 29 30 27 25 26 27 33 31 32 27 28 27 32 31 38 37 40 43 40 43 38 34 41 56 53 55 53 54 49 44
62 58 99 74 73 78 69 37 59 62 29 25 24 22 28 34 33 32 35 38 32 39 41 31 31 28 27 31 30 34 38 48 49 54 47 46 44 34 38 45 46 49 49 49 48
65 77 97 51 55 66 37 42 39 39 38 23 26 26 31 32 35 34 34 37 35 37 41 34 37 27 28 29 32 36 37 53 57 60 45 45 48 33 36 36 40 41 43 50 51
83 100 97 46 50 63 51 68 46 44 28 30 28 32 35 32 34 38 38 37 36 35 38 41 36 27 28 28 29 33 36 40 58 60 53 46 42 34 42 40 46 49 49 51 51
77 91 70 63 74 42 64 52 43 44 34 28 30 32 38 36 38 39 38 40 37 40 36 39 36 31 28 30 33 31 35 39 47 56 54 45 51 40 49 43 44 50 49 52 52
76 76 49 72 45 55 64 48 50 48 38 29 34 37 36 38 42 43 43 44 44 40 36 34 40 38 33 34 34 35 38 50 45 53 42 48 37 43 43 40 43 42 49 52 55
66 56 73 42 52 70 56 51 48 44 32 36 30 34 38 42 48 50 48 44 50 46 40 41 51 51 34 33 36 32 36 38 44 39 62 61 36 48 52 45 45 44 53 54 54
62 83 63 31 61 77 48 43 43 35 31 33 40 39 47 56 52 56 55 47 39 41 45 43 51 56 39 30 32 35 42 45 52 62 62 73 33 50 58 54 46 48 56 58 53
81 87 81 67 56 46 40 38 35 38 36 36 45 46 55 58 62 66 61 49 43 55 73 50 51 46 46 36 40 41 47 44 40 52 51 58 37 34 48 54 60 60 57 54 52
73 74 75 88 63 44 32 39 41 40 35 34 41 41 52 60 60 66 60 49 53 61 63 45 48 51 57 56 46 34 44 45 37 40 46 40 43 33 38 48 56 59 56 55 53
72 73 68 71 64 46 44 52 46 40 40 36 44 48 45 57 48 66 57 49 44 64 59 58 61 56 62 62 57 48 39 43 49 47 42 46 45 36 51 54 62 60 58 56 53
82 58 58 83 78 59 69 53 49 45 49 48 45 53 50 56 61 65 64 66 60 61 66 61 77 53 48 63 50 49 47 42 47 44 43 53 37 57 62 60 57 59 57 56 54

GFSSW_925_rhum_006.txt.gz
RH
96 98 98 98 97 98 96 98 98 97 98 97 98 97 99 99 92 74 55 24 24 17 22 27 23 20 17 12 14 12 10 12 20 23 32 29 29 23 22 32 34 34 40 53 74
99 98 98 98 98 98 97 98 98 97 97 97 98 97 98 98 83 53 28 21 18 16 18 15 14 15 15 13 14 14 12 14 15 19 20 18 19 25 32 35 35 43 50 65 66
98 99 98 98 97 98 98 98 98 98 97 98 98 97 99 97 56 24 22 21 18 17 14 13 12 15 14 14 15 13 12 10 12 16 14 15 16 20 25 34 29 47 57 66 64
99 99 99 98 98 98 98 97 98 98 98 98 98 99 98 86 23 18 19 12 15 26 18 14 14 16 13 15 12 15 11 11 7 6 13 16 17 23 20 19 23 43 55 67 68
99 99 99 99 98 98 98 98 98 97 98 98 98 99 83 49 26 20 18 10 18 23 15 14 14 13 12 14 14 14 11 9 6 8 15 18 23 23 20 26 34 46 54 56 56
100 98 98 98 98 98 98 98 98 97 98 98 98 98 75 34 20 25 19 14 24 18 16 14 12 12 13 14 12 11 8 8 8 11 11 19 20 15 18 30 38 47 46 48 52
100 99 100 99 100 98 100 98 96 96 98 98 98 98 69 27 23 33 31 26 21 17 16 17 14 13 13 14 9 9 8 8 10 10 11 8 11 20 26 32 41 40 40 43 43
98 100 100 100 100 99 100 98 96 97 98 98 98 97 43 27 26 29 26 24 24 21 18 18 18 15 14 10 9 9 8 10 13 9 11 9 11 22 29 29 35 38 43 45 42
83 100 100 100 100 99 100 97 97 98 98 98 96 84 27 21 21 16 20 10 19 23 22 17 17 16 13 11 10 11 10 10 11 15 10 8 11 25 31 28 31 36 39 39 42
80 100 100 100 99 98 99 98 98 99 98 100 94 72 28 15 17 13 12 12 13 18 18 16 14 14 13 11 14 12 9 8 9 18 11 14 23 26 33 30 31 32 35 37 38
76 100 100 99 98 99 97 92 74 68 88 31 26 29 17 17 17 10 12 13 13 13 15 16 13 12 12 10 10 9 11 10 14 24 23 25 25 28 33 35 38 35 35 35 39
77 100 100 98 98 99 95 61 39 48 31 41 38 33 26 23 16 10 15 11 12 11 16 16 16 17 18 14 12 11 11 17 22 25 22 25 32 32 32 38 36 37 37 40 48
86 99 100 98 98 98 88 62 63 56 42 31 33 22 18 20 13 11 14 15 14 11 16 12 20 20 16 16 16 18 16 22 16 25 23 24 30 34 40 40 42 39 38 41 47
82 100 98 99 86 74 64 36 53 61 26 21 19 18 17 15 17 17 18 14 18 17 17 20 21 19 18 19 22 19 21 21 25 22 20 24 22 35 40 45 44 46 45 47 50
82 96 98 75 77 61 59 77 75 50 37 18 16 15 16 16 17 19 20 16 16 20 22 25 21 20 19 23 24 25 24 23 22 21 23 24 22 34 39 45 47 47 47 48 49
84 86 99 98 97 67 69 73 50 45 34 20 16 18 19 20 20 20 19 18 19 21 20 22 20 20 22 25 23 26 25 25 24 24 29 21 24 21 37 34 42 43 43 43 42
81 83 99 93 51 74 90 50 37 37 23 21 19 18 19 22 24 22 22 22 19 25 25 22 23 21 21 26 26 25 24 28 28 32 32 32 29 18 22 29 35 42 38 40 36
79 98 99 95 82 74 57 31 32 22 22 19 19 20 22 22 26 25 25 24 25 22 22 21 30 22 23 22 22 25 23 25 33 38 22 33 26 18 24 25 30 32 32 34 33
94 99 100 90 73 94 46 54 29 26 20 21 21 22 26 25 23 26 26 25 25 26 19 23 26 23 25 23 22 27 28 27 39 46 40 23 24 24 27 28 30 30 31 32 32
98 98 67 78 72 73 52 40 24 29 27 22 20 20 26 25 22 24 28 29 29 29 28 26 30 25 25 23 26 24 24 32 34 45 39 24 30 23 33 31 31 31 34 31 31
75 58 75 79 79 47 48 31 29 33 32 24 20 24 22 28 24 22 24 31 30 28 25 22 26 31 28 26 24 28 26 28 28 38 29 24 14 26 27 29 32 32 32 31 34
58 55 82 76 51 34 34 28 36 33 32 28 24 23 24 28 28 27 26 28 37 28 29 28 30 40 28 27 27 24 23 20 24 29 42 49 20 26 32 31 27 29 31 31 35
51 53 71 54 52 61 36 29 34 30 27 31 28 28 34 33 38 36 35 41 38 34 32 31 34 40 34 30 27 27 26 23 31 40 38 58 17 26 32 34 31 30 29 35 38
44 68 62 39 32 30 31 29 26 34 30 31 37 37 39 40 43 46 45 42 41 39 61 33 35 33 36 25 26 33 30 25 21 33 25 30 14 18 23 28 30 33 31 36 41
51 45 37 67 42 28 27 25 24 34 32 31 36 33 35 49 45 47 44 41 44 64 43 35 38 35 34 35 31 26 26 28 25 24 29 16 19 14 17 20 24 32 36 38 41
52 50 49 39 35 28 34 26 22 32 33 31 31 36 37 44 34 46 41 37 36 46 42 42 47 46 48 41 36 34 25 26 26 24 27 20 23 16 20 26 31 37 39 40 40
60 50 34 69 37 32 32 26 23 33 46 36 31 39 43 44 44 41 42 39 36 43 49 49 59 46 40 47 44 60 37 25 24 24 27 27 21 25 30 32 32 35 39 39 38

GFSSW_925_rhum_009.txt.gz
RH
97 99 99 98 98 97 93 93 91 97 97 97 97 98 95 98 94 68 47 26 26 22 22 19 17 16 12 9 7 8 11 10 10 18 35 20 22 16 16 19 22 50 32 40 54
85 97 98 98 98 95 95 94 98 97 94 96 97 95 94 99 77 45 29 29 24 17 24 15 14 12 11 10 9 9 10 9 12 20 29 24 19 27 20 26 30 41 36 51 54
80 97 98 99 99 98 96 90 97 96 95 97 95 96 97 96 48 20 22 26 17 15 14 10 10 10 11 9 9 9 12 13 22 15 15 16 16 15 33 30 26 39 44 42 48
83 96 98 98 98 99 98 93 97 97 96 97 94 95 91 78 29 22 20 20 15 25 17 9 9 12 13 11 9 12 10 10 8 11 11 13 11 27 47 62 40 27 36 35 46
86 94 98 98 98 98 100 98 98 98 97 96 97 95 75 44 26 22 12 12 19 28 16 11 12 11 11 10 9 11 10 9 7 7 12 12 14 15 18 20 24 33 38 36 41
85 90 99 99 98 99 99 98 98 97 96 96 96 85 65 37 16 26 28 23 20 19 13 11 11 9 10 10 11 10 10 7 9 11 14 17 14 12 23 22 30 34 32 31 32
79 89 98 98 98 100 98 98 98 95 96 98 94 80 50 27 18 24 24 18 16 14 10 10 10 11 12 14 10 8 8 8 13 12 14 10 13 17 24 24 28 27 26 28 26
74 75 99 99 98 99 98 98 99 98 94 94 96 74 38 20 19 18 22 21 19 16 14 14 15 15 14 10 10 9 9 16 15 10 8 6 14 16 20 24 26 26 27 28 28
71 75 97 100 100 99 98 98 97 96 94 96 87 64 28 20 17 14 15 15 15 16 17 16 16 17 14 13 11 9 12 13 14 7 5 7 12 17 16 21 25 27 29 29 29
70 75 86 98 99 98 98 97 90 89 89 84 68 64 25 12 13 11 13 11 13 17 17 16 16 18 15 11 15 13 10 10 9 8 6 9 14 16 16 18 24 25 29 31 32
70 74 90 98 99 99 95 77 61 60 57 30 23 20 14 13 14 10 10 10 13 16 15 16 16 16 13 11 11 10 8 8 8 8 8 12 12 15 17 17 20 22 26 29 30
70 72 96 98 98 98 92 44 34 46 38 24 23 21 19 16 16 9 10 10 12 13 13 16 20 15 11 10 9 9 10 11 11 12 16 13 16 16 18 19 20 21 23 25 29
72 77 100 99 98 99 70 45 47 51 45 23 20 19 14 16 12 9 9 9 12 14 13 15 14 14 13 11 10 10 10 15 15 16 15 13 20 23 21 23 24 23 22 24 31
73 79 100 99 89 61 53 40 41 47 40 20 19 16 14 13 13 12 10 11 12 12 16 18 15 14 11 11 13 14 14 14 14 18 18 12 21 20 26 27 28 27 28 30 32
75 81 99 78 76 47 50 55 50 61 45 15 14 13 12 14 13 14 14 10 14 13 14 17 17 13 12 16 16 32 16 16 16 18 16 18 16 58 26 28 28 30 30 32 35
76 88 100 100 88 65 65 75 64 58 38 18 14 16 17 13 13 14 11 11 12 14 12 17 15 14 16 18 17 18 19 17 15 16 25 15 21 34 26 22 26 30 34 37 39
76 90 99 86 48 64 79 63 54 44 17 16 15 14 16 15 16 15 14 14 13 22 19 16 15 18 16 18 18 17 19 22 23 28 26 16 20 16 13 18 21 31 35 38 37
78 100 98 79 65 84 75 60 46 22 19 13 12 14 17 14 15 17 14 14 11 14 17 18 27 18 16 16 16 18 15 23 28 26 18 20 20 13 14 13 16 26 30 34 34
99 100 100 95 92 86 58 66 37 15 14 16 14 17 18 16 15 19 18 14 12 13 19 18 20 18 18 17 15 16 24 17 24 28 30 18 12 12 19 18 20 28 30 33 31
86 95 70 80 92 79 56 47 24 17 15 14 18 16 20 18 17 19 18 16 19 19 18 16 21 18 21 19 20 21 16 25 21 31 34 18 17 14 24 22 22 28 29 30 27
67 59 36 73 80 55 56 38 20 20 19 17 16 16 16 18 16 18 18 21 20 20 16 14 18 26 23 23 16 23 20 20 22 29 35 26 16 15 13 19 22 25 26 27 27
64 59 81 81 52 50 47 28 19 22 24 19 20 15 18 17 19 17 16 16 20 19 18 16 21 37 24 21 20 20 20 20 30 26 30 39 22 16 19 19 20 22 23 25 24
62 54 89 66 62 69 33 22 20 24 23 23 19 16 15 18 21 18 17 36 32 26 20 24 24 36 29 25 21 19 18 18 17 31 25 49 21 16 19 21 19 21 22 25 25
44 58 76 75 40 37 33 25 27 24 21 20 17 19 24 24 22 26 26 35 34 27 45 32 22 26 34 24 20 26 18 18 20 30 26 22 15 13 15 17 17 21 20 22 25
43 40 41 74 50 35 28 24 22 27 24 24 26 22 22 26 28 30 30 37 37 58 32 30 33 25 24 24 20 18 18 18 18 18 24 18 10 9 10 12 13 16 20 20 26
47 35 34 44 39 34 34 23 22 22 25 28 24 20 20 25 27 26 30 33 34 37 35 33 37 37 44 27 26 24 19 15 16 17 14 12 14 10 13 14 16 18 22 24 26
47 47 35 54 42 34 31 22 20 22 35 23 20 25 25 31 35 33 31 28 27 37 40 40 51 46 36 38 36 58 37 22 16 15 16 21 16 17 19 18 19 19 22 26 27

GFSSW_925_rhum_012.txt.gz
RH
86 81 95 98 98 100 97 91 91 92 91 93 94 97 92 88 82 65 49 35 30 27 22 25 20 16 14 11 9 6 10 11 10 11 38 53 52 37 32 21 28 31 43 43 69
84 83 84 99 98 99 99 98 92 91 92 95 95 95 89 87 77 49 24 26 27 26 27 20 15 12 14 11 10 9 12 12 29 32 40 52 70 48 21 35 40 43 75 68 64
84 83 81 96 100 99 99 99 98 91 92 95 95 89 84 78 52 22 17 23 26 22 21 14 11 11 12 10 10 9 12 10 41 48 41 32 47 24 27 46 65 81 60 51 57
84 82 80 89 100 99 99 100 96 95 97 96 96 81 69 83 36 22 16 22 25 19 23 16 9 11 12 12 9 10 8 10 31 36 37 23 24 32 36 52 70 70 44 48 52
84 81 80 90 98 99 100 99 100 95 98 97 95 65 75 47 32 20 9 14 13 26 19 12 10 10 13 11 9 10 10 9 10 14 15 20 21 30 33 38 41 49 31 42 46
79 81 78 82 98 99 99 99 99 96 97 93 92 63 76 39 16 26 14 13 17 19 15 10 10 9 10 9 9 9 10 8 8 10 19 24 25 21 29 29 32 30 29 35 36
78 81 75 74 98 96 99 99 98 98 96 92 83 80 50 30 17 23 21 17 17 17 12 10 10 10 11 14 9 10 12 9 12 12 15 34 21 20 24 27 30 28 27 27 27
75 79 76 75 90 88 94 100 98 98 97 92 64 76 48 20 20 17 20 18 18 15 14 12 14 14 14 14 11 11 10 14 16 14 12 10 18 18 24 26 26 25 26 26 25
77 75 76 82 91 89 94 93 94 92 90 79 81 63 35 19 17 14 14 15 13 16 14 14 14 17 17 20 14 13 15 24 19 14 8 6 15 16 20 23 25 26 27 27 27
77 75 76 84 92 85 94 91 89 80 81 72 57 53 36 16 11 11 12 13 13 15 17 17 17 20 19 16 18 18 15 17 15 11 6 7 14 15 17 50 82 25 26 28 28
78 77 78 85 94 94 88 79 63 70 59 28 24 24 12 10 12 12 9 10 12 16 21 17 20 22 16 17 16 14 13 12 10 7 7 12 14 15 14 26 26 28 28 29 30
78 79 79 92 99 98 94 53 36 46 51 31 16 20 16 16 15 10 9 11 15 18 14 17 22 16 16 14 15 13 13 10 8 8 9 10 13 13 14 15 19 22 28 29 30
80 79 78 99 98 98 76 48 40 41 46 25 13 15 15 13 14 10 9 10 13 14 15 30 26 13 14 16 15 12 13 15 12 9 9 24 18 14 14 14 15 17 19 24 28
82 82 83 95 89 68 60 47 28 46 50 25 18 16 14 13 14 8 8 9 11 16 15 38 24 16 15 13 11 23 20 14 18 27 18 23 33 52 32 16 19 20 21 22 25
84 83 79 70 77 49 54 44 46 61 57 18 16 12 12 13 11 10 9 11 14 14 20 20 16 16 15 16 15 23 21 18 13 17 22 30 30 40 39 30 23 24 24 26 30
87 83 84 99 96 66 61 70 67 73 55 18 14 16 14 13 11 10 12 10 10 14 16 24 17 16 19 14 14 17 18 19 13 16 47 32 39 43 42 33 32 22 26 28 31
89 86 85 83 55 53 59 78 73 52 17 18 17 14 15 15 13 13 15 13 15 20 21 19 16 14 13 13 14 14 18 26 38 47 40 15 28 36 36 33 61 68 27 31 36
92 91 93 86 68 69 76 94 58 27 21 10 12 14 17 13 14 13 13 14 12 13 17 21 23 15 12 12 25 18 14 33 78 79 43 21 27 15 20 29 49 38 29 35 38
98 100 99 95 76 83 88 93 48 22 16 14 12 16 16 13 13 15 14 13 11 11 20 44 33 18 14 12 14 12 18 14 23 52 39 22 12 8 15 14 15 27 31 37 38
95 96 77 87 82 83 92 70 36 20 13 13 15 14 17 16 15 16 17 12 11 11 16 61 68 33 17 16 15 19 14 26 26 39 38 19 19 21 21 19 18 26 32 34 34
74 67 43 78 90 75 85 54 38 19 14 16 14 14 14 17 14 16 16 13 14 15 14 17 40 23 21 21 15 20 20 18 17 34 56 52 23 14 16 16 20 21 30 32 34
63 67 67 86 71 45 65 41 31 20 15 18 15 13 14 16 16 15 25 20 15 14 19 14 19 46 24 16 14 17 22 18 55 37 50 60 34 14 16 14 16 18 23 28 30
63 66 81 65 55 66 48 39 27 24 20 23 18 17 13 17 19 16 14 30 26 19 21 18 24 44 30 24 20 21 15 18 19 41 47 69 38 14 15 14 14 18 20 25 28
55 83 98 88 40 45 50 38 32 23 18 18 18 16 15 17 16 19 18 32 30 25 42 32 24 25 44 26 22 28 19 14 19 59 46 40 19 13 16 17 16 19 19 20 27
71 57 61 91 67 47 43 35 30 24 21 18 19 16 22 24 22 23 20 36 33 50 30 28 33 25 20 18 22 23 19 17 17 21 32 27 17 12 11 12 13 15 19 19 19
74 49 50 56 51 54 50 40 28 21 24 25 24 19 19 25 22 25 22 35 34 37 31 31 43 41 44 27 24 27 22 19 16 15 16 15 16 10 15 15 16 15 15 20 19
56 56 46 60 53 54 52 35 27 22 22 20 20 21 22 27 28 33 35 31 26 37 41 42 64 62 54 38 43 54 42 26 23 16 16 24 18 13 14 16 18 19 18 20 22

GFSSW_925_rhum_015.txt.gz
RH
79 80 78 75 92 100 100 99 99 88 84 80 84 93 88 88 72 69 74 19 24 26 22 21 23 22 21 21 16 12 16 16 34 58 60 66 53 47 40 41 44 66 57 94 98
76 80 80 75 88 100 100 100 99 91 85 82 90 97 87 86 80 74 22 22 26 28 23 26 24 19 21 18 17 18 18 17 40 43 53 50 48 44 39 56 78 56 69 90 92
76 79 81 78 78 100 100 99 99 92 87 88 92 95 81 78 77 35 17 16 27 26 22 22 20 16 19 18 17 16 16 28 40 35 41 42 50 50 43 56 56 61 67 86 77
76 76 81 81 78 96 100 99 99 98 82 91 97 85 64 80 35 23 12 17 26 24 26 22 21 18 17 17 14 15 12 11 34 34 46 44 51 48 46 49 61 59 66 72 73
76 74 78 82 78 90 99 99 100 98 88 86 89 79 63 72 53 23 10 18 23 19 25 24 25 20 16 14 15 13 12 12 27 28 37 36 44 37 52 51 46 59 61 68 63
78 76 74 79 75 83 88 91 94 89 89 90 89 72 88 61 25 22 10 13 13 24 22 20 16 12 14 15 16 11 12 9 10 20 26 28 34 32 34 52 55 59 61 57 57
80 76 74 75 72 75 75 66 83 89 93 93 87 85 69 51 22 25 19 11 16 14 20 17 14 20 20 21 19 13 12 10 16 27 27 22 36 39 35 44 49 52 58 53 45
84 78 74 73 70 78 70 65 85 84 83 84 82 91 77 19 20 19 21 18 16 17 16 15 15 19 19 20 22 14 14 17 17 18 26 24 37 41 38 39 40 40 38 44 38
87 80 77 74 70 78 66 70 85 76 72 70 84 87 64 28 21 15 17 21 18 18 16 16 15 20 23 27 31 18 25 26 19 15 18 23 33 36 33 34 37 36 36 36 37
95 80 77 73 72 70 64 72 80 71 73 78 76 69 50 25 18 15 13 14 14 18 19 19 20 27 28 31 34 22 28 25 24 16 16 13 24 36 36 40 50 44 49 38 37
99 83 77 73 72 76 74 74 82 86 76 61 41 39 18 16 13 13 12 13 15 20 28 24 28 33 25 22 19 18 16 23 20 16 13 16 23 35 44 53 38 60 70 62 38
99 88 78 74 79 91 92 84 49 47 68 51 41 30 22 20 18 15 11 16 22 29 23 24 29 21 17 19 21 22 24 22 14 9 9 18 22 23 51 49 42 66 67 68 48
98 90 80 77 80 94 84 65 28 46 70 44 38 31 18 18 21 18 13 14 18 24 19 28 22 23 19 21 21 21 25 21 18 12 14 21 28 30 26 34 47 53 62 44 41
99 93 82 76 84 76 83 49 28 47 85 41 35 16 14 17 22 13 11 14 15 19 28 28 21 24 24 23 19 28 21 25 19 24 28 20 47 46 27 27 27 32 38 38 39
100 96 84 63 87 79 64 64 44 56 91 27 21 14 16 21 16 15 10 12 16 20 20 26 28 30 29 22 18 22 19 22 23 25 36 28 40 48 35 30 31 29 32 37 44
98 99 88 97 94 58 55 66 69 80 90 30 21 22 22 20 17 13 13 12 13 17 17 23 19 23 24 17 18 18 20 22 27 32 57 37 39 53 48 34 32 34 27 36 46
94 100 90 79 76 74 61 77 96 97 28 24 23 21 22 21 19 17 18 20 23 26 32 23 20 26 25 21 20 23 31 48 46 69 65 39 44 37 41 30 32 35 31 36 49
92 100 93 76 58 76 81 98 98 46 38 16 21 22 24 20 20 19 22 25 20 20 30 35 43 26 18 17 26 24 29 59 54 85 63 47 44 34 22 29 31 31 34 40 53
91 100 99 83 59 82 96 98 74 48 24 25 18 24 23 19 17 21 21 22 16 19 29 41 37 34 27 24 22 21 32 30 67 69 83 51 31 22 32 36 45 45 46 51 56
100 99 95 87 63 93 97 80 63 35 28 21 29 21 27 23 21 22 24 18 17 15 37 56 52 46 35 31 20 21 21 38 54 69 55 31 30 35 30 31 44 54 48 55 58
98 98 72 81 83 95 89 72 56 38 31 28 25 22 21 24 25 23 23 18 17 26 41 53 53 56 43 35 27 27 27 23 31 56 61 74 46 18 22 23 41 46 46 49 50
94 93 69 88 96 83 87 65 50 39 35 35 20 21 22 23 24 25 27 36 30 22 34 47 57 76 50 25 20 20 24 35 63 36 72 76 53 20 18 17 20 29 39 44 44
96 82 90 58 75 89 56 55 52 46 42 30 27 23 22 27 42 23 35 32 32 28 27 32 34 60 42 35 31 23 21 20 40 62 51 66 51 21 17 16 16 19 25 43 44
91 86 95 94 57 58 57 53 60 44 43 32 27 29 27 28 31 30 47 36 34 39 41 38 35 43 57 41 32 32 27 23 31 67 54 62 36 23 22 22 21 18 18 33 43
96 70 71 95 91 71 50 48 54 55 38 31 30 30 30 24 24 27 48 46 38 47 32 39 41 30 34 36 29 26 29 29 22 35 45 38 34 27 20 22 20 26 21 19 24
95 63 88 79 70 79 55 55 50 43 38 34 36 29 27 28 34 30 40 46 45 43 37 38 61 43 42 39 42 38 35 32 31 25 22 24 26 18 22 21 22 23 22 24 24
77 72 62 78 75 74 54 54 44 39 35 24 33 33 33 37 38 44 46 52 45 52 50 52 68 69 58 49 45 53 37 33 32 29 26 29 24 22 32 29 26 25 26 29 24

GFSSW_925_rhum_021.txt.gz
RH
71 72 70 68 75 75 74 72 74 71 66 73 77 78 84 84 60 50 65 22 19 17 22 26 25 25 23 26 24 20 29 28 19 58 44 53 51 46 59 72 86 88 93 94 100
75 73 70 68 70 74 72 70 58 56 57 71 73 84 64 78 68 76 26 23 25 23 23 25 26 23 24 21 24 24 32 27 20 38 49 50 48 48 58 80 93 93 96 100 99
84 76 72 70 66 71 73 68 69 71 55 73 65 85 54 70 78 35 25 23 26 27 23 25 22 20 21 20 21 21 24 20 32 40 46 47 48 51 62 70 83 96 97 94 96
89 84 76 71 68 68 70 66 63 76 61 75 71 79 48 77 30 20 19 19 25 28 28 22 23 23 22 21 19 20 18 20 22 38 45 48 49 52 60 64 78 85 84 90 90
90 91 82 74 72 67 68 63 65 71 63 72 89 71 54 53 36 25 19 22 29 32 27 24 27 27 24 19 17 19 17 16 24 40 40 43 45 45 68 85 82 84 85 86 83
84 88 91 78 72 66 64 65 61 67 66 73 82 63 78 32 29 27 19 25 26 28 23 24 25 24 24 22 20 19 22 19 29 40 39 43 44 44 65 86 87 81 87 73 71
86 85 89 85 73 70 67 60 58 66 70 79 81 73 85 28 29 27 21 20 21 18 26 23 21 22 22 24 21 23 16 27 35 38 42 36 41 48 63 75 89 85 86 74 76
86 85 86 91 78 72 66 58 59 67 68 82 81 80 77 15 19 23 23 21 17 17 19 17 18 23 23 22 25 22 17 34 27 31 36 31 49 49 66 70 80 83 90 78 80
86 86 81 90 82 73 64 52 58 76 72 81 81 86 66 22 29 19 26 24 21 18 18 19 19 23 25 29 30 26 23 26 28 25 35 31 54 53 63 65 76 75 83 88 86
91 88 87 94 86 75 61 50 62 85 80 83 82 60 36 24 22 22 20 27 22 24 22 22 30 32 34 33 32 27 25 27 26 24 31 36 53 58 60 62 67 75 80 83 86
90 92 93 99 88 75 57 54 68 79 77 39 32 33 28 28 23 21 19 26 21 22 29 26 30 34 28 30 26 27 23 24 24 20 25 39 52 56 58 62 68 71 72 73 78
88 92 99 100 88 75 65 78 57 64 70 59 56 45 38 38 38 24 18 20 25 30 28 31 34 27 27 26 28 23 25 27 25 22 20 28 47 52 56 55 58 64 66 63 66
64 88 99 100 90 77 71 66 67 71 61 52 56 56 46 40 41 30 18 20 23 30 32 34 24 24 22 24 27 27 25 28 29 20 26 35 43 54 49 45 48 55 54 53 59
55 81 99 100 88 70 82 68 62 70 66 53 60 51 39 27 25 22 16 17 20 25 29 29 24 23 22 24 26 31 25 26 27 23 35 24 51 45 52 52 47 46 60 50 53
64 85 100 99 70 91 71 64 59 69 57 24 50 29 24 25 21 20 16 16 21 21 29 29 28 28 26 22 24 29 27 27 25 37 34 32 41 37 47 54 45 41 44 54 57
72 83 100 100 84 59 59 60 71 78 67 38 37 26 26 24 22 16 19 15 17 22 24 24 22 26 25 22 24 22 22 36 43 44 54 37 40 41 54 42 42 34 41 42 64
79 77 100 98 82 69 61 81 90 94 35 40 31 29 26 30 25 23 20 22 25 27 29 26 23 27 24 26 23 28 36 46 42 62 58 44 44 42 30 34 32 34 38 49 55
82 74 98 98 77 75 83 92 96 64 58 42 28 32 32 29 28 27 25 27 22 24 36 34 37 27 27 26 30 29 33 54 44 64 43 51 52 39 30 32 33 35 36 44 61
81 86 99 99 88 74 97 98 76 62 48 30 29 36 35 29 27 27 30 29 25 25 28 42 35 35 32 34 26 26 32 33 67 77 72 52 46 24 28 34 44 44 51 60 60
93 95 94 95 95 76 98 81 65 50 48 49 38 34 41 36 32 30 33 25 24 25 25 36 36 40 38 32 31 26 32 36 59 54 57 50 38 38 33 31 44 54 48 56 73
94 96 71 79 98 95 90 73 58 44 46 55 50 34 35 35 34 33 30 23 25 25 29 46 34 36 38 34 31 36 33 37 44 62 59 66 49 34 31 25 30 32 52 50 72
88 96 96 82 98 86 84 63 49 43 47 54 54 55 39 33 33 34 32 25 28 41 35 42 46 58 34 32 31 31 34 36 62 39 78 78 53 29 26 25 28 32 37 54 59
88 89 100 78 94 91 70 66 55 46 51 54 55 46 34 37 34 35 36 29 44 36 44 47 49 64 47 36 35 34 31 40 50 63 60 69 48 27 30 25 22 32 34 46 60
87 96 97 89 68 68 75 73 74 55 55 53 58 51 44 33 32 43 42 40 40 37 57 43 47 43 47 43 42 39 35 35 42 71 57 64 36 27 27 28 24 24 30 44 61
96 72 71 92 88 76 63 65 70 67 56 49 57 61 57 48 39 40 48 46 43 52 46 40 41 36 35 32 37 33 34 38 38 38 47 40 48 34 26 26 28 28 26 45 57
89 87 74 82 70 76 74 68 64 61 59 57 48 46 45 60 44 45 50 49 46 42 39 47 48 41 47 43 42 37 36 38 38 33 39 35 34 33 31 33 40 35 36 40 43
77 87 78 69 76 77 72 64 59 56 56 48 46 52 56 51 42 39 47 49 44 51 53 51 67 65 50 54 46 61 46 39 34 33 33 40 34 36 42 42 47 51 48 48 47

GFSSW_925_rhum_024.txt.gz
RH
79 74 73 72 69 68 72 70 65 63 71 56 57 57 65 48 38 44 67 26 21 21 24 28 27 26 23 28 24 23 32 32 22 42 42 55 54 56 75 91 86 88 92 92 100
86 82 77 72 70 66 69 68 62 64 63 65 57 49 51 40 51 71 30 25 18 21 20 27 26 26 27 24 26 28 37 28 22 23 43 51 51 54 74 91 91 96 97 100 100
92 89 85 76 72 69 66 67 62 60 61 62 64 40 37 40 54 32 30 28 26 24 20 24 21 20 20 21 22 23 27 22 19 31 47 47 49 52 76 82 83 96 97 97 96
100 96 92 88 75 72 64 63 63 60 60 60 62 49 33 54 29 21 26 25 28 25 22 22 22 24 22 23 21 23 21 20 20 40 48 47 53 56 62 71 78 87 89 88 90
100 92 90 92 84 72 68 63 62 58 60 65 60 51 43 36 28 26 22 26 28 26 26 23 25 26 26 22 19 22 18 17 18 50 46 45 53 60 97 86 78 81 85 86 88
94 100 95 92 91 78 72 64 60 57 62 71 67 58 62 19 23 33 25 26 25 26 26 23 25 25 25 27 20 20 20 25 36 44 43 47 52 64 93 91 85 84 86 88 76
95 100 100 96 91 85 71 66 61 57 63 74 75 74 75 27 26 31 29 24 22 22 25 21 23 23 23 26 22 26 22 29 40 42 44 40 48 78 87 88 87 92 91 86 76
95 95 98 100 97 92 76 69 61 60 64 77 76 83 63 15 23 22 28 27 24 20 22 18 20 24 25 25 26 22 20 35 31 36 38 41 57 78 86 90 83 85 87 80 82
74 94 91 100 100 95 81 68 52 59 80 78 73 86 56 21 25 17 21 26 24 21 19 19 21 26 27 29 29 27 23 30 34 34 38 35 58 66 79 88 92 91 91 82 86
59 80 92 89 100 96 83 67 55 83 84 83 83 54 28 22 26 26 27 30 24 24 24 24 32 32 36 32 36 30 26 29 32 28 36 39 57 66 75 76 86 93 95 89 87
69 68 87 87 100 99 80 52 63 76 79 50 30 28 24 29 32 25 28 31 24 25 32 28 33 38 29 31 26 28 25 24 24 22 33 42 60 66 76 72 78 84 92 94 90
82 75 90 89 100 99 84 76 60 68 79 60 57 46 36 39 47 30 24 24 28 33 29 34 38 29 27 29 29 28 26 28 26 20 23 43 55 61 68 68 67 72 83 85 86
84 70 72 88 100 97 83 60 69 73 83 50 56 56 49 44 44 38 23 24 26 32 33 37 26 24 27 27 28 27 26 27 29 24 32 42 52 60 52 52 60 64 66 71 78
87 75 62 100 100 83 69 67 73 77 65 47 60 54 48 45 32 27 20 19 22 26 34 32 27 26 24 27 27 25 26 26 30 27 36 29 38 44 57 60 55 58 66 65 66
83 81 61 100 82 88 75 62 68 72 60 29 56 36 40 29 24 26 18 18 24 24 27 26 27 28 27 24 23 25 27 30 29 35 36 35 39 36 51 57 54 51 53 60 59
78 81 66 100 100 69 75 60 80 79 61 28 40 42 35 26 23 22 20 16 20 22 28 27 23 28 27 24 24 24 24 35 44 45 53 36 40 43 52 45 44 46 48 48 59
76 81 77 99 89 77 78 75 100 93 33 31 44 32 31 31 27 23 27 27 29 32 32 27 24 26 27 25 28 32 36 47 45 61 57 46 47 41 29 36 41 45 45 44 46
74 81 77 91 93 78 84 93 98 63 43 43 34 32 32 28 27 28 28 31 23 26 39 38 37 27 26 26 29 34 38 57 45 63 43 49 48 32 29 30 32 35 37 42 50
72 83 89 88 100 82 94 98 72 61 50 42 30 36 36 30 30 28 33 34 27 27 30 41 34 32 33 33 28 32 36 35 68 77 71 52 43 27 25 33 42 42 42 45 65
82 96 87 85 99 87 98 80 69 51 50 51 43 37 45 40 31 33 37 30 26 27 25 34 33 38 35 33 31 29 37 42 57 50 55 50 44 36 27 31 42 47 48 51 63
92 92 66 93 99 99 89 76 59 51 48 58 61 57 40 40 37 38 38 24 27 28 28 40 32 33 40 38 34 36 37 45 47 61 58 66 47 37 29 29 28 33 46 49 60
84 93 92 88 97 82 76 67 55 52 47 55 56 63 56 38 39 37 35 28 29 38 34 41 45 54 36 31 32 30 35 42 63 44 78 78 54 28 30 29 27 29 33 45 52
93 86 84 81 91 89 66 63 61 52 51 57 62 57 44 36 33 38 36 28 41 33 41 45 44 57 40 32 36 35 37 43 53 64 66 70 53 27 31 30 28 24 30 44 52
95 93 94 88 56 65 71 69 72 58 54 53 61 57 51 48 42 35 37 40 48 35 54 39 49 39 38 33 40 40 39 45 46 70 60 67 41 29 27 32 30 26 27 35 56
97 85 75 90 86 72 60 60 72 67 54 55 62 66 54 56 41 45 49 50 44 62 46 39 40 42 37 36 41 39 34 47 44 44 49 41 46 35 34 30 29 29 36 57 61
97 90 79 87 69 73 72 67 69 63 66 67 62 55 61 68 49 39 49 52 47 49 48 49 46 40 45 46 42 41 39 43 41 39 41 40 40 35 31 36 41 37 47 55 59
92 87 92 69 75 77 69 64 62 57 57 53 53 53 59 51 42 43 44 53 48 52 57 51 67 62 50 54 45 62 50 44 43 40 39 46 38 38 40 46 48 52 52 54 56

GFSSW_925_rhum_027.txt.gz
RH
90 88 87 82 77 73 68 66 67 62 53 54 48 40 35 41 31 43 50 27 21 23 28 28 26 28 24 27 22 21 24 22 20 24 33 49 51 63 71 72 74 80 81 92 100
99 94 92 89 83 76 70 64 64 59 55 55 50 39 33 34 49 60 32 26 18 22 26 24 28 24 22 23 24 23 27 22 18 17 32 46 50 59 69 82 83 93 97 100 100
100 100 99 96 93 84 74 66 63 59 53 55 51 38 32 37 56 30 34 26 20 19 22 23 23 19 20 21 22 23 23 21 18 17 38 51 49 54 67 74 76 94 91 95 94
95 95 100 91 95 95 81 71 64 62 52 58 54 37 30 50 30 23 26 27 23 20 26 23 22 23 22 22 20 23 20 19 18 28 44 44 48 56 62 60 68 79 82 90 92
97 99 99 96 94 97 92 76 69 64 54 56 58 42 40 35 17 26 24 27 25 24 22 22 24 25 25 22 20 22 18 17 18 37 50 46 53 67 89 82 85 81 84 84 90
76 93 99 97 100 100 95 86 75 63 59 56 62 48 55 29 21 35 24 28 26 28 25 24 24 25 25 26 21 21 18 22 35 44 43 52 64 60 85 75 80 80 76 78 84
64 77 97 98 100 100 99 93 80 74 64 60 73 67 68 26 27 34 27 25 25 23 22 20 23 23 24 28 24 25 24 30 40 42 43 38 50 76 81 79 83 79 78 80 75
74 58 88 96 98 96 99 97 87 72 67 70 80 79 53 20 27 31 34 27 25 25 22 20 21 24 26 26 23 21 22 32 32 37 41 34 54 83 83 81 83 82 82 79 70
86 70 62 89 96 87 99 94 90 71 75 86 78 87 38 25 25 16 26 27 27 24 22 21 22 27 26 26 25 26 22 31 34 34 38 34 55 68 79 78 74 75 73 68 69
89 83 67 79 93 93 84 92 82 78 88 88 85 62 30 20 27 33 27 27 25 27 26 26 28 28 30 26 29 29 26 28 33 29 36 37 53 72 84 82 83 73 69 71 68
88 88 78 88 93 90 97 86 60 72 89 56 41 35 20 27 36 31 33 32 26 27 31 29 30 32 27 30 25 28 26 25 23 22 34 39 47 67 78 79 81 81 81 71 62
86 88 83 80 94 93 98 80 60 72 82 63 58 46 35 36 44 35 31 30 32 32 31 31 35 28 28 29 29 29 27 26 25 22 28 33 42 55 72 72 67 70 76 73 63
81 84 82 68 99 99 95 82 66 78 90 62 58 55 47 42 44 38 29 29 30 34 35 35 26 28 28 29 30 29 29 30 28 26 32 36 34 55 54 64 60 60 61 64 67
79 84 84 62 94 92 86 74 72 81 64 43 51 50 51 45 41 31 25 23 26 31 36 31 27 28 30 29 28 29 25 28 29 27 28 27 26 35 54 54 53 52 54 57 61
80 82 85 75 94 86 75 68 76 74 58 30 59 39 47 34 25 30 22 20 28 29 28 27 30 31 30 27 28 26 30 29 30 31 36 36 30 24 46 54 49 48 48 49 53
77 81 83 82 97 80 82 79 78 82 64 28 45 53 50 33 25 25 23 19 23 27 29 26 25 27 26 25 25 29 30 33 39 40 41 36 32 28 33 39 37 39 44 45 48
74 76 81 83 84 79 87 79 90 96 38 30 47 40 38 32 29 27 30 28 28 36 35 28 26 26 28 27 29 29 34 39 39 47 44 43 41 30 24 26 32 37 40 41 42
76 81 88 81 84 87 79 91 99 62 47 38 34 36 40 31 30 29 33 32 26 28 36 33 34 28 30 27 28 33 32 46 44 51 36 46 44 22 24 27 28 29 31 36 42
83 82 91 84 78 96 93 94 64 59 48 45 29 38 36 30 28 30 35 33 28 28 31 42 33 28 33 33 26 34 36 34 56 70 58 40 34 25 21 24 34 36 37 38 36
93 94 87 82 74 100 95 75 70 51 50 54 50 39 44 39 36 31 39 32 28 28 26 34 32 39 36 32 34 30 33 42 49 51 51 41 42 29 24 22 26 32 35 36 44
92 96 69 78 87 94 85 69 60 51 50 58 65 61 43 43 37 40 35 27 29 28 27 35 32 35 38 37 34 37 38 43 41 47 45 45 34 30 27 25 27 26 31 40 40
92 96 66 72 94 82 80 64 56 52 52 54 59 64 65 40 44 41 38 31 31 33 33 37 44 49 37 32 31 32 36 40 53 44 56 56 41 25 28 28 29 25 27 34 40
97 83 91 78 87 81 69 62 53 58 51 58 60 57 51 48 39 40 38 30 41 35 39 42 42 45 35 31 36 36 36 39 48 55 57 62 39 26 27 28 28 27 24 27 38
96 97 96 93 63 65 72 72 66 56 51 52 60 58 55 51 46 36 40 37 44 33 52 37 46 40 38 34 34 44 41 41 42 55 52 50 36 26 25 25 23 28 28 27 44
98 95 78 94 84 74 61 59 66 65 58 51 60 54 61 58 48 49 45 52 47 64 45 40 41 43 34 30 36 34 36 43 38 40 46 37 40 29 28 27 27 30 43 52 57
100 95 87 72 67 71 72 65 67 61 53 64 58 55 51 63 55 49 48 52 52 56 50 50 46 42 39 44 42 42 38 39 39 41 40 37 38 30 30 31 34 42 49 51 51
92 85 87 68 75 76 69 64 61 56 56 49 51 54 66 54 56 52 46 46 50 47 56 54 64 56 47 54 46 60 51 43 42 39 38 44 35 33 34 40 40 49 47 49 50

GFSSW_925_rhum_030.txt.gz
RH
98 99 95 92 91 88 79 70 62 56 54 48 52 49 39 34 30 60 32 26 26 21 26 28 22 20 17 14 16 14 14 17 16 15 17 24 36 42 49 49 51 59 56 89 100
99 100 100 100 98 96 92 81 70 61 54 50 51 52 36 32 58 35 30 27 17 22 25 18 17 16 13 14 16 15 14 14 12 12 14 21 34 41 46 51 62 82 97 100 99
86 86 94 98 100 95 93 93 78 69 60 52 50 53 36 36 40 23 32 24 19 19 20 16 14 13 15 15 15 15 15 14 13 14 13 32 37 40 41 43 48 84 96 95 94
88 89 90 90 98 95 90 95 91 77 66 55 50 53 33 61 17 26 30 24 20 31 21 16 15 15 15 16 14 17 14 14 14 15 22 35 40 51 46 58 56 73 88 90 84
68 83 91 96 90 98 98 96 94 88 75 64 54 52 49 25 13 20 25 25 26 30 17 16 17 17 18 17 17 18 15 14 15 18 36 34 38 46 66 70 65 75 78 85 85
85 68 64 87 95 97 94 96 94 95 86 76 64 52 50 25 26 33 34 37 26 24 19 17 17 18 19 19 19 17 17 18 19 26 36 40 43 42 70 67 73 75 73 90 86
89 84 68 74 93 87 89 92 89 92 93 84 70 77 51 25 30 44 41 30 27 20 17 16 17 18 19 19 18 18 21 20 22 32 33 34 36 50 64 56 63 69 59 54 65
92 87 76 63 86 84 86 80 83 90 92 76 77 77 39 26 28 43 34 28 29 24 22 19 20 20 21 18 18 18 17 21 25 28 32 32 37 56 65 58 52 50 52 53 58
91 93 86 66 73 85 89 81 83 87 83 80 86 66 28 30 27 22 34 23 24 24 22 20 20 21 20 17 16 17 19 21 23 24 29 30 33 44 66 56 43 45 50 47 50
87 89 89 76 74 91 82 77 86 79 89 92 74 59 31 16 18 26 25 26 22 22 22 21 21 20 17 16 19 18 18 17 23 24 26 27 31 39 57 54 50 41 42 42 42
85 85 87 84 81 96 86 74 54 56 73 41 32 29 15 19 32 27 29 24 21 23 27 25 24 20 14 15 18 20 18 17 16 20 25 24 23 36 48 55 57 48 42 40 40
80 84 87 87 74 99 99 62 55 61 56 38 40 34 30 27 27 24 28 23 27 27 22 25 25 15 17 18 20 22 19 19 17 18 21 19 21 29 42 49 47 46 49 43 38
78 81 84 85 68 99 85 70 70 71 70 39 40 35 31 32 26 20 23 22 24 24 24 23 18 20 20 22 23 22 19 21 20 20 19 20 20 29 34 42 44 44 40 40 35
75 80 83 85 81 83 75 75 76 76 53 25 36 34 34 26 29 17 21 19 22 23 22 22 18 21 20 20 20 23 18 20 22 22 21 21 20 22 25 38 45 43 44 40 36
91 79 83 85 98 79 67 84 87 74 32 19 39 34 33 25 20 24 20 20 21 22 24 21 20 22 22 18 18 19 20 21 21 21 24 24 19 19 28 30 28 32 36 37 34
76 83 86 92 89 89 85 88 80 66 40 22 38 46 44 33 21 21 23 18 15 18 20 16 17 18 16 19 19 21 23 24 24 24 30 23 21 16 17 17 16 20 25 30 31
78 88 82 84 69 80 99 81 76 63 23 20 38 40 34 30 24 21 23 25 23 27 26 19 19 17 20 20 22 21 22 28 30 33 32 29 30 18 14 14 17 18 17 23 27
72 76 86 78 74 88 94 96 61 22 27 29 30 34 35 22 22 24 22 24 18 17 20 23 25 19 19 19 21 23 19 28 39 36 25 32 28 18 14 17 17 19 20 20 24
71 78 94 85 75 92 96 90 32 26 25 29 27 36 36 25 21 24 23 21 20 18 21 24 21 19 22 21 20 26 26 19 32 46 33 23 21 16 14 13 20 21 22 22 22
84 90 91 84 85 94 97 67 28 25 26 24 28 26 31 30 23 25 26 21 20 17 15 21 24 21 27 26 25 24 21 30 30 41 38 25 24 18 15 14 15 14 17 18 24
83 95 81 86 84 97 95 60 33 25 30 39 31 25 27 33 24 25 24 25 20 21 16 16 20 32 32 30 22 29 27 27 26 30 31 31 23 15 15 14 15 15 18 20 22
80 97 75 84 93 82 93 52 34 28 35 41 39 35 38 29 30 25 25 22 21 17 25 19 22 27 22 24 24 20 20 25 33 32 36 42 27 14 15 15 18 17 17 20 25
91 96 86 66 88 88 52 51 40 36 35 47 42 40 43 41 37 29 24 26 28 22 20 24 27 32 24 27 28 26 25 23 28 33 30 48 26 18 17 18 16 19 17 18 21
96 98 98 88 48 56 45 46 49 39 34 37 41 41 48 48 41 38 32 35 34 21 39 28 21 25 30 21 18 29 24 25 26 34 28 28 20 16 16 16 15 17 19 18 27
96 90 79 96 74 46 43 43 53 46 38 35 43 41 46 52 43 44 37 46 37 50 26 26 25 23 18 16 16 18 18 21 24 23 26 22 21 19 16 16 17 21 26 31 37
96 79 70 67 59 48 49 41 50 39 32 44 46 43 40 47 36 53 44 41 41 40 32 30 27 28 29 20 22 23 18 17 19 18 18 22 22 17 16 19 22 25 31 36 42
87 53 56 51 63 57 54 44 41 40 33 29 30 38 42 45 40 49 51 45 41 43 41 38 34 36 33 35 34 47 32 22 21 19 22 26 22 16 20 22 23 30 33 37 38

GFSSW_925_rhum_033.txt.gz
RH
99 100 100 98 99 95 92 92 89 78 68 61 51 44 48 41 26 39 28 27 23 19 20 21 19 15 13 10 10 9 12 17 13 12 14 14 23 27 31 34 35 58 70 90 100
89 90 92 96 98 98 90 85 90 88 75 65 52 44 44 40 62 25 24 25 18 17 21 13 12 13 12 11 11 11 11 13 11 12 13 17 23 28 30 37 49 88 88 99 99
86 86 86 85 86 93 89 83 88 88 87 73 58 46 37 39 34 19 28 23 17 18 17 10 11 10 12 10 11 11 14 12 11 13 14 22 25 31 33 72 66 76 92 90 88
80 79 82 87 88 89 87 85 92 92 91 85 67 50 32 56 17 27 27 22 17 28 16 11 10 12 12 12 10 13 11 11 12 12 18 25 25 28 39 53 58 78 82 83 80
87 85 64 61 78 91 92 87 90 92 94 91 81 60 53 27 16 29 26 21 22 25 14 10 12 14 14 11 12 13 12 11 12 13 23 25 29 31 53 56 63 79 77 72 70
90 89 86 66 59 87 92 87 89 86 95 91 86 73 47 33 17 31 32 28 19 18 15 13 14 13 16 14 14 14 13 13 12 16 22 29 31 34 50 48 60 60 72 87 71
92 88 89 85 57 71 89 86 86 83 92 90 83 69 42 29 18 25 28 21 17 17 14 14 14 15 15 15 13 14 15 14 14 17 20 30 52 39 48 47 56 64 56 58 80
87 86 89 89 75 56 81 83 84 84 83 85 72 64 39 21 17 24 27 19 18 17 16 15 15 16 17 14 14 14 13 22 23 18 20 39 71 44 42 38 41 43 43 44 47
81 85 87 89 84 59 72 83 81 82 84 80 72 56 31 26 19 19 25 16 17 16 17 16 15 17 16 17 14 13 16 31 28 15 20 38 75 37 37 34 36 33 35 35 42
77 80 83 86 85 68 77 79 74 87 83 73 56 49 31 17 14 12 26 19 16 16 16 17 17 18 15 14 18 16 14 15 24 20 18 23 22 34 36 35 35 31 31 31 34
84 76 79 84 86 75 88 58 53 59 52 28 28 19 13 14 20 14 22 22 18 19 23 20 22 21 15 12 11 16 15 15 18 22 17 20 28 24 33 34 38 31 36 30 29
89 80 82 80 84 80 96 49 34 52 37 22 25 24 22 19 21 14 17 25 24 25 20 21 24 16 12 11 13 15 15 14 15 14 15 15 18 28 28 32 32 31 34 32 28
76 89 82 85 84 79 77 44 50 54 46 24 19 22 18 20 20 15 18 19 21 22 19 21 16 13 14 14 16 15 16 18 16 16 13 14 16 16 18 25 29 28 26 26 28
80 79 86 86 82 49 55 48 50 63 46 18 27 26 21 19 23 13 16 17 17 20 18 18 15 16 15 15 14 17 13 17 16 17 21 15 26 18 16 22 28 29 27 25 25
64 72 90 80 66 64 48 53 62 67 32 12 17 22 18 23 11 17 12 16 19 18 17 20 18 18 18 15 14 16 17 16 17 18 18 16 17 21 12 19 21 24 27 26 24
64 78 85 89 81 75 85 82 70 52 34 17 27 32 33 25 13 13 15 15 14 16 16 17 12 13 14 13 14 14 18 18 18 20 29 20 17 25 14 13 14 16 20 24 23
65 76 77 82 62 56 76 97 64 41 10 14 25 29 30 28 20 16 20 23 22 26 24 19 16 13 13 17 16 17 20 28 32 32 32 18 19 16 19 11 12 12 14 18 22
70 74 82 86 70 60 84 98 48 20 16 19 16 26 33 22 25 21 23 22 18 17 21 23 25 16 15 16 18 19 18 27 58 58 33 22 23 15 11 11 11 10 10 11 16
78 77 76 76 86 67 96 96 50 20 11 15 20 30 30 22 21 21 21 20 17 15 21 21 19 12 13 14 14 19 23 15 22 26 33 25 16 12 12 10 11 12 14 14 14
94 70 62 75 86 68 97 82 45 21 11 13 22 23 29 26 22 21 22 15 16 13 15 16 21 14 15 15 16 19 17 26 25 51 45 22 19 18 14 11 11 10 13 13 16
96 92 55 78 86 93 93 68 38 24 14 13 21 23 23 25 22 20 21 16 14 13 14 17 19 18 20 22 19 22 24 23 21 24 39 34 23 14 13 12 12 12 11 12 15
93 97 56 81 98 90 84 58 32 24 16 20 25 27 21 21 28 20 21 17 14 13 19 18 19 27 23 16 13 16 20 21 34 34 33 35 28 12 12 12 13 12 12 13 16
96 87 68 74 96 92 61 46 32 23 26 24 26 32 29 24 27 26 20 15 19 19 19 19 23 34 25 18 18 21 22 23 24 24 44 59 28 12 13 13 12 13 12 14 15
98 98 96 92 67 60 54 47 41 26 20 22 22 26 27 38 29 29 26 22 19 19 33 28 21 25 33 22 18 23 19 18 22 40 34 31 21 16 14 14 12 12 13 14 14
98 87 85 95 89 58 42 39 36 29 19 22 25 35 34 28 27 31 30 28 32 31 27 24 32 26 20 16 14 15 17 18 21 22 31 25 20 14 13 13 12 16 16 16 18
100 80 72 65 69 57 52 42 33 26 22 29 30 32 49 52 34 50 38 40 30 27 29 26 32 25 22 16 14 16 14 14 16 17 18 18 18 12 11 12 13 14 18 20 25
94 51 49 53 74 59 54 44 34 26 23 23 23 26 30 31 39 57 53 55 47 42 37 30 38 37 38 20 19 32 20 17 15 13 15 21 16 12 12 14 15 15 20 24 29

GFSSW_925_rhum_036.txt.gz
RH
89 88 88 92 95 94 92 94 89 87 88 81 73 52 35 30 26 39 37 25 28 23 14 21 18 14 13 12 9 9 14 15 16 13 14 11 17 54 50 61 54 72 88 96 99
84 85 85 85 86 85 85 89 86 84 90 84 81 67 40 33 52 35 22 23 21 16 20 13 12 11 13 11 9 11 13 16 10 12 14 12 18 26 49 52 67 58 84 95 92
83 79 77 80 83 84 86 85 86 88 88 85 81 76 50 36 40 25 22 24 17 11 24 15 10 10 12 10 10 10 13 12 10 12 12 16 21 25 47 69 66 74 85 91 92
88 87 84 68 61 65 75 87 87 89 90 83 81 76 60 54 27 31 22 20 16 18 22 11 9 11 13 12 9 11 10 10 10 11 14 21 23 26 50 48 60 75 77 74 82
87 91 87 86 74 56 65 88 91 92 90 82 80 77 65 32 24 27 21 18 17 21 19 10 11 12 15 12 10 11 10 11 10 11 15 18 25 35 55 72 68 69 65 68 82
86 89 93 88 86 76 57 74 88 90 87 83 79 78 61 46 18 24 29 22 18 17 14 10 11 12 15 15 12 13 13 12 10 11 16 24 34 40 50 56 66 64 71 73 72
80 84 86 87 88 86 71 54 80 81 84 83 82 86 57 47 18 16 25 22 17 14 13 12 12 14 14 17 11 11 14 12 12 12 18 25 31 46 46 48 56 58 61 60 64
77 78 82 86 88 88 81 55 62 70 86 77 84 79 59 23 23 22 20 21 15 13 14 13 13 15 16 15 15 14 13 16 16 16 28 35 65 38 42 48 52 46 51 48 54
83 78 75 81 85 86 84 60 56 74 83 81 82 69 41 22 24 18 18 20 16 15 15 14 14 16 14 18 17 14 16 17 21 17 30 40 66 43 43 35 42 42 41 48 56
73 84 77 75 79 83 84 58 35 83 79 77 61 43 34 20 16 17 16 20 14 14 16 17 15 18 16 18 23 17 20 17 23 18 18 46 64 69 66 30 32 31 35 37 45
74 73 86 78 74 79 82 64 43 72 64 40 32 23 13 19 14 13 13 19 14 16 22 17 21 22 17 15 13 12 17 21 17 18 19 22 55 73 70 30 31 29 30 30 33
68 70 79 84 76 76 81 64 28 43 49 25 29 26 23 20 18 15 13 24 21 23 19 20 25 18 15 14 13 12 14 16 15 17 16 13 34 61 70 35 27 29 35 30 30
70 67 69 87 85 79 72 56 44 43 47 21 14 16 15 16 22 17 11 21 22 24 22 24 20 16 16 15 14 13 15 14 16 19 15 14 14 42 39 26 27 26 32 30 28
69 69 76 91 81 59 48 40 42 42 53 15 12 18 14 15 20 15 11 16 21 23 20 19 16 16 16 16 13 16 11 15 19 18 19 17 27 22 23 23 27 26 28 29 29
74 69 68 85 69 55 67 74 48 57 42 7 8 14 16 20 15 18 13 16 22 19 18 22 19 18 19 14 12 15 15 17 17 17 20 20 23 15 16 18 23 27 27 26 26
79 74 74 80 91 70 62 79 59 62 40 10 22 24 22 22 19 14 16 14 16 18 16 17 13 14 16 13 12 12 17 19 19 19 32 26 20 18 17 16 17 20 25 25 25
80 75 80 65 71 64 60 79 74 49 10 10 23 26 25 26 23 22 19 21 24 29 27 18 16 14 13 15 13 14 19 30 32 32 40 22 21 20 18 22 28 24 27 43 25
82 78 86 68 73 74 79 95 49 20 22 9 10 18 31 26 26 24 21 22 20 19 24 25 27 17 13 15 16 18 19 34 45 55 43 46 32 16 15 15 12 12 27 30 25
81 95 84 78 76 84 88 97 50 19 11 16 14 22 23 26 23 25 21 22 20 20 26 26 23 14 14 13 15 19 24 17 26 41 62 75 32 13 13 13 10 10 12 14 14
100 95 80 70 67 82 98 94 54 20 13 12 16 14 22 26 26 24 23 18 20 18 17 20 26 16 14 13 15 17 14 33 28 44 55 32 27 21 20 13 11 11 13 14 16
100 98 69 67 75 97 94 74 45 28 20 19 21 22 16 18 23 26 24 18 18 17 16 18 24 23 18 18 18 18 22 26 30 28 53 47 32 22 23 13 13 13 13 13 16
95 98 68 69 97 91 91 54 41 30 24 22 19 19 18 19 25 29 25 20 15 16 20 18 24 33 23 15 14 16 20 21 37 36 36 56 35 17 21 16 15 13 12 14 15
96 96 64 73 93 95 72 65 40 37 31 28 25 20 18 30 60 50 37 22 18 19 21 20 25 39 30 22 18 20 17 21 26 31 42 67 40 18 15 14 13 14 14 15 17
98 99 94 90 57 66 76 66 53 34 32 25 21 19 21 31 43 63 66 27 26 18 32 34 25 29 42 28 24 25 19 17 28 45 44 45 33 29 21 22 17 15 15 14 17
98 98 86 96 91 59 55 45 52 43 32 30 26 25 23 34 48 63 64 60 39 32 21 33 34 28 24 19 19 19 19 18 20 36 42 39 36 26 20 22 23 18 18 14 15
100 97 72 54 72 68 60 56 43 37 33 34 33 23 22 28 40 57 70 68 49 38 29 30 36 33 37 24 19 22 18 16 17 17 17 19 20 15 15 19 24 24 16 18 18
98 79 62 62 74 77 70 56 48 36 31 25 26 27 28 23 29 53 70 78 73 60 51 37 40 40 46 30 27 35 24 17 16 15 17 23 19 14 14 13 13 17 15 17 22

GFSSW_925_rhum_039.txt.gz
RH
86 84 82 83 84 84 83 81 82 82 78 80 77 69 60 62 35 31 51 30 28 28 18 14 20 17 17 18 17 14 20 25 18 18 19 21 28 51 58 69 64 80 81 90 99
86 86 82 76 72 78 81 82 81 85 85 80 78 67 54 60 50 51 22 24 25 20 15 19 21 19 20 18 18 17 24 21 14 15 17 16 29 56 50 59 64 93 94 100 99
91 90 89 84 76 64 58 55 67 84 91 88 80 66 53 61 63 28 24 23 23 15 11 20 21 14 18 16 16 16 20 14 13 14 15 26 35 44 56 58 61 77 92 94 94
89 90 90 92 89 84 73 54 62 88 90 86 83 77 53 60 34 26 22 24 20 13 18 23 15 14 16 18 15 14 13 12 12 14 14 24 38 66 60 67 58 84 87 89 92
83 87 90 94 91 90 87 71 55 67 84 86 83 82 67 60 42 25 22 20 16 13 24 25 17 15 17 18 19 12 12 12 14 13 18 35 55 77 92 81 77 78 76 88 90
80 79 84 89 90 92 89 84 72 56 71 80 88 88 83 77 23 25 23 21 17 15 19 21 16 13 18 19 22 16 16 15 14 14 20 35 50 60 82 78 80 69 82 88 90
75 79 79 81 85 88 87 86 78 67 58 71 90 99 87 66 11 32 30 29 20 18 19 15 14 16 20 24 20 20 21 17 16 14 29 27 38 65 64 73 74 74 76 83 87
71 70 76 76 78 81 82 83 78 68 56 75 87 98 85 24 17 30 23 22 24 17 16 14 14 18 19 20 21 22 20 24 17 30 33 28 45 48 56 59 71 72 64 76 81
70 73 70 80 73 76 76 79 48 26 57 74 96 89 81 31 32 18 20 23 23 19 15 14 15 20 23 26 31 26 30 23 19 20 40 38 50 46 60 64 61 62 56 61 74
67 66 69 72 78 73 75 72 8 40 66 93 85 76 57 29 22 21 18 17 23 20 19 21 22 28 28 30 40 32 24 23 25 25 37 56 60 48 49 75 62 58 62 65 67
76 69 66 67 76 70 74 67 61 89 81 71 58 43 27 24 21 19 20 17 23 22 29 25 32 36 29 25 22 20 20 21 23 23 33 49 64 46 41 66 58 51 53 64 59
78 75 70 63 74 74 78 82 61 54 74 47 51 47 41 36 34 22 14 23 31 32 25 29 34 26 21 20 21 21 22 19 17 21 24 49 58 47 52 60 47 43 50 58 57
81 79 74 67 78 78 71 71 34 42 72 45 36 28 23 18 28 27 16 18 32 33 27 32 28 21 22 23 23 21 21 18 20 21 19 24 71 70 57 53 47 38 36 48 60
80 83 79 73 83 71 70 63 71 63 94 42 20 20 17 16 24 17 19 20 30 32 28 30 23 23 23 25 20 23 15 17 19 23 34 20 39 70 58 49 47 39 39 44 60
82 82 80 67 79 85 68 63 67 61 55 19 14 10 13 20 21 22 17 21 30 32 29 31 27 27 26 22 18 21 19 21 22 29 26 26 34 30 46 51 43 43 41 43 48
81 83 81 81 71 65 60 55 72 92 90 22 23 26 25 19 20 18 20 20 18 28 26 26 20 20 21 19 18 16 21 21 24 30 48 31 33 40 47 42 37 39 39 39 39
82 83 86 73 75 68 76 77 94 88 12 10 27 25 28 30 24 24 27 28 31 34 36 27 24 19 17 23 19 20 24 42 45 52 56 42 42 38 26 27 24 33 33 36 35
82 79 90 84 62 66 79 96 99 35 30 13 14 26 35 29 31 30 29 33 25 27 35 37 39 22 18 21 24 23 26 55 48 68 52 46 45 36 28 30 22 27 28 30 36
82 89 99 79 68 73 98 97 63 44 21 18 15 21 22 32 31 31 32 33 28 23 33 37 32 18 16 16 17 22 30 24 38 55 64 67 46 36 26 24 24 24 31 34 36
99 99 92 69 74 78 96 80 63 42 27 25 26 21 22 24 34 38 36 26 28 20 21 28 37 23 19 16 18 20 20 34 44 68 68 60 56 44 28 23 18 18 28 30 32
100 99 83 67 85 96 96 81 55 40 36 42 33 26 23 28 25 24 37 26 22 22 20 23 30 33 24 23 22 25 26 30 38 53 65 63 50 34 33 25 19 15 19 22 26
95 99 83 77 98 95 89 71 54 38 38 41 36 34 36 31 30 28 52 42 39 31 27 23 33 38 30 24 18 21 24 28 65 53 54 68 47 26 25 26 18 17 17 22 29
97 97 82 75 96 95 72 71 62 61 46 40 40 33 32 34 37 58 55 47 54 59 46 26 31 40 35 24 22 23 23 24 31 50 53 66 56 31 26 26 17 16 16 21 23
98 99 99 93 66 72 75 73 75 53 60 46 40 36 36 40 32 54 59 50 60 61 70 55 28 33 41 32 30 32 30 25 28 59 53 62 44 34 31 27 24 24 23 23 21
99 98 86 95 94 77 64 59 68 72 50 46 46 44 42 45 38 46 51 62 52 64 67 62 47 29 24 26 27 28 29 30 28 32 44 46 44 36 32 25 22 27 20 20 22
99 99 88 68 77 82 71 69 62 54 50 50 45 39 39 44 37 40 54 74 76 76 76 64 60 42 42 25 25 29 30 29 25 26 33 33 35 28 24 25 42 26 26 23 22
95 91 71 75 81 94 81 71 64 56 48 41 40 42 44 41 40 62 64 70 81 73 85 88 78 50 48 37 34 48 35 27 27 24 23 41 34 23 24 26 26 26 24 24 24

GFSSW_925_rhum_042.txt.gz
RH
84 88 89 86 78 71 66 70 72 70 71 79 78 76 60 51 33 41 52 19 25 22 25 17 23 16 20 21 18 17 26 29 22 19 18 27 38 62 61 62 70 79 85 96 99
86 93 97 96 88 84 76 63 51 53 72 79 76 75 64 56 61 57 20 25 28 28 19 15 23 23 25 21 19 22 28 22 18 16 17 35 45 63 58 64 84 87 94 100 96
85 90 92 93 93 91 89 84 70 54 59 80 79 78 64 54 74 36 25 23 25 24 17 17 23 25 22 17 18 18 23 16 15 16 19 56 57 50 52 56 69 85 94 94 97
82 80 83 91 95 96 93 90 83 72 55 63 77 80 68 64 22 29 22 24 24 20 15 22 23 15 16 17 16 17 17 16 14 16 20 40 58 76 65 64 67 85 88 91 93
80 82 80 80 88 92 93 88 84 82 69 53 69 90 81 76 58 16 21 24 22 16 21 24 25 17 17 16 21 21 17 15 15 20 47 49 66 86 90 86 85 84 87 89 88
73 71 77 79 79 81 83 82 79 77 75 61 64 98 98 87 15 22 28 25 20 17 19 25 27 17 17 22 23 22 24 21 16 16 54 75 85 68 86 84 90 83 94 92 90
75 74 71 71 77 77 75 77 76 74 65 56 62 98 82 77 11 38 40 32 29 20 19 17 20 20 19 22 22 22 22 21 18 17 35 43 49 69 83 84 86 91 94 96 89
71 69 68 70 70 76 75 73 72 62 54 44 70 99 86 26 18 25 15 22 17 27 19 16 17 19 19 20 25 24 24 25 18 30 32 30 44 59 82 80 86 91 88 94 96
74 73 67 65 68 70 71 72 58 39 50 52 95 97 90 37 44 26 25 30 23 23 24 19 17 20 20 27 33 30 34 29 26 23 37 36 45 50 71 73 81 80 87 93 96
77 76 77 69 64 62 74 69 25 43 56 95 91 84 64 27 27 25 24 19 25 27 27 22 26 27 32 34 41 35 32 27 29 35 38 51 47 59 66 68 69 80 69 88 90
82 77 75 74 68 61 79 69 56 76 80 82 72 62 34 26 32 25 22 23 21 27 34 25 34 41 33 32 27 28 30 30 23 27 39 50 48 57 71 77 74 74 70 70 86
83 82 81 72 68 64 86 88 70 64 73 47 56 58 51 43 48 35 25 25 30 41 31 30 38 30 28 28 29 29 30 29 22 23 29 52 53 52 67 72 78 63 69 70 78
80 81 82 76 70 63 84 75 56 72 88 51 42 45 46 42 54 41 27 24 34 42 36 35 31 25 29 29 30 29 31 29 22 21 26 51 54 54 47 61 56 59 53 63 79
78 78 82 78 66 84 83 72 64 74 88 44 35 31 29 24 33 19 20 21 30 39 39 33 25 27 30 30 26 34 26 23 21 28 33 28 44 70 53 55 53 55 51 66 73
81 79 82 80 63 78 72 60 65 74 23 13 23 18 26 21 20 24 17 24 28 38 36 41 34 32 32 28 26 31 27 24 23 28 29 30 36 33 52 55 52 56 48 56 64
83 84 83 86 89 66 63 75 78 87 72 33 20 24 26 22 21 22 24 23 23 35 34 34 25 27 28 25 25 22 20 24 29 36 47 34 38 44 63 45 41 46 42 55 62
83 84 85 82 76 62 62 88 98 95 21 13 25 29 28 26 24 24 29 32 36 43 42 37 35 28 25 28 24 24 30 44 47 55 58 39 46 44 30 37 40 43 43 41 59
85 81 85 86 68 70 70 98 99 45 29 20 22 18 31 30 27 26 33 38 31 31 39 38 50 30 24 27 28 29 32 54 54 70 47 49 48 38 27 29 31 32 37 39 44
87 94 97 81 75 80 95 98 72 50 35 25 16 18 21 21 34 32 38 35 33 30 41 46 40 25 22 21 23 28 34 30 40 57 66 55 46 34 30 28 29 31 34 37 41
100 99 95 79 78 84 99 88 66 44 36 42 41 22 25 27 36 46 43 34 33 30 26 34 44 28 22 21 22 23 23 35 51 55 65 58 52 44 33 25 24 25 38 37 40
100 99 86 83 83 96 96 85 58 43 43 47 47 49 32 34 32 32 37 39 38 33 26 29 34 35 29 32 29 27 30 34 40 60 64 66 57 45 35 29 24 23 22 30 37
96 100 86 88 98 88 88 70 55 54 46 48 48 46 40 39 40 33 38 36 55 49 56 46 37 42 33 23 24 24 25 32 49 53 63 71 46 32 30 35 25 22 17 25 27
98 97 96 79 94 92 70 67 62 61 53 51 50 46 36 39 46 41 45 58 58 60 73 67 70 54 42 31 28 30 26 25 40 59 62 71 52 30 32 29 26 17 18 23 34
99 99 99 94 74 72 74 68 68 56 62 60 60 54 48 48 43 50 50 50 54 66 78 73 74 66 60 38 32 33 27 26 30 61 50 56 40 36 32 34 28 23 24 24 28
99 97 91 97 94 83 69 65 69 69 60 57 66 59 58 62 49 49 44 63 54 75 71 79 94 82 69 50 30 28 30 33 33 37 47 40 47 34 33 34 32 30 25 23 25
100 98 94 81 80 88 77 75 68 64 57 62 70 48 52 61 52 58 48 47 66 73 71 80 94 88 78 52 38 31 26 30 29 34 37 33 37 34 29 31 31 29 26 24 24
91 92 84 80 92 96 86 74 66 60 56 50 51 56 53 46 43 52 61 68 67 74 88 85 94 98 89 64 48 50 32 26 34 31 31 43 38 30 31 31 34 29 26 25 26

GFSSW_925_rhum_045.txt.gz
RH
83 91 91 92 89 90 91 87 79 75 54 56 77 75 66 62 35 25 50 15 30 25 22 21 22 20 21 22 20 22 31 34 26 21 20 33 45 64 60 68 76 85 92 96 99
84 86 88 89 88 91 92 91 90 87 74 54 59 71 67 61 58 64 10 20 31 24 24 18 25 23 27 22 23 26 32 25 20 17 19 32 46 64 67 66 85 89 88 97 98
82 83 88 82 79 88 96 92 89 84 80 70 56 66 62 57 70 25 26 22 30 32 20 15 24 23 25 21 20 22 27 22 18 17 24 51 59 54 54 58 68 83 97 94 96
68 71 78 82 84 81 80 85 84 81 76 69 64 62 61 71 13 33 26 24 25 26 20 22 27 23 19 20 18 19 19 18 19 16 46 57 60 70 66 55 61 76 91 96 96
71 72 70 71 74 80 81 78 76 73 74 70 63 74 82 80 62 14 22 25 27 22 19 24 25 18 17 17 20 22 21 22 20 21 42 56 65 70 86 81 84 91 93 93 95
70 67 68 68 70 72 71 75 79 74 72 67 65 80 86 88 18 21 31 37 25 21 22 25 22 20 19 20 24 22 25 26 22 42 57 65 78 77 86 89 91 94 97 91 92
74 78 69 66 64 66 69 68 69 73 72 65 68 98 88 72 13 39 37 37 28 21 19 19 20 21 21 22 21 22 24 24 20 28 50 60 66 89 84 93 94 96 88 86 82
72 64 67 74 75 64 60 65 64 59 68 59 77 95 85 22 28 24 15 17 27 28 25 19 19 21 23 20 24 24 26 29 21 31 37 32 47 54 91 95 96 98 99 93 86
76 76 71 73 72 66 64 60 52 58 71 72 96 93 86 36 50 28 40 32 17 21 29 23 20 26 22 30 32 32 31 30 28 21 36 40 44 51 94 90 94 96 97 97 95
79 80 81 76 72 65 64 54 47 74 74 87 96 83 57 35 29 32 32 35 26 29 32 30 29 31 35 34 40 33 35 30 29 26 40 46 45 58 93 89 87 91 93 96 98
82 84 82 80 77 70 64 68 60 72 65 81 72 68 48 40 39 33 32 32 25 32 42 29 36 42 36 32 28 28 30 33 30 24 33 46 48 52 78 85 85 89 86 93 95
80 79 80 78 76 73 66 91 72 75 92 62 54 52 58 53 58 37 30 28 33 42 37 34 38 33 31 31 32 33 35 36 30 25 32 40 51 53 75 81 78 74 81 75 90
80 78 78 78 80 72 86 83 76 76 96 73 52 46 33 48 57 48 38 28 31 43 41 44 33 30 32 34 36 36 38 35 32 26 36 46 44 59 52 66 76 73 65 65 77
82 82 78 81 81 78 84 79 64 85 98 41 51 39 36 43 57 31 28 26 32 35 44 40 30 30 35 33 34 40 31 30 34 30 39 34 49 34 57 62 65 66 70 66 71
86 84 82 84 79 82 61 55 69 84 22 13 30 24 33 32 21 34 22 26 32 42 42 48 37 36 35 32 31 36 30 34 35 34 34 32 39 32 59 62 60 59 63 62 68
83 87 85 93 100 78 71 66 83 94 55 28 23 36 39 31 24 25 27 24 26 31 37 38 28 30 32 28 29 27 30 30 34 41 52 35 38 42 53 46 43 46 50 55 64
79 88 88 96 82 69 62 81 97 95 32 18 25 28 30 32 26 27 32 34 37 46 44 36 38 32 27 32 28 31 33 49 48 57 56 36 53 46 31 39 42 43 46 51 61
80 88 89 96 84 83 72 96 96 55 50 26 22 18 33 27 25 27 35 34 34 33 42 40 47 35 33 35 36 37 37 58 53 67 44 49 56 40 33 29 31 39 36 47 56
82 94 100 94 91 87 92 98 69 61 41 47 32 17 24 26 34 29 35 40 31 34 39 48 43 26 27 27 31 37 41 33 42 61 66 54 46 35 34 31 33 37 46 50 54
98 99 94 86 86 88 98 79 65 51 47 44 52 42 40 36 37 43 44 38 35 33 29 36 45 33 27 25 27 28 28 38 54 54 69 56 57 45 28 25 26 33 36 46 45
100 99 86 78 91 98 93 71 60 48 50 59 52 45 42 41 42 39 34 51 49 46 38 33 37 37 30 34 33 32 36 36 38 57 46 48 51 48 32 32 29 29 32 45 48
96 100 98 89 99 98 85 61 51 52 49 50 54 55 52 44 41 34 37 31 57 52 69 63 51 54 38 26 25 27 32 37 44 48 69 68 38 29 36 36 37 35 29 27 43
100 98 100 86 97 95 70 67 60 64 59 56 58 55 38 42 45 43 40 56 56 68 61 54 78 79 51 35 31 34 30 30 45 54 44 59 40 32 29 32 30 28 26 22 32
99 99 99 98 83 71 84 74 72 59 63 62 66 61 52 54 47 49 49 44 63 64 76 72 79 85 94 90 75 66 48 31 35 55 49 46 37 33 34 35 32 28 28 24 24
99 98 94 97 97 82 68 64 70 68 60 59 61 66 68 76 58 56 46 54 57 74 67 70 76 91 86 63 55 58 57 48 38 34 42 38 45 34 34 34 33 33 28 27 26
100 99 97 91 87 96 84 77 67 59 56 66 77 65 62 65 58 56 50 46 58 62 63 77 73 86 86 54 55 58 52 50 42 34 42 36 41 34 32 33 32 34 32 28 27
95 92 93 97 98 97 86 77 75 60 60 52 61 64 67 59 56 50 51 48 55 64 84 88 92 91 84 75 62 56 62 48 38 30 36 42 35 28 35 37 35 31 34 31 28

GFSSW_925_rhum_048.txt.gz
RH
93 97 93 88 81 80 80 89 88 86 92 85 63 50 58 59 56 49 57 12 22 24 22 22 21 23 22 24 22 25 34 36 27 24 20 40 45 60 60 68 79 87 90 87 77
97 96 88 85 84 82 82 81 81 76 76 73 66 58 47 75 96 91 7 13 28 27 23 21 27 23 27 24 24 28 35 29 24 20 20 27 41 52 66 65 80 94 89 92 94
88 86 94 90 78 77 80 82 79 77 77 73 67 67 50 74 84 22 32 22 29 26 22 17 24 24 25 23 24 26 29 24 21 20 20 27 56 61 63 58 60 81 94 96 96
70 73 78 87 90 74 69 70 72 76 74 76 72 74 62 80 13 36 33 29 34 33 21 22 27 26 22 25 21 21 22 19 19 18 28 53 62 63 57 54 60 72 93 90 94
74 73 72 80 74 64 58 62 65 69 70 75 73 82 87 86 59 16 22 25 28 29 22 27 27 20 19 20 20 20 21 23 23 26 29 58 62 65 79 76 83 94 96 97 89
70 66 67 69 69 62 57 59 60 58 67 61 73 86 95 80 19 22 36 43 31 26 24 25 25 23 19 20 24 24 25 26 24 21 55 60 73 78 75 89 92 98 84 95 94
82 77 75 63 64 66 63 60 59 50 54 59 72 97 84 63 10 36 34 37 34 24 20 22 20 23 22 24 23 23 26 25 21 20 47 62 56 85 80 93 94 99 83 81 88
80 82 81 78 72 71 70 57 44 39 46 65 83 99 86 22 26 23 18 20 30 29 27 23 22 22 24 22 25 25 27 30 22 37 38 43 45 43 95 96 96 96 84 80 83
80 81 80 81 80 72 72 72 48 59 68 95 95 92 76 34 54 27 42 32 17 23 28 24 23 26 24 31 35 34 33 30 26 23 38 40 47 56 95 95 96 98 94 86 81
82 82 79 79 82 81 81 55 57 69 85 93 88 75 46 20 33 35 37 42 26 37 35 33 35 35 38 36 44 38 39 35 32 24 39 48 51 51 97 98 94 94 97 97 90
83 83 79 80 82 82 78 63 69 71 69 78 73 65 44 50 43 39 37 37 29 37 47 40 43 44 39 34 28 29 31 33 30 26 25 30 37 30 90 99 97 94 94 96 98
80 82 77 77 82 86 67 88 73 78 95 65 66 63 55 55 60 30 33 30 36 42 40 38 43 36 32 33 32 31 32 36 31 27 29 34 40 48 76 90 90 89 91 89 95
82 82 76 82 83 78 80 86 70 77 96 69 58 59 42 41 50 39 37 31 34 44 45 43 35 32 33 37 37 38 40 37 34 34 31 43 43 49 50 73 83 82 74 78 82
81 82 81 89 81 81 73 79 61 78 91 54 61 49 36 48 56 29 30 30 36 40 45 46 35 36 36 36 35 43 36 34 35 37 45 36 55 36 38 56 73 73 82 74 72
79 81 85 92 91 91 65 65 60 88 27 15 36 28 41 32 21 35 28 28 39 41 44 50 43 42 39 37 33 36 34 37 36 43 37 37 44 36 58 45 53 60 68 74 70
73 80 87 97 99 92 84 65 80 89 64 26 25 43 48 40 31 32 34 26 29 36 41 39 33 35 34 32 32 30 33 37 40 48 60 44 43 42 42 40 35 42 54 60 71
74 77 90 100 84 76 72 76 98 94 41 27 27 28 35 40 36 31 37 42 39 44 48 37 41 33 28 34 33 32 40 53 51 64 66 41 48 38 29 33 36 32 42 53 63
78 78 87 96 97 94 78 95 93 60 61 41 36 32 33 30 29 32 36 38 33 36 46 45 46 42 35 37 40 42 43 62 58 69 46 51 56 42 35 30 31 35 40 44 62
78 83 93 92 95 93 87 100 69 61 52 52 42 35 37 32 38 31 34 35 31 34 37 47 42 27 31 34 34 42 46 35 46 57 69 53 44 35 32 35 35 34 34 47 60
93 92 86 86 87 88 98 80 68 53 56 59 53 48 50 42 41 44 44 53 37 32 30 38 43 33 27 29 29 32 33 47 58 54 64 56 56 44 31 33 30 29 32 44 56
93 98 80 83 96 99 97 91 61 44 47 64 65 57 48 44 43 39 40 53 60 53 38 34 42 41 30 34 35 36 40 38 45 60 58 58 51 47 32 30 28 29 30 36 55
96 100 92 99 99 100 93 68 48 52 51 58 58 61 56 51 46 34 38 52 65 62 60 60 55 57 41 31 28 29 32 42 59 50 72 72 45 27 39 34 39 37 34 33 45
99 99 95 97 98 97 89 72 59 66 62 60 63 62 48 43 45 44 50 53 51 69 65 60 76 84 52 37 60 59 44 52 47 54 56 70 51 30 35 35 32 33 30 30 28
100 99 97 98 88 79 96 91 74 60 64 63 70 61 58 63 48 55 55 43 57 63 78 64 79 70 90 81 77 79 63 55 61 65 54 48 42 33 31 36 31 32 33 29 27
99 99 97 97 97 92 78 69 79 68 58 60 68 72 72 76 68 54 48 49 40 64 63 64 70 82 77 73 68 60 56 54 55 63 64 52 44 36 34 31 31 31 32 29 27
100 99 92 91 82 97 93 92 72 64 57 68 78 70 67 77 65 64 53 49 50 48 65 73 71 86 89 72 67 62 55 52 52 54 57 50 45 34 31 33 36 35 35 34 30
97 90 96 80 97 96 91 80 82 58 58 51 64 69 72 63 61 61 58 58 58 60 71 83 86 88 77 72 64 73 58 50 48 41 48 58 50 34 32 34 37 34 36 36 34

GFSSW_925_rhum_051.txt.gz
RH
93 95 96 95 87 82 82 84 80 74 73 74 65 57 54 44 30 44 61 9 20 21 28 28 22 25 23 23 21 22 25 25 24 23 17 26 34 49 53 54 67 72 78 75 83
92 93 95 95 89 85 84 76 70 71 66 68 69 62 43 53 75 76 22 16 25 30 24 23 22 21 20 22 22 21 26 23 19 18 17 16 32 32 54 59 63 80 73 83 84
75 80 88 92 88 76 68 62 62 66 65 65 60 67 42 47 68 21 41 35 29 31 23 19 21 21 24 23 23 23 23 22 18 16 16 18 31 45 51 47 52 67 73 78 87
70 70 74 87 93 79 64 65 63 59 61 61 58 73 42 71 9 30 32 34 35 27 20 27 26 27 26 24 21 23 21 19 16 18 21 23 45 52 51 47 52 57 70 79 78
74 73 71 72 84 70 64 67 69 65 58 52 65 82 51 69 37 14 9 18 39 36 24 24 28 24 22 20 20 22 18 19 19 22 24 45 47 48 57 62 68 80 85 85 79
80 82 81 78 74 74 71 70 67 64 54 56 73 86 84 71 13 16 20 30 34 34 26 24 22 20 18 18 19 20 20 22 22 19 39 43 54 68 58 72 77 83 81 84 79
79 78 79 82 79 78 78 73 73 62 48 70 82 99 78 47 7 23 22 34 40 32 24 24 23 22 23 25 22 23 26 22 21 19 34 52 50 62 62 73 77 88 76 78 84
84 80 79 79 79 79 79 77 63 50 65 74 94 99 73 20 14 34 13 29 17 29 31 22 22 22 24 23 24 24 27 27 20 31 45 40 26 30 66 73 73 81 77 71 76
80 78 78 80 81 82 81 66 55 68 70 91 97 82 54 35 58 22 36 38 24 26 28 29 25 26 26 28 29 31 26 28 22 24 43 38 34 37 78 75 70 80 75 74 74
70 70 77 79 82 82 75 59 58 78 85 93 87 67 50 21 34 37 44 43 28 32 32 32 34 32 33 30 29 30 31 30 25 26 37 39 36 35 72 75 68 70 80 80 79
69 74 78 84 84 74 67 67 69 66 70 73 65 62 47 55 47 44 42 44 32 34 45 40 38 37 30 29 26 26 28 28 26 22 24 26 26 23 39 79 77 72 74 78 82
75 76 81 87 84 71 67 80 76 78 95 65 67 61 54 56 61 39 35 34 38 35 42 41 47 33 30 30 28 28 28 28 25 26 26 24 26 27 46 65 70 70 71 69 74
80 78 83 90 86 72 78 87 73 75 96 64 56 60 54 45 52 41 35 32 35 41 43 42 37 32 30 33 33 32 32 33 28 29 27 34 31 24 33 51 60 69 62 64 66
82 76 83 92 82 85 74 76 70 72 94 57 64 56 41 42 48 30 27 30 36 37 43 39 33 33 33 33 32 38 32 30 31 30 26 31 38 30 25 30 43 46 67 64 65
88 73 78 91 98 85 79 73 64 89 44 19 42 32 38 40 25 35 28 28 39 38 40 41 44 37 37 30 30 30 33 32 30 33 38 36 38 32 31 29 27 28 45 58 60
76 73 77 88 90 86 76 70 82 89 66 34 32 45 47 41 36 35 36 29 28 39 42 32 35 33 29 32 29 30 29 37 41 42 51 38 35 30 24 23 24 23 30 43 59
77 76 81 88 88 80 79 74 84 86 42 40 41 32 31 38 42 37 42 39 35 43 52 44 38 33 30 35 33 30 36 42 48 53 48 39 39 29 25 23 25 22 20 33 54
75 80 75 81 92 97 74 87 90 53 62 44 42 41 32 32 33 34 41 40 34 37 36 40 48 38 35 35 38 38 35 44 48 54 39 43 42 27 27 22 25 24 27 32 43
79 80 83 75 77 94 86 95 70 58 54 61 50 42 39 32 37 36 37 37 29 36 41 47 38 32 36 35 29 41 42 33 45 53 51 42 35 26 24 26 27 26 27 25 30
99 94 86 75 80 89 99 84 67 53 54 57 60 47 49 42 35 36 47 55 54 38 32 40 42 32 30 30 33 31 32 43 50 48 50 44 44 31 28 24 23 26 25 23 27
98 95 73 78 98 99 98 82 65 46 43 59 66 63 57 54 45 35 37 43 55 61 37 35 40 40 30 34 34 37 37 39 40 48 45 49 41 38 29 28 25 23 26 27 27
86 91 74 99 96 100 98 92 53 49 50 50 59 58 60 50 47 41 41 58 46 65 63 62 50 50 35 30 30 30 36 38 49 45 59 59 41 29 33 33 30 27 29 28 28
95 82 70 99 94 91 99 94 61 61 59 60 67 64 56 52 50 42 48 46 42 61 70 63 67 68 53 42 53 61 59 55 58 55 53 57 40 26 28 28 28 31 26 26 28
97 100 95 97 84 86 96 86 79 60 57 62 67 62 60 62 54 54 50 43 47 52 78 61 64 66 63 62 65 66 52 47 51 67 58 53 46 31 31 32 27 25 26 26 28
96 95 83 98 91 96 90 96 79 69 57 56 70 67 69 72 65 57 49 47 42 49 62 61 60 62 49 52 62 57 50 45 51 48 55 42 46 39 34 32 29 26 26 27 26
100 100 98 87 86 98 96 99 80 69 60 66 69 66 65 70 60 56 56 48 50 48 71 60 68 78 76 66 59 62 52 47 46 44 43 48 50 36 32 30 33 31 28 28 27
86 98 97 85 79 93 80 84 87 64 60 50 63 75 79 65 60 58 57 55 54 60 60 64 82 79 68 71 60 61 58 48 39 33 36 38 27 38 39 36 37 33 30 30 30

GFSSW_925_rhum_054.txt.gz
RH
82 89 92 91 82 78 73 66 60 56 64 71 62 61 58 41 13 37 32 20 25 19 31 40 30 19 18 15 15 14 14 12 10 16 13 14 17 17 28 25 41 41 39 47 60
86 92 94 91 82 77 70 64 59 57 61 62 59 66 60 39 59 24 26 41 17 28 32 27 20 16 15 14 15 14 14 12 10 12 13 13 14 13 23 23 33 40 48 59 59
75 85 88 91 91 80 67 61 64 66 60 55 56 55 59 54 32 12 31 36 31 35 23 19 13 12 12 13 14 13 14 10 12 12 13 14 15 15 20 22 24 32 41 53 55
74 75 77 85 88 75 72 72 67 65 62 58 58 69 59 69 10 24 14 31 35 48 24 18 14 12 12 15 12 15 12 10 11 12 15 16 15 20 23 22 33 35 39 47 51
73 76 80 87 91 74 72 73 72 67 62 63 65 90 74 32 16 14 10 18 46 40 21 19 16 12 12 12 15 17 12 12 12 13 15 15 19 20 22 28 38 44 50 52 54
73 78 77 76 80 74 72 72 67 62 60 65 93 94 71 44 14 17 14 29 30 34 28 20 15 12 14 14 15 13 13 12 13 14 15 21 15 37 20 34 42 50 54 59 63
83 74 76 76 76 74 73 68 62 60 61 72 97 86 68 40 16 19 22 25 30 27 20 23 20 17 13 16 13 12 17 15 15 14 14 19 18 31 20 40 43 48 51 55 58
80 75 73 76 77 75 69 64 57 61 63 82 97 85 51 33 23 20 29 24 24 30 29 19 20 18 19 14 17 17 17 18 12 12 15 25 20 13 26 40 39 44 47 53 52
82 74 79 78 78 74 65 56 56 70 77 86 89 73 37 35 37 32 32 27 19 20 28 25 20 19 17 21 19 19 19 19 14 14 16 28 20 17 30 38 32 40 42 44 45
79 78 88 86 82 74 62 54 59 82 80 81 71 67 34 16 27 41 47 42 24 17 30 28 24 21 18 18 25 19 20 15 16 13 18 20 22 16 22 32 37 34 40 41 46
79 89 90 84 81 72 67 55 40 49 51 44 37 41 34 39 40 35 49 45 27 22 30 30 30 27 17 17 16 15 17 15 11 13 17 17 16 14 16 25 33 34 38 42 41
83 89 90 82 79 67 69 58 68 70 91 51 46 46 39 36 46 31 36 36 35 26 22 37 37 21 19 18 18 17 18 16 13 16 17 13 15 13 16 22 27 31 35 39 40
84 88 80 82 76 73 72 74 77 72 73 51 42 47 44 40 36 28 35 31 33 32 19 31 22 22 25 24 24 20 20 19 18 18 17 18 18 15 14 22 27 30 30 33 39
85 87 78 77 76 76 60 71 73 76 91 33 32 37 41 35 38 26 20 26 28 28 28 25 17 27 28 25 21 24 18 20 20 22 17 17 23 14 15 14 20 23 34 34 36
81 82 81 78 83 65 70 76 71 83 39 18 29 30 32 33 27 33 22 18 24 28 29 31 26 25 27 24 18 22 18 23 21 23 20 19 23 15 13 17 13 12 19 30 33
77 81 82 78 84 78 74 81 72 71 37 27 26 27 38 30 31 30 33 19 16 28 28 24 22 22 21 20 20 19 23 24 25 23 33 20 20 16 13 16 13 11 13 20 30
79 79 85 82 69 85 78 58 66 39 26 37 39 32 31 28 33 36 41 37 25 31 34 29 26 28 26 21 23 22 26 32 34 34 33 19 24 19 16 14 13 13 11 20 26
74 80 83 74 79 92 84 63 63 33 39 36 40 31 28 27 29 30 39 39 24 22 20 26 36 30 28 26 28 28 25 28 35 36 26 28 32 21 15 15 15 12 14 17 26
76 76 80 71 80 94 83 78 34 35 38 49 34 32 29 27 27 30 34 35 25 28 27 26 25 24 27 27 23 28 35 23 28 37 37 27 24 19 15 15 15 15 15 15 19
92 84 65 71 89 89 92 62 44 40 46 45 48 42 42 37 29 27 39 42 49 24 26 28 33 25 27 26 26 28 22 38 34 41 41 26 27 24 19 16 14 13 15 13 13
91 76 54 81 95 90 90 55 45 33 38 47 53 50 45 43 35 27 38 36 39 50 36 27 34 36 29 33 31 33 33 29 26 29 36 34 27 19 20 23 25 18 14 15 17
75 84 80 96 99 84 87 53 47 41 37 39 42 47 48 44 43 37 32 37 36 39 44 28 36 39 29 28 24 24 27 28 35 37 35 42 29 19 23 21 20 20 18 17 17
72 67 74 91 94 89 71 71 54 45 41 42 45 48 42 47 49 35 31 31 34 40 58 49 36 35 32 30 30 34 35 33 36 38 39 51 33 19 19 20 19 19 18 17 16
79 88 78 84 78 75 63 69 61 50 45 43 42 48 52 51 41 41 36 30 32 35 65 53 45 39 30 30 33 50 42 37 39 47 38 36 31 27 23 21 19 19 19 17 17
91 87 54 90 76 70 68 77 58 57 48 43 47 47 51 66 49 47 37 35 30 37 44 50 60 42 38 37 35 37 38 35 38 38 44 33 31 25 21 18 20 22 22 20 18
99 80 75 57 55 66 64 76 61 58 56 52 51 48 50 64 56 47 44 42 42 36 45 46 42 42 40 32 41 44 34 31 30 29 30 29 30 20 17 16 18 18 20 22 21
83 76 94 56 55 59 60 63 52 57 54 44 47 51 70 56 48 45 45 48 47 48 52 50 57 47 38 46 39 39 36 31 28 24 23 25 19 16 19 21 23 22 26 32 30

GFSSW_925_rhum_057.txt.gz
RH
91 95 96 96 90 81 78 67 63 61 59 58 48 42 45 44 30 33 17 15 22 27 28 30 32 22 15 12 10 10 14 13 9 8 9 10 12 9 12 14 18 22 25 28 45
84 89 92 93 80 82 83 72 67 66 68 57 53 46 42 36 58 24 19 18 22 23 33 23 24 17 14 12 11 13 12 10 7 7 9 9 11 10 10 13 16 18 22 37 45
71 75 89 96 92 88 86 71 73 70 65 64 60 59 40 43 30 13 22 24 31 31 32 18 18 16 15 11 11 12 13 9 8 8 8 10 10 9 11 13 14 18 20 32 40
74 68 80 92 92 90 78 70 69 66 64 66 65 60 39 59 15 19 10 15 36 35 34 18 17 16 16 13 10 13 10 9 7 8 10 11 10 12 12 13 18 21 24 31 34
68 72 83 87 90 79 71 67 62 60 61 66 77 91 55 30 26 14 11 20 42 40 26 18 17 16 16 11 9 11 10 8 8 8 10 11 12 12 12 11 20 23 32 31 32
69 84 75 71 75 75 69 62 60 59 61 68 76 96 54 41 19 15 24 12 15 30 24 17 17 13 12 10 10 9 11 10 9 9 9 12 13 12 13 13 21 27 33 33 34
84 84 78 75 76 73 65 62 58 57 60 62 94 84 46 29 16 20 27 22 13 11 16 23 18 13 12 13 11 11 13 12 10 10 10 11 13 13 10 13 21 27 31 34 37
79 82 80 82 83 72 65 59 60 58 62 67 85 70 40 19 21 25 28 26 25 15 16 20 17 20 16 13 13 15 14 16 11 10 10 11 17 11 11 18 20 24 28 34 35
77 83 80 83 82 69 64 53 60 66 72 74 78 56 32 23 22 19 29 27 25 14 15 18 16 21 19 20 21 18 19 16 15 10 10 13 17 11 15 19 18 20 26 30 34
74 86 87 85 77 69 60 54 58 74 71 60 49 59 35 14 20 30 33 25 36 18 15 15 20 24 21 20 26 20 19 17 15 12 12 11 15 13 13 16 19 19 22 27 31
75 89 87 85 73 67 74 44 34 46 33 31 26 35 23 25 24 25 40 38 32 27 19 16 22 24 23 20 17 16 16 15 13 10 12 13 12 12 11 11 14 21 21 25 28
71 75 85 79 69 64 68 44 52 59 70 37 34 35 31 28 35 24 32 35 46 50 22 24 25 16 14 15 15 16 17 17 13 11 14 12 10 10 10 11 12 17 20 23 27
70 73 76 74 67 76 53 52 54 60 57 34 27 30 31 30 33 26 25 26 51 58 50 28 18 19 18 18 17 18 19 18 17 12 14 13 12 11 10 10 11 14 15 17 24
69 74 72 70 72 57 49 50 56 62 68 20 22 28 31 29 36 23 16 27 33 46 44 40 16 21 22 21 20 24 16 16 16 17 21 12 18 12 11 11 13 14 14 16 20
68 74 68 73 68 63 52 58 59 68 46 13 25 25 26 30 24 23 16 17 33 32 30 33 23 20 24 21 19 22 16 16 18 20 20 18 18 15 11 12 11 11 12 15 18
73 72 75 57 79 61 56 67 59 88 38 18 19 22 22 22 28 22 29 21 18 25 22 25 20 23 27 19 16 15 18 18 20 21 31 22 18 16 13 11 12 10 9 11 18
68 73 71 66 60 66 66 57 57 43 17 24 26 23 22 24 25 29 36 34 32 39 32 20 27 21 21 24 17 18 22 31 33 34 35 19 20 17 12 12 12 11 10 11 14
68 71 68 58 55 68 68 54 54 20 22 22 25 21 22 23 26 26 37 40 30 29 33 27 38 24 22 24 22 21 23 30 39 40 28 18 24 16 12 12 12 11 10 11 15
70 60 55 54 59 59 70 70 28 21 20 26 20 18 20 24 25 24 28 39 28 25 32 25 18 15 20 21 22 24 28 18 27 29 36 21 20 15 14 13 12 11 11 12 14
58 75 55 48 58 62 86 57 28 24 29 25 24 24 29 30 28 25 33 38 41 29 19 23 27 14 18 22 22 23 18 27 28 44 46 27 27 27 16 15 14 13 12 12 11
61 83 41 53 61 88 87 50 30 21 28 31 28 34 30 35 32 30 35 37 38 37 28 22 30 26 23 29 28 27 30 29 24 28 38 40 27 16 21 22 21 18 14 16 16
60 92 48 64 94 76 77 42 35 28 26 29 30 35 38 35 37 34 31 29 35 40 54 31 34 35 39 21 21 22 27 32 36 43 30 38 33 19 20 19 19 17 16 15 14
66 64 47 74 85 74 50 44 37 33 30 30 31 29 28 35 41 32 29 26 28 38 54 51 37 42 36 30 26 27 25 25 28 30 50 55 36 17 17 18 17 18 16 15 15
80 92 53 79 66 61 52 55 49 36 33 27 28 27 36 38 33 38 32 26 27 31 53 54 51 34 36 33 23 32 30 28 30 42 39 40 32 22 21 20 17 16 17 18 17
82 82 56 75 56 61 54 64 48 50 35 29 34 32 34 40 35 39 36 30 26 38 35 64 65 51 28 32 30 28 32 32 33 31 37 31 30 21 19 18 15 14 15 15 16
98 72 48 51 49 46 49 66 56 45 41 40 38 31 32 38 36 43 38 45 42 30 35 55 74 56 56 32 32 36 31 28 26 24 26 24 24 17 16 16 16 16 15 17 20
70 63 79 58 48 55 56 41 39 35 42 44 36 38 42 38 38 44 44 56 46 44 45 44 50 73 72 40 36 41 34 30 29 25 26 30 21 15 16 16 18 20 23 24 28

GFSSW_925_rhum_060.txt.gz
RH
82 91 94 95 94 90 90 83 72 65 63 68 68 62 56 40 24 38 21 13 16 24 24 22 28 24 20 14 11 10 16 17 14 12 9 9 11 9 8 12 11 16 19 30 41
88 90 90 94 86 84 81 79 73 66 65 67 68 65 58 40 67 36 18 21 18 20 21 15 23 22 21 17 14 13 17 15 11 8 8 8 10 10 9 12 14 13 16 32 40
86 94 91 93 90 86 80 73 64 63 68 69 70 68 68 47 44 19 13 9 6 23 39 13 17 20 23 16 14 13 16 12 10 8 7 8 8 8 10 11 11 22 17 36 37
70 65 90 94 93 88 74 68 64 64 64 68 80 86 68 73 30 21 11 11 25 39 33 19 19 20 21 19 13 14 11 12 10 8 8 9 8 10 10 11 10 16 18 21 32
62 66 80 95 90 68 68 66 65 62 66 69 80 95 77 26 28 21 20 14 28 39 24 22 23 18 21 17 14 13 11 10 9 8 8 8 10 11 11 9 10 18 23 25 28
75 74 78 74 68 64 64 63 61 63 65 65 80 96 71 49 21 18 16 17 10 24 25 21 18 15 16 15 14 11 10 9 8 9 8 8 9 10 11 9 11 18 24 27 31
79 73 79 76 64 62 62 61 58 59 61 69 97 91 58 36 18 19 16 23 19 10 10 11 16 21 16 17 12 11 12 10 10 11 10 9 11 12 10 9 10 17 22 27 32
76 74 73 76 68 59 61 53 50 52 63 69 84 77 56 24 19 16 16 16 19 23 16 12 13 21 23 18 17 15 15 17 12 11 10 10 16 11 9 10 12 16 22 27 29
74 71 67 71 72 60 55 49 49 52 61 76 86 64 44 20 20 17 15 22 22 27 19 14 12 21 22 29 29 20 22 19 15 10 10 11 15 10 9 14 16 15 18 26 31
91 83 70 68 73 58 48 50 45 68 63 64 55 50 42 21 19 21 25 22 26 30 25 25 16 22 26 29 36 26 22 20 18 12 12 12 13 11 12 14 18 16 15 22 29
84 86 70 71 70 55 63 71 34 46 40 38 27 38 27 20 19 20 31 27 34 46 41 31 22 23 30 26 25 21 19 18 15 12 12 14 13 10 9 11 15 17 18 19 27
78 70 67 67 57 55 62 46 40 48 71 40 34 30 25 25 27 22 28 37 46 76 61 54 30 14 16 21 23 23 23 21 16 12 12 12 13 10 9 10 11 12 18 20 22
65 68 68 65 49 67 57 49 42 57 65 39 21 21 22 24 28 23 18 34 38 48 75 67 31 18 17 16 21 22 23 21 19 15 12 14 17 14 9 8 9 11 12 17 20
68 64 70 61 60 58 46 42 48 58 74 36 27 25 28 24 30 19 16 24 29 50 64 74 52 34 38 23 20 25 16 16 17 19 23 14 24 14 11 10 10 11 14 15 16
70 63 71 64 70 49 55 45 52 66 70 14 22 21 22 26 24 19 16 21 33 44 70 80 50 53 38 30 22 25 19 20 19 21 23 20 22 16 11 12 11 12 14 15 16
67 62 68 61 65 61 63 59 64 97 74 17 17 21 19 19 25 20 25 17 16 24 47 46 35 43 29 18 20 19 20 22 22 24 36 24 23 21 15 12 10 10 11 14 16
68 67 69 68 58 55 58 60 93 70 15 17 21 18 17 16 20 25 33 34 28 36 36 35 35 24 27 32 23 24 27 36 42 42 44 23 24 23 15 11 11 11 10 11 18
77 72 70 61 57 54 66 81 72 24 19 16 18 18 17 18 22 25 32 36 28 25 32 55 60 29 24 29 29 29 30 37 56 56 36 21 26 20 13 10 11 11 11 13 17
73 68 58 54 59 56 74 97 37 26 16 18 20 15 12 17 22 23 27 32 28 27 39 49 40 22 25 27 24 34 47 23 34 34 47 38 20 14 12 13 11 11 11 12 15
77 63 48 48 52 57 87 70 39 22 17 24 24 12 21 19 25 22 40 45 39 25 25 28 46 25 19 22 24 31 27 42 34 53 62 36 26 23 19 16 13 13 14 14 15
83 66 38 46 55 80 93 60 37 27 19 27 28 20 23 24 26 28 28 47 39 38 38 26 34 35 25 24 30 31 35 40 40 32 52 54 45 32 27 24 22 20 19 20 19
88 91 45 54 86 71 90 56 40 27 20 21 27 29 30 29 30 30 30 28 30 36 54 49 34 42 43 28 21 24 29 32 54 58 39 50 41 26 27 22 23 22 18 18 17
89 54 39 66 94 75 50 46 37 33 27 26 28 25 24 27 33 28 28 24 26 30 49 48 45 53 40 36 33 32 31 28 34 52 92 73 56 24 19 20 20 21 22 20 20
97 82 49 77 56 60 62 50 46 28 29 28 25 23 24 28 27 32 29 25 25 26 56 41 66 58 50 56 66 65 33 39 40 82 81 81 51 44 36 26 19 20 20 17 17
100 80 50 83 63 54 52 72 52 40 32 26 31 27 26 35 29 30 26 25 24 45 39 61 93 61 48 44 40 40 45 35 43 62 74 48 41 44 44 41 19 16 16 17 18
96 71 42 43 54 66 51 56 49 53 38 38 33 26 26 30 30 32 32 49 35 36 36 63 82 75 65 46 34 34 38 63 59 28 29 40 56 32 27 16 18 19 18 22 26
98 66 86 71 65 52 70 48 36 33 38 50 41 40 30 41 52 48 41 58 56 55 49 56 70 90 74 51 42 47 34 42 46 24 23 30 24 24 18 17 18 23 24 34 35

GFSSW_925_rhum_063.txt.gz
RH
93 95 95 93 72 79 76 70 66 64 66 69 63 66 73 65 60 58 44 23 28 28 21 24 20 31 32 36 27 22 29 27 23 20 17 11 13 12 10 14 17 22 17 49 51
94 94 94 95 87 80 76 70 63 61 59 63 63 62 78 75 82 64 24 22 24 21 26 21 18 30 36 30 27 24 27 23 16 15 15 11 12 11 10 16 16 18 48 48 44
75 84 91 94 90 89 70 60 62 62 58 57 61 66 81 75 69 27 11 13 10 12 15 32 19 19 36 31 28 24 26 18 16 14 15 14 10 10 11 13 16 30 54 51 48
74 91 92 92 94 94 84 62 59 58 57 61 63 86 87 90 44 17 20 21 14 33 48 37 27 20 30 36 27 27 19 17 14 13 13 13 10 11 11 13 20 22 47 50 50
83 80 92 94 94 93 59 51 55 54 54 57 67 94 95 66 54 12 17 19 15 31 33 29 24 27 33 26 25 24 19 15 13 12 12 12 11 12 13 12 20 28 28 34 46
90 83 75 72 76 66 48 48 48 51 50 54 76 96 88 90 21 17 21 20 18 15 25 26 25 22 25 23 23 20 19 16 13 12 11 12 12 11 12 12 12 28 34 34 37
95 91 78 71 68 54 48 41 45 44 50 56 83 96 80 71 19 19 22 18 20 24 13 13 12 17 27 32 21 19 22 17 14 12 11 13 16 13 12 13 14 28 33 39 39
87 96 79 70 63 49 40 42 39 42 49 60 76 95 80 35 28 29 20 18 16 19 19 22 14 16 26 26 26 28 25 26 16 14 13 15 20 15 12 13 15 16 32 40 42
73 80 78 67 61 41 37 35 46 42 59 67 90 92 74 35 35 20 19 18 20 22 22 24 15 17 22 33 39 32 38 29 20 14 14 16 18 15 12 13 16 20 34 38 44
92 89 72 65 59 40 42 49 40 42 54 74 73 87 58 33 21 20 21 26 21 32 35 29 26 23 28 37 56 46 34 26 25 18 16 16 16 14 13 18 22 23 24 40 42
82 76 66 65 56 39 48 69 47 54 51 54 53 58 40 28 21 20 26 28 39 48 60 39 39 40 24 30 30 31 31 33 27 19 20 19 16 15 16 17 26 26 24 37 41
66 66 64 63 58 37 68 81 52 56 75 49 46 41 37 31 32 25 20 42 55 74 71 65 55 37 24 20 32 31 32 34 26 20 21 20 18 16 14 15 19 24 26 26 38
70 68 61 62 47 63 61 57 54 51 82 57 35 37 33 29 34 32 23 42 50 64 80 83 58 38 38 27 20 30 35 34 30 22 18 18 21 18 15 14 13 17 20 23 38
78 71 61 61 64 52 61 56 59 58 85 52 34 25 28 27 34 24 21 24 44 49 69 78 62 53 49 56 29 23 19 22 22 24 30 20 36 23 18 16 14 14 22 24 38
76 70 62 61 70 73 59 61 60 67 97 34 27 23 25 31 26 24 18 23 35 56 73 66 71 66 59 42 34 42 25 27 28 30 30 28 35 27 21 20 14 15 20 22 35
78 72 66 61 68 65 62 57 66 92 89 21 26 31 32 31 30 27 23 21 22 31 50 50 49 67 66 50 46 37 46 36 34 33 48 35 33 34 25 19 16 14 18 21 30
74 73 75 74 73 49 56 76 84 91 28 22 24 20 21 22 31 31 37 33 34 36 38 38 47 41 54 66 47 40 60 63 58 58 60 31 34 29 24 18 17 16 18 21 28
75 73 65 69 66 62 66 87 88 44 39 18 20 19 23 18 22 31 40 48 32 31 40 40 66 38 33 35 56 43 48 72 64 67 48 30 39 30 20 16 16 14 19 24 31
75 70 83 59 61 62 85 93 68 36 23 26 24 24 22 15 21 26 39 43 35 34 42 49 48 31 28 32 35 51 52 34 56 65 67 54 39 20 19 17 15 13 21 28 31
89 80 77 55 57 68 98 71 57 36 34 34 33 26 24 24 26 29 39 52 61 41 30 37 49 32 32 30 36 41 32 63 85 91 95 49 50 51 34 20 22 19 24 24 26
82 95 50 44 52 88 94 77 50 38 36 33 32 35 32 32 27 31 40 50 43 44 43 48 49 41 31 34 42 42 54 84 77 64 71 69 59 43 35 33 30 28 27 26 24
79 99 53 52 91 92 88 59 46 44 40 42 36 34 38 37 40 36 34 46 34 36 57 54 72 57 37 25 26 35 42 72 100 83 70 63 71 42 33 25 27 27 23 25 29
96 78 49 59 98 94 68 54 52 51 49 43 37 32 31 37 44 34 33 38 32 36 53 45 70 74 56 38 34 45 34 50 54 59 97 98 66 52 49 45 25 22 21 27 35
98 98 78 86 80 96 85 73 59 43 42 39 35 32 38 39 35 39 38 32 41 40 51 43 65 80 85 70 77 80 59 36 48 84 79 88 73 71 61 59 44 23 22 33 40
98 94 73 96 82 79 72 66 66 83 44 35 36 36 41 45 40 44 38 35 32 53 51 71 85 76 73 60 61 74 69 50 58 58 90 74 79 62 78 68 42 24 31 40 42
99 95 76 75 62 83 97 77 64 53 77 62 62 40 34 41 44 51 66 59 66 52 60 65 83 81 76 55 53 58 58 45 65 65 59 69 84 74 73 72 57 31 41 45 47
94 79 95 82 76 83 74 75 77 59 46 65 64 76 69 65 66 56 58 61 59 62 66 82 86 88 89 64 74 69 45 66 73 72 64 92 57 66 70 54 41 45 42 44 46

GFSSW_925_rhum_066.txt.gz
RH
95 95 94 94 93 90 93 63 62 58 59 76 62 58 71 76 36 24 50 18 18 18 24 30 29 32 38 42 34 29 44 48 35 29 23 16 18 13 11 24 21 20 45 48 60
95 94 93 93 92 89 93 76 53 54 68 81 81 76 58 63 54 59 18 23 19 26 26 26 23 26 42 45 41 41 47 43 27 22 20 17 17 15 13 19 18 55 63 59 60
94 95 95 95 94 94 86 56 48 60 89 88 94 95 82 58 54 38 15 19 17 18 28 31 25 19 44 38 38 34 41 27 21 19 18 18 17 15 14 15 19 53 66 63 61
87 87 94 95 94 94 85 63 46 54 80 74 92 99 87 59 7 20 19 22 24 29 50 51 45 24 25 46 37 40 30 26 22 19 18 18 15 15 13 14 17 49 55 55 56
88 95 94 94 93 90 57 45 44 47 59 60 97 99 81 79 66 6 17 14 22 29 48 37 35 25 29 30 34 39 33 28 22 19 17 16 16 16 14 13 26 49 51 54 55
87 94 91 86 88 76 52 37 36 37 39 49 95 96 80 82 23 19 24 21 21 29 22 32 26 19 31 34 35 27 29 27 22 19 17 16 15 15 14 13 32 48 51 55 55
95 84 76 75 69 59 49 33 28 30 47 54 88 94 77 71 12 17 22 27 22 23 25 20 18 17 20 33 28 26 30 24 22 19 18 14 16 16 12 13 15 36 36 47 50
81 77 72 66 60 52 40 25 33 46 58 71 80 91 86 32 33 37 25 26 22 17 20 18 20 17 20 27 29 32 29 35 22 17 16 17 22 15 14 14 14 28 40 43 47
82 75 69 61 56 51 34 38 47 46 63 83 95 82 82 50 51 22 24 32 18 23 24 24 23 19 19 34 43 39 48 36 27 18 18 18 21 16 14 16 14 16 39 45 47
78 73 65 61 57 52 38 58 45 64 76 86 81 89 72 45 33 25 20 20 21 34 38 33 33 26 30 43 60 52 44 33 30 21 22 25 23 18 14 16 17 18 30 44 48
76 66 64 62 53 40 63 70 60 58 54 58 66 68 55 42 33 25 22 27 45 48 60 43 49 54 32 31 36 35 37 41 33 28 29 28 26 26 20 17 21 28 35 44 47
74 66 67 61 52 42 66 75 63 62 77 49 52 51 49 45 48 35 25 37 56 68 68 69 68 45 32 26 27 35 39 43 33 25 27 27 29 20 18 17 19 26 32 43 50
71 69 71 58 50 60 57 66 60 67 81 61 44 44 45 42 47 42 27 46 56 75 79 77 62 48 41 40 35 30 31 39 38 29 24 30 30 22 18 16 17 23 25 34 47
66 70 69 58 56 60 67 60 55 67 96 60 49 38 34 34 44 29 25 41 53 64 79 83 64 66 64 55 43 59 23 22 27 31 52 29 50 27 22 21 18 18 26 33 45
70 76 72 58 76 81 63 58 55 70 68 33 32 25 30 36 28 25 23 24 38 63 68 66 71 76 74 58 43 46 44 49 46 49 46 36 42 28 24 24 21 20 20 28 42
66 76 76 61 67 53 56 60 70 89 73 37 32 34 42 35 32 26 25 22 26 40 63 56 61 62 60 51 48 53 52 50 42 47 67 43 42 43 31 22 19 18 17 27 41
73 76 86 84 75 50 62 80 87 97 30 30 34 34 39 41 39 36 35 36 41 40 44 37 54 58 58 68 54 57 70 69 68 69 73 39 43 38 28 24 22 22 20 24 41
84 74 70 62 56 59 73 91 98 48 46 29 31 25 27 22 30 41 43 41 36 30 45 46 58 43 57 64 67 61 76 84 91 92 66 34 45 35 23 19 19 19 20 29 43
83 73 78 48 53 72 89 100 66 48 37 44 40 28 24 21 24 38 48 50 40 33 44 49 52 36 45 43 52 76 94 63 85 66 91 60 43 31 31 23 19 19 29 39 48
93 93 84 43 59 78 93 76 62 41 40 41 53 39 44 39 37 31 42 53 66 54 34 40 57 36 36 36 40 50 61 98 98 97 94 57 48 52 40 38 29 32 35 42 47
84 96 47 52 68 94 93 78 54 38 36 46 57 53 43 44 39 39 54 63 49 61 49 60 53 48 40 44 59 60 96 92 82 82 96 77 72 64 51 37 38 43 45 47 48
88 97 47 76 92 94 90 67 52 47 41 45 48 51 47 40 43 41 41 48 34 41 59 52 71 87 53 32 30 53 74 75 99 86 81 86 95 74 55 42 32 42 46 48 46
100 92 50 60 98 94 76 68 59 57 53 46 50 44 44 47 44 42 41 44 33 45 52 42 68 88 60 43 35 50 50 63 75 89 98 98 84 77 60 63 58 40 46 47 50
100 98 85 91 87 90 97 86 72 53 55 50 52 49 46 47 43 43 38 42 37 42 53 47 68 80 89 89 80 84 67 63 86 100 88 90 72 82 85 81 57 48 48 49 52
100 94 84 96 95 96 85 82 80 79 68 62 55 50 47 51 52 53 47 52 49 60 63 65 70 82 76 69 59 58 85 79 74 80 85 69 68 70 89 80 70 58 50 50 51
99 99 89 95 74 70 81 86 81 84 60 65 81 82 77 66 46 58 64 55 73 64 67 78 78 84 85 59 50 61 72 75 94 87 61 62 69 70 90 87 69 58 50 56 58
100 89 91 80 83 79 78 65 76 54 74 60 76 90 86 74 75 71 67 64 59 62 73 76 82 87 86 67 62 79 59 58 61 75 80 94 67 79 84 86 70 52 56 60 60

GFSSW_925_rhum_069.txt.gz
RH
93 94 94 94 95 94 95 95 84 64 66 89 78 83 94 94 68 66 59 7 21 22 26 27 32 37 40 43 38 32 47 55 40 34 26 19 19 16 14 20 25 28 58 49 54
96 95 95 95 95 96 95 94 49 47 63 53 53 88 96 85 96 86 11 19 19 22 31 31 26 39 49 48 46 50 61 42 33 25 25 22 21 19 17 18 18 45 62 68 68
94 94 94 95 95 95 95 75 59 49 43 50 67 94 98 82 79 17 21 23 24 27 35 38 28 24 45 44 50 45 45 34 30 26 25 22 21 18 18 20 21 38 65 78 74
91 92 95 96 95 95 93 60 52 60 50 41 74 93 95 82 7 24 25 22 19 31 44 60 49 32 26 47 43 47 37 33 32 27 25 25 21 20 18 18 16 18 64 71 70
94 87 94 95 95 92 77 58 46 30 31 34 82 96 87 76 51 9 18 18 21 42 59 52 45 35 29 30 40 46 40 35 32 30 26 24 24 21 19 16 16 44 64 66 66
95 91 91 93 90 84 68 48 38 26 32 44 97 99 92 89 16 18 22 19 23 32 42 42 37 26 29 35 37 32 34 34 33 32 29 27 23 19 17 15 23 62 64 62 62
93 92 88 86 74 65 64 36 24 39 53 60 99 100 86 80 22 27 34 26 24 28 29 18 20 18 19 29 32 31 36 33 30 26 25 21 24 22 16 14 28 61 58 59 59
93 82 72 63 58 57 45 28 48 54 55 60 94 99 90 42 45 46 34 24 20 21 24 23 21 21 19 24 32 35 34 44 29 25 22 19 29 20 16 16 18 45 54 58 60
80 80 71 62 59 55 37 55 50 68 61 82 97 93 79 49 56 31 25 32 23 21 24 25 25 27 20 30 46 44 56 44 34 23 22 20 27 20 17 18 18 18 44 50 55
86 77 71 60 59 51 55 50 54 73 81 89 87 93 66 43 39 34 23 24 22 34 36 35 37 34 31 46 55 57 51 44 38 27 30 32 33 25 22 21 21 18 31 47 51
82 81 69 62 57 45 59 63 67 64 63 62 60 70 53 45 37 31 29 30 45 48 55 51 56 62 42 37 37 43 44 46 39 30 32 35 33 28 24 27 22 20 26 47 47
64 67 68 61 54 54 58 69 64 72 96 62 56 55 48 47 57 38 31 38 54 62 71 70 73 52 44 38 32 34 39 45 37 29 31 36 35 27 24 23 21 19 26 31 45
64 66 71 59 52 52 71 73 62 68 93 58 43 46 44 45 54 44 33 42 59 75 80 76 62 55 53 48 47 43 37 42 44 34 34 36 36 34 26 20 19 19 23 35 51
67 65 76 62 50 64 72 59 54 76 94 55 54 47 44 45 53 36 30 48 56 69 77 83 68 70 74 70 54 58 34 38 29 33 55 34 62 40 32 26 22 20 29 38 52
71 68 80 69 70 70 67 50 57 78 68 26 41 31 35 39 31 34 27 28 61 64 74 70 77 88 80 70 54 54 56 57 53 56 51 46 55 44 27 30 26 22 22 30 44
75 72 74 70 75 58 57 54 75 83 60 36 34 40 42 36 32 27 28 24 28 43 67 64 60 62 67 57 50 50 62 57 57 58 74 48 50 51 38 30 24 20 20 25 41
78 85 75 76 77 56 57 79 81 98 30 39 38 36 44 46 40 32 35 37 43 47 49 39 49 63 61 70 58 64 87 86 79 79 69 46 51 40 33 29 27 26 22 25 39
83 82 64 59 54 59 75 86 88 34 48 38 40 39 46 39 43 41 40 44 37 32 43 49 45 61 64 60 65 62 90 96 89 88 76 50 57 37 35 31 30 23 21 20 32
79 69 60 47 66 72 91 97 52 49 43 48 43 43 40 36 38 45 48 46 40 34 42 50 53 39 61 56 66 87 92 85 93 88 90 70 47 34 41 42 45 31 23 28 45
81 80 79 66 70 77 83 72 72 45 42 40 59 52 56 49 44 45 52 51 66 40 33 40 56 39 43 55 66 86 77 100 100 98 95 66 67 85 62 53 55 62 62 53 58
78 91 67 72 64 87 88 78 62 43 44 49 62 60 49 55 44 45 50 67 66 58 45 53 49 49 42 61 73 92 97 97 92 90 93 87 93 71 75 69 61 62 63 65 68
88 98 66 56 96 93 91 67 53 54 47 52 53 57 59 52 53 40 47 50 39 44 63 52 74 92 71 43 51 63 78 94 99 98 93 100 93 74 74 63 58 60 61 63 70
86 96 64 58 96 96 82 72 64 64 60 56 56 51 50 57 73 48 42 43 40 46 47 45 69 90 64 54 57 72 79 83 86 93 89 97 83 77 70 69 59 61 61 63 70
99 98 81 92 88 86 91 85 77 74 72 72 61 54 60 61 48 59 49 41 51 42 59 49 70 78 88 89 82 96 81 75 89 100 94 93 86 88 79 81 70 72 57 65 74
100 93 84 99 96 80 74 80 93 88 68 67 72 75 91 86 57 67 53 53 58 62 65 59 64 81 78 74 69 71 77 79 96 94 99 69 68 67 85 88 89 70 57 62 67
99 98 86 94 82 82 81 86 71 79 56 86 78 85 81 96 76 87 59 57 61 68 71 77 78 84 81 69 60 56 52 64 78 86 93 81 69 70 84 86 88 86 69 68 71
99 98 90 81 80 77 66 61 77 61 57 53 65 94 95 82 79 88 82 75 67 61 72 75 83 87 80 72 72 74 66 55 70 78 75 98 72 86 90 78 84 89 80 77 70

GFSSW_925_rhum_072.txt.gz
RH
96 96 96 96 96 96 95 95 94 94 94 94 94 95 95 89 84 75 82 11 23 17 24 30 34 38 41 41 40 37 44 56 39 35 26 20 20 19 16 18 18 25 47 58 62
93 95 95 95 96 95 95 95 94 94 93 90 94 94 94 88 81 93 14 16 24 30 33 34 31 46 52 47 49 47 61 37 36 28 26 23 25 23 19 22 22 23 46 69 76
92 94 96 95 93 94 95 92 89 91 90 92 89 95 88 82 72 14 28 22 29 29 33 38 27 32 42 47 51 52 48 35 33 28 27 27 26 19 21 25 22 19 23 72 81
92 94 95 95 92 92 92 80 89 91 89 76 91 96 90 74 5 27 29 23 23 34 42 57 41 32 31 43 45 54 45 38 33 31 30 31 26 27 22 22 19 19 20 69 85
96 95 95 95 94 91 85 70 82 62 62 61 87 100 90 78 55 14 20 22 30 43 54 58 49 39 30 28 34 50 45 39 35 34 32 30 32 29 26 22 20 19 26 70 76
95 94 93 94 89 86 84 65 43 29 47 66 99 98 93 76 25 20 19 21 26 44 50 51 44 37 34 32 33 32 35 36 36 36 35 35 33 27 26 22 17 23 41 69 74
95 93 93 91 85 83 65 33 35 55 59 63 98 99 89 70 25 24 38 34 26 27 28 24 29 19 20 24 28 36 43 38 37 36 39 35 34 30 23 19 19 24 53 70 69
92 87 91 75 66 60 44 40 56 61 60 70 94 96 92 45 45 42 38 36 31 30 28 23 24 22 22 21 30 39 41 51 34 33 29 26 38 27 22 21 20 20 52 63 63
90 95 92 78 65 54 40 55 59 75 68 88 96 91 85 47 60 40 34 32 25 23 24 22 26 30 23 27 42 48 56 52 42 28 26 27 33 22 19 21 22 21 37 64 58
92 94 93 67 58 48 51 52 63 83 88 91 90 96 59 44 43 36 27 29 23 32 36 36 37 35 33 41 53 56 57 54 49 31 30 32 36 32 26 26 28 27 22 52 52
91 84 88 68 58 49 58 60 74 72 70 67 59 74 49 42 40 32 32 30 45 44 44 48 55 55 44 39 34 42 50 54 44 35 38 40 39 33 29 29 30 30 27 26 41
80 82 87 64 55 44 62 70 69 75 94 66 68 65 53 49 59 45 30 34 51 55 70 68 71 53 48 44 40 40 41 41 38 36 38 42 41 35 30 29 27 26 26 26 28
69 77 67 65 54 47 78 70 62 71 99 71 47 46 44 48 57 47 38 38 57 64 78 71 54 58 58 61 59 54 54 50 41 36 35 39 39 34 27 30 24 23 22 23 31
62 72 66 61 52 62 74 47 49 78 94 54 51 49 47 46 60 41 35 44 59 63 75 79 65 67 74 82 66 72 47 44 40 45 54 36 58 40 36 33 29 26 25 31 32
69 81 73 65 68 70 60 47 48 88 23 20 45 37 44 51 34 39 31 36 64 67 74 66 76 81 88 74 62 69 53 64 58 66 58 53 57 42 38 37 32 28 25 24 49
90 77 82 71 66 54 53 44 75 53 20 34 37 43 44 37 35 29 32 26 37 55 68 69 57 72 72 60 60 54 68 61 61 70 88 58 56 51 44 36 30 23 23 22 27
86 68 72 76 72 58 52 76 49 43 27 44 48 39 40 47 42 34 40 39 44 52 51 40 44 62 60 68 61 66 79 91 89 88 86 50 58 43 30 29 37 42 35 25 22
67 58 61 60 65 65 70 70 34 30 50 44 42 42 46 42 42 42 40 48 40 35 43 45 43 61 67 60 70 82 70 92 89 88 78 56 64 47 43 43 52 56 57 32 27
64 57 57 62 63 69 83 86 31 55 49 53 44 55 50 46 47 47 47 45 40 36 46 48 53 42 64 58 55 75 96 82 100 100 98 69 54 50 64 65 59 65 67 70 35
68 78 65 82 73 73 90 67 67 50 51 44 56 58 64 58 52 50 49 50 52 37 32 40 58 40 59 64 74 75 83 99 100 98 89 69 76 95 88 77 69 75 78 79 69
72 86 76 73 79 92 98 80 66 47 52 62 66 65 62 56 57 54 46 67 71 60 43 44 54 50 65 66 84 83 88 98 96 86 98 94 95 78 81 72 76 77 84 89 82
87 93 73 72 96 95 100 76 54 61 51 56 60 64 66 61 72 55 58 53 61 59 84 65 87 95 74 49 57 77 92 89 100 99 97 100 97 76 68 65 67 76 78 82 82
88 85 75 68 92 100 87 86 66 70 66 66 63 53 50 63 80 78 70 58 59 60 69 63 94 88 56 61 67 81 79 82 94 99 100 97 88 76 70 71 74 70 75 72 74
95 98 80 90 86 93 98 88 81 79 83 75 75 73 74 72 54 80 83 67 62 68 61 50 73 66 63 68 78 83 66 67 98 100 97 94 85 86 84 85 80 66 70 68 68
90 91 83 98 95 84 82 77 85 91 91 72 82 90 96 93 72 80 64 83 67 63 63 54 64 78 72 71 70 72 72 66 77 91 100 88 88 73 84 84 88 65 66 64 63
98 97 89 95 82 83 81 81 82 82 66 65 95 91 78 94 77 95 85 76 95 63 79 81 91 80 71 69 63 57 43 54 57 74 81 85 84 62 87 85 90 80 68 70 67
99 98 89 81 80 78 74 65 69 67 65 61 63 76 85 80 82 77 80 92 93 82 79 75 85 81 71 70 68 52 58 48 58 74 82 89 68 86 92 86 89 89 78 78 72

GFSSW_925_rhum_075.txt.gz
RH
92 94 94 93 96 94 95 95 95 95 94 92 94 94 84 89 88 90 75 17 19 25 24 36 38 42 39 36 34 30 27 28 27 26 20 19 18 16 16 16 17 16 24 43 62
91 92 96 96 90 90 94 94 94 92 93 94 92 95 86 85 99 85 20 16 16 33 40 36 36 42 40 40 40 34 34 26 26 21 20 17 21 18 19 19 18 18 30 67 76
92 94 94 94 92 94 94 95 92 90 90 92 94 95 95 90 70 20 30 30 31 29 36 32 34 37 37 44 44 42 35 33 28 23 22 22 22 20 19 22 19 20 18 37 65
95 95 93 93 91 92 92 85 90 86 90 77 89 97 98 82 10 32 31 25 25 34 46 46 29 28 31 32 37 40 43 35 27 24 26 28 24 25 24 23 18 19 18 18 29
96 96 94 93 93 90 89 83 72 62 68 64 93 99 90 74 51 16 29 26 32 46 53 51 35 32 31 27 30 38 32 32 30 30 30 27 29 27 24 21 19 19 20 19 21
97 97 96 95 93 90 89 59 32 44 56 61 98 96 92 83 27 21 22 23 24 54 53 50 42 36 34 30 30 28 31 28 28 28 28 30 28 32 26 22 22 20 18 16 28
94 93 95 91 90 67 61 36 37 54 57 60 100 96 83 70 31 32 26 32 28 34 44 42 37 24 25 23 25 29 34 32 33 30 30 31 38 37 27 24 24 19 17 16 25
93 92 89 76 67 55 46 40 53 59 68 66 100 91 80 48 44 44 37 43 41 29 29 25 22 23 24 22 23 31 35 37 33 32 30 30 26 22 22 22 20 18 18 18 22
90 92 90 71 58 51 42 55 64 83 77 89 90 83 80 48 58 44 42 36 32 33 30 25 26 28 25 28 32 39 40 44 37 26 27 30 31 23 20 22 21 19 18 19 23
82 90 88 84 59 47 54 60 79 94 95 93 84 85 57 44 45 39 32 33 26 32 38 36 35 36 34 34 39 39 45 46 45 32 30 32 32 25 23 23 25 22 22 22 22
78 75 72 64 55 46 58 54 61 56 68 51 53 71 41 38 40 35 33 32 42 40 37 44 43 45 41 41 36 32 36 36 31 29 31 31 34 31 28 26 25 23 22 21 22
71 62 72 56 52 60 54 68 67 70 91 58 64 62 53 46 53 40 37 34 50 52 61 63 59 45 40 39 38 39 42 42 36 29 28 28 30 30 28 26 25 23 22 21 22
68 58 65 51 53 51 73 65 66 76 91 66 53 50 44 55 63 51 38 35 51 55 66 53 48 53 51 56 60 57 60 57 55 43 36 35 34 28 23 25 24 23 21 20 21
68 56 63 51 45 62 73 49 54 82 81 33 43 45 47 48 58 43 40 36 55 46 60 67 55 58 63 65 65 70 52 52 53 53 55 33 46 33 28 26 25 22 23 24 22
56 61 73 65 64 60 52 48 58 87 12 16 47 39 45 46 38 37 35 39 51 61 62 51 72 80 71 54 59 59 54 57 57 60 59 53 55 38 32 32 26 24 25 24 24
55 71 69 70 67 52 56 50 77 27 10 22 37 36 32 41 36 32 34 29 41 60 68 61 55 63 59 56 56 52 60 58 55 60 77 53 52 45 34 28 29 30 33 33 27
54 65 68 72 67 59 56 65 23 14 22 44 48 34 40 41 42 35 41 40 44 54 51 39 42 53 56 58 56 53 62 73 76 81 63 42 55 45 34 33 51 53 50 48 42
54 56 58 66 64 56 69 34 11 26 43 44 42 39 45 42 40 42 42 46 40 35 41 40 44 47 59 48 52 66 60 74 78 74 66 51 55 44 61 55 56 58 60 58 54
57 56 65 79 67 70 54 50 23 67 51 50 36 55 53 46 48 41 48 44 39 34 41 43 43 39 59 55 44 72 79 63 100 75 91 52 45 61 57 61 63 69 73 75 66
66 66 81 72 76 58 74 48 54 51 54 53 50 61 65 40 48 39 44 57 64 37 33 38 48 40 69 59 67 65 73 100 98 86 78 53 57 78 76 74 70 79 86 87 75
68 76 79 78 70 86 79 67 60 48 54 59 65 61 51 32 36 33 46 58 62 70 42 40 54 52 65 66 68 77 76 97 98 80 78 85 92 77 82 76 83 86 85 88 88
82 81 69 64 87 92 82 70 57 56 44 48 57 56 60 54 71 60 56 54 59 70 71 74 80 68 53 46 51 58 66 86 95 89 93 90 78 86 78 71 78 84 81 84 86
91 85 70 62 86 94 76 81 71 68 62 64 65 58 55 56 68 62 68 60 66 74 91 70 98 94 75 67 64 71 75 96 96 98 95 92 84 83 82 68 71 78 79 80 85
93 85 70 88 72 83 92 79 70 74 88 96 79 66 77 71 60 60 72 67 72 82 79 70 65 93 71 57 61 72 56 57 92 96 95 97 86 82 85 87 69 67 72 74 78
89 90 80 97 91 82 82 76 79 89 80 70 96 93 91 92 70 67 54 58 68 75 93 89 76 82 63 61 65 57 54 45 50 70 89 63 71 71 75 82 91 67 60 71 72
96 92 83 89 79 76 74 61 69 71 59 62 88 65 67 91 80 91 83 71 77 80 97 97 80 79 62 66 54 50 38 43 52 49 56 67 72 55 57 77 86 79 66 67 71
99 97 87 80 78 72 66 61 65 65 61 59 63 68 66 90 86 91 82 87 92 98 100 91 90 69 58 61 50 40 44 38 48 53 60 73 61 68 85 84 83 80 71 72 74

GFSSW_925_rhum_078.txt.gz
RH
92 92 95 95 95 91 95 95 96 93 92 94 94 89 62 48 67 62 39 29 28 27 26 41 37 30 20 16 18 16 20 19 16 16 14 11 11 8 9 10 10 10 12 17 28
92 94 93 93 93 95 95 94 91 91 91 92 90 93 78 59 77 44 33 23 20 35 30 27 20 25 23 21 20 19 18 17 13 14 15 12 12 10 13 13 13 12 10 25 31
92 95 94 92 91 94 94 93 87 90 89 80 70 84 84 79 48 12 32 34 26 34 33 21 16 19 20 21 24 23 21 15 16 16 14 14 13 11 13 15 12 13 11 12 13
91 96 95 95 95 94 90 69 65 86 88 70 84 97 90 72 10 26 28 26 30 44 33 24 20 22 19 19 18 29 22 20 16 16 17 17 14 14 13 14 12 11 11 11 13
88 92 96 96 96 94 89 66 57 68 47 64 88 99 77 44 27 23 35 32 45 41 30 24 21 18 19 16 15 23 18 14 16 17 16 14 15 15 14 13 11 11 11 14 14
86 93 92 87 95 88 75 50 31 40 49 56 97 95 68 39 27 29 30 29 28 34 29 32 25 22 24 23 22 18 21 19 19 19 19 21 18 16 16 14 14 14 14 12 13
75 91 92 78 61 56 51 35 40 51 51 67 98 92 61 37 35 34 37 26 27 26 23 27 29 25 22 25 20 22 25 21 20 19 21 18 20 20 16 15 16 14 13 11 11
69 69 58 56 52 51 38 43 53 56 68 67 98 83 52 40 42 47 36 32 35 29 26 22 25 24 23 19 22 25 23 26 16 23 22 24 25 13 12 16 16 15 13 11 11
67 61 58 54 53 44 44 52 63 80 85 86 82 70 41 42 43 39 41 29 30 34 30 24 24 24 25 28 26 25 24 23 22 19 20 23 24 18 16 16 17 16 13 12 11
65 60 56 58 52 45 51 62 82 91 89 85 78 77 44 32 36 36 35 33 24 24 28 26 24 29 29 32 29 21 24 22 28 24 24 25 23 20 18 18 19 17 15 14 13
64 58 54 61 49 56 56 47 29 38 38 24 27 41 28 22 29 28 30 27 24 24 27 24 27 29 24 26 22 25 31 30 22 19 24 24 22 18 16 19 20 19 17 15 14
62 58 56 54 42 55 46 44 52 58 50 34 39 41 38 38 36 24 31 30 34 37 31 41 38 21 21 25 30 29 29 31 29 27 29 27 25 19 17 16 16 18 18 16 14
58 52 50 51 43 64 47 52 59 67 59 34 35 39 34 43 40 34 28 28 33 34 39 35 24 38 34 35 37 35 40 38 41 36 33 33 28 21 19 19 17 17 17 16 15
54 58 53 45 44 57 46 55 64 77 36 15 38 37 38 38 44 33 29 24 31 34 31 35 29 37 41 39 41 42 37 41 42 43 33 28 32 22 21 20 17 16 18 16 15
59 62 55 56 58 36 48 62 74 80 11 19 37 33 27 39 30 32 30 25 28 32 38 32 42 54 45 38 39 38 41 41 42 47 45 38 42 25 23 25 21 18 17 16 15
59 60 56 65 66 55 68 72 80 32 9 18 28 24 18 24 29 29 31 29 30 36 40 36 31 44 41 43 37 36 41 33 35 45 57 36 38 27 24 27 23 23 20 22 21
60 56 67 75 50 73 72 56 19 10 10 27 34 23 17 27 28 31 34 36 33 42 39 31 33 36 41 45 40 42 38 33 45 61 46 32 38 31 25 37 37 36 35 33 33
56 56 66 78 79 76 61 21 10 14 23 29 29 21 18 27 21 29 31 34 31 32 32 31 36 31 38 40 32 40 38 42 50 42 34 33 42 31 42 40 40 40 44 42 39
58 67 71 82 81 76 30 25 18 38 36 37 25 22 18 32 28 27 27 28 29 30 35 34 34 30 40 38 34 53 59 41 60 53 63 35 28 38 37 41 43 49 53 59 56
63 59 68 76 75 45 26 29 34 38 38 31 28 33 34 35 26 29 30 48 56 43 28 31 39 30 44 44 44 51 47 78 72 76 55 31 35 44 59 58 54 61 67 74 74
59 45 66 56 75 39 45 34 36 30 37 34 35 36 26 28 24 30 28 47 50 54 46 31 37 42 52 52 42 59 61 69 94 70 59 51 86 88 82 75 78 72 77 86 87
60 64 65 70 56 55 44 45 51 41 39 40 38 40 35 31 27 28 27 32 54 54 69 41 52 50 37 29 34 35 44 55 67 71 87 95 66 78 71 72 75 75 78 83 85
55 48 62 69 70 53 49 52 53 51 52 49 48 42 37 41 44 31 28 22 54 76 96 94 73 61 47 52 45 49 51 88 88 100 82 89 81 82 81 72 70 75 77 80 86
65 75 51 48 46 59 69 52 50 56 70 58 61 60 61 52 46 42 36 36 49 46 80 97 72 57 41 82 50 59 49 49 59 77 58 53 62 69 79 82 83 67 80 80 82
72 71 60 75 60 50 55 52 55 64 58 46 89 76 83 72 54 52 38 31 31 55 77 96 94 57 59 68 61 39 36 35 46 47 56 32 32 32 43 56 74 58 75 80 83
90 62 54 52 55 53 54 43 46 51 47 44 73 48 43 59 71 91 69 57 53 62 76 98 92 58 64 62 47 44 34 26 31 38 37 38 42 36 49 63 70 66 81 84 83
94 81 53 61 50 48 46 44 50 45 44 46 46 54 53 56 68 57 56 56 65 79 100 99 100 67 62 47 40 39 29 31 32 30 45 55 46 46 56 76 72 76 70 84 86

GFSSW_925_rhum_081.txt.gz
RH
79 87 92 95 94 93 96 96 95 93 94 93 85 50 21 22 39 48 27 21 27 28 18 30 27 20 16 14 17 15 21 20 15 12 10 8 9 7 6 6 6 8 9 9 19
85 93 94 94 93 94 94 89 70 85 92 86 69 76 58 38 66 32 22 25 23 22 23 19 21 19 19 15 14 17 20 17 11 10 10 9 9 9 9 10 10 8 7 8 19
80 85 94 94 95 95 86 66 60 86 84 53 52 77 62 60 33 12 25 26 15 23 33 13 15 13 18 14 14 16 20 13 10 9 10 12 11 9 10 11 10 12 10 9 11
78 90 91 89 96 96 80 55 45 61 60 35 55 83 63 66 15 26 24 24 29 39 30 18 13 14 16 15 13 18 15 14 12 11 12 14 12 11 10 11 9 9 9 8 9
80 84 87 92 96 96 74 52 47 40 44 40 54 93 70 32 22 21 22 27 40 39 25 19 17 15 15 12 11 12 12 11 12 11 11 12 13 13 12 10 9 9 10 10 10
78 72 82 86 94 78 58 48 42 42 48 46 57 99 68 33 19 19 18 23 24 26 21 18 16 14 15 15 14 11 12 13 12 11 12 14 13 12 11 10 10 10 10 10 10
70 61 64 61 67 61 45 42 38 45 49 53 80 87 45 28 21 19 21 18 14 17 19 17 19 19 18 20 16 16 19 15 13 13 14 14 17 16 12 12 12 11 11 11 11
63 58 57 51 52 45 37 36 45 58 71 65 70 67 37 25 24 24 23 21 18 17 16 16 16 21 20 16 17 18 18 19 12 12 14 16 21 13 10 10 12 13 12 12 11
62 60 53 50 48 39 38 43 58 80 74 70 76 54 31 32 29 27 26 19 17 20 17 16 16 21 19 24 26 20 21 16 14 12 15 16 21 14 12 13 12 12 12 12 11
62 60 52 48 46 42 44 48 69 81 84 62 58 56 35 22 25 28 26 26 20 20 20 20 18 22 21 24 30 15 17 17 17 14 19 22 19 15 14 14 15 14 13 12 11
65 60 54 47 40 47 51 48 49 49 38 21 18 26 18 14 17 18 21 21 21 20 25 20 24 24 22 21 22 19 19 19 16 14 16 18 17 15 12 12 14 16 16 14 13
66 58 45 46 38 41 44 26 35 46 28 20 24 26 27 29 27 18 15 25 24 27 21 22 27 18 15 16 19 22 24 25 18 16 23 24 22 17 15 13 12 12 14 15 14
57 44 46 46 38 55 36 37 40 46 42 21 26 30 28 31 28 23 17 21 21 27 25 29 22 25 24 23 24 23 25 24 25 22 21 22 23 19 15 17 15 13 11 12 14
50 49 47 43 48 36 33 39 45 63 46 22 32 30 27 29 34 23 21 18 22 26 23 24 20 22 21 28 24 29 21 26 32 31 28 18 30 19 14 14 14 14 14 13 14
52 53 46 47 48 28 38 45 59 65 29 14 29 24 13 26 23 28 22 20 24 24 27 25 24 31 32 27 24 30 26 35 33 32 28 24 26 19 15 18 16 15 14 14 14
56 48 48 55 51 44 50 58 65 58 18 19 20 20 12 16 18 22 25 23 20 27 23 26 19 24 28 26 31 24 34 35 29 28 39 28 24 19 17 23 22 19 18 15 14
50 42 58 57 43 56 58 50 43 17 7 20 23 17 13 9 13 20 22 29 29 36 32 27 26 24 32 32 29 34 39 36 26 39 42 22 28 21 18 28 29 30 27 28 26
48 54 59 54 63 66 51 37 20 10 12 19 18 15 11 8 15 12 17 16 15 21 24 23 25 22 24 34 31 30 35 36 44 38 45 36 33 34 30 28 30 30 35 37 41
52 62 57 64 74 61 39 29 20 25 24 25 16 12 10 12 25 17 16 14 13 18 30 24 21 21 26 28 28 35 41 27 40 36 40 28 20 26 35 35 34 40 43 50 53
50 49 46 68 66 53 28 28 21 24 24 21 21 13 22 17 24 17 19 22 29 32 26 24 29 23 28 29 30 33 36 65 51 62 49 28 27 75 60 53 55 59 61 65 69
49 40 49 55 64 29 46 24 23 22 25 26 21 23 21 20 17 17 16 19 36 40 39 39 29 24 22 34 31 40 47 48 57 58 60 55 77 71 70 68 69 62 64 76 82
41 56 49 56 42 32 31 28 46 28 30 30 30 29 29 26 28 26 23 15 21 38 62 60 73 38 24 20 20 24 36 43 68 49 52 60 66 68 65 67 68 63 69 76 80
33 35 39 57 69 38 34 33 34 34 35 34 34 31 31 36 39 26 24 19 17 23 80 85 67 56 38 29 24 29 28 33 55 68 65 72 76 74 62 59 64 65 69 77 81
43 69 39 31 31 46 46 39 40 41 45 40 42 43 44 41 32 39 35 24 23 30 62 65 67 69 51 49 60 67 32 39 53 70 56 54 37 67 54 60 64 64 69 80 82
52 62 44 63 44 39 44 38 40 47 43 34 66 60 46 50 41 40 40 43 37 24 32 65 71 52 48 33 41 62 82 41 50 46 47 33 26 24 34 50 63 62 72 81 84
90 45 38 39 41 42 46 36 31 36 35 36 54 38 34 41 36 52 52 50 48 37 58 75 72 57 70 54 45 54 56 30 26 23 25 26 28 35 52 55 58 67 73 82 86
63 54 43 46 38 37 36 35 38 35 33 31 34 39 40 38 36 36 37 40 42 50 55 77 78 76 69 58 51 66 44 31 22 24 26 43 46 50 68 66 67 75 77 82 88

GFSSW_925_rhum_084.txt.gz
RH
76 78 83 92 93 92 96 95 92 82 93 88 85 74 35 22 34 53 34 29 27 29 27 18 27 25 18 16 17 18 27 27 21 17 14 9 9 6 6 6 6 6 7 9 18
84 90 93 93 88 90 96 95 82 81 91 82 82 81 43 42 73 44 26 25 21 23 20 14 20 19 19 17 15 20 28 25 17 14 13 10 9 9 9 8 8 7 7 8 13
86 91 94 94 93 96 97 88 70 80 87 84 68 72 43 51 43 21 23 21 19 18 20 11 12 17 21 17 15 15 22 18 15 12 10 10 11 9 11 11 10 11 11 10 13
84 80 94 96 96 96 96 70 65 83 72 58 49 68 46 73 24 28 15 19 23 22 28 22 12 16 16 17 15 16 13 12 12 12 12 12 11 12 12 13 9 9 9 10 10
80 83 95 95 95 96 86 57 66 70 41 35 40 87 70 40 30 28 18 20 40 40 30 22 17 13 14 11 11 12 11 10 11 11 11 11 12 12 12 10 9 8 9 10 11
82 79 76 82 90 83 54 44 50 37 34 39 55 95 73 38 15 17 17 18 21 26 22 17 16 14 14 14 13 11 11 10 9 10 10 11 11 10 10 9 9 9 10 10 11
84 70 67 60 64 51 40 41 33 38 41 49 63 91 49 32 16 17 17 15 12 15 18 16 15 18 17 19 15 16 18 16 15 13 13 11 14 13 11 10 11 11 11 10 10
73 65 61 60 48 42 40 34 38 42 58 64 70 77 46 20 22 18 18 17 17 13 14 14 16 17 21 19 20 19 17 20 13 10 10 11 18 12 9 10 12 12 12 12 11
65 63 62 56 42 40 34 42 49 62 69 65 86 63 38 26 23 22 23 18 15 14 13 13 13 17 19 26 26 21 27 20 16 10 10 11 18 13 11 12 13 13 12 12 13
65 63 63 54 39 32 41 44 67 79 80 72 50 53 41 21 20 23 23 22 18 17 19 18 17 20 21 23 30 22 20 17 16 12 13 14 16 15 13 12 14 15 14 14 14
67 66 59 46 34 33 50 46 57 70 56 42 27 36 17 13 16 14 14 20 19 20 27 21 25 25 21 18 18 20 23 23 18 13 15 16 15 14 12 11 12 12 13 16 16
75 68 51 40 32 42 50 34 30 39 30 22 14 19 21 24 26 16 12 22 22 28 20 22 27 20 16 16 17 19 20 21 17 15 18 17 16 16 17 17 14 12 12 14 17
71 56 44 40 35 52 33 31 33 41 44 19 20 25 24 26 25 20 13 14 23 23 24 25 20 17 23 22 23 21 22 22 21 17 18 24 23 18 15 14 15 14 14 12 14
56 48 41 41 56 34 40 35 41 58 56 23 24 25 26 26 33 18 18 17 20 24 20 21 17 19 21 23 22 29 18 19 25 26 39 22 38 21 14 14 15 17 17 17 14
57 47 40 42 78 37 38 42 48 64 43 20 27 22 15 22 17 25 18 18 22 21 23 25 20 22 26 25 18 21 19 24 27 36 38 34 30 20 14 15 14 15 17 18 16
57 45 40 61 63 46 50 53 59 76 37 17 22 21 12 13 14 18 20 20 19 21 20 19 15 17 18 20 21 23 28 26 31 36 52 37 25 24 21 30 30 24 24 29 20
48 38 53 56 50 55 60 55 70 49 10 17 18 16 12 10 7 8 15 26 29 32 31 22 23 19 19 28 24 30 37 42 40 36 46 48 59 28 37 36 29 29 38 41 45
47 42 62 52 65 66 59 55 47 9 14 16 13 13 13 8 7 8 12 14 12 13 20 22 24 16 21 30 30 29 36 48 46 51 42 35 84 47 34 41 50 49 50 50 54
49 62 62 64 68 65 58 55 32 24 19 20 13 11 9 8 14 20 19 14 12 10 16 31 24 21 20 21 24 29 34 26 43 38 46 34 43 65 65 49 50 54 55 60 64
76 52 43 61 61 66 54 35 22 19 18 16 18 10 16 16 18 17 18 13 24 29 35 36 50 20 22 24 24 27 26 59 80 70 52 29 38 86 83 73 59 58 62 67 70
70 49 51 50 63 59 60 28 19 20 22 22 19 19 19 20 18 18 16 12 13 32 27 37 51 54 34 48 38 31 40 38 49 54 69 84 95 92 80 71 64 59 62 73 78
48 63 48 51 57 37 33 25 36 23 24 25 26 24 24 25 27 25 24 19 15 16 20 37 87 75 42 23 24 25 27 38 68 55 54 59 66 71 57 56 57 61 64 73 77
45 38 34 59 76 40 31 27 27 28 29 29 29 27 28 32 34 25 24 20 21 20 31 40 58 65 43 29 22 34 31 48 58 65 71 86 67 66 60 52 60 60 67 73 78
48 75 38 37 30 42 37 33 35 33 35 33 31 33 35 35 28 31 28 25 28 34 51 51 47 61 72 57 59 72 69 52 43 77 60 56 57 45 61 54 57 66 72 77 80
57 73 45 64 40 37 39 32 34 39 35 31 46 45 47 41 34 32 28 31 28 30 30 41 55 45 51 41 38 54 84 60 61 74 60 44 34 57 62 63 64 65 69 77 82
90 55 38 38 38 37 42 34 28 30 28 38 46 34 30 35 32 44 35 36 41 33 39 67 65 46 48 39 38 52 44 57 67 86 73 62 36 71 77 59 66 70 72 80 85
47 46 53 44 39 37 39 32 31 30 29 26 27 31 35 31 28 32 32 36 38 43 52 57 88 74 61 37 44 68 39 35 39 53 37 49 70 60 83 90 87 80 81 88 94

GFSSW_925_rhum_087.txt.gz
RH
83 73 74 84 89 87 85 79 76 73 70 74 86 88 38 27 51 62 59 26 29 30 35 24 20 28 31 21 21 28 46 49 42 32 25 16 16 12 10 8 7 7 7 24 26
85 82 89 93 86 80 84 87 78 64 59 80 82 71 41 56 80 77 13 28 26 28 27 20 17 20 28 25 25 26 40 40 28 25 24 18 16 14 13 14 13 9 8 20 21
90 90 88 82 82 86 93 91 80 70 77 87 89 85 39 65 74 30 26 28 26 23 24 21 13 14 29 24 24 23 26 22 24 22 19 18 14 14 15 17 17 16 14 12 24
91 92 90 89 94 95 91 86 78 70 82 79 83 94 47 77 30 31 18 16 17 13 25 29 30 18 22 30 24 27 20 18 16 15 16 15 15 16 14 16 15 14 12 11 14
90 82 81 91 90 91 86 70 55 64 75 61 73 96 58 66 57 24 22 17 20 24 28 28 30 23 20 18 18 18 16 14 14 14 14 14 14 14 15 12 11 10 10 13 15
81 80 76 72 67 71 64 52 52 46 43 38 65 100 95 69 12 18 17 20 25 37 32 32 28 21 18 17 17 14 16 16 17 18 16 16 16 15 13 11 11 10 10 11 12
80 88 76 64 60 60 47 44 38 35 36 40 73 98 74 50 12 18 21 16 14 15 23 20 19 22 23 28 22 22 25 21 19 18 17 16 18 17 13 12 12 12 11 11 11
96 84 69 61 58 48 40 36 35 42 40 66 91 94 86 17 26 25 20 19 16 17 14 13 14 19 23 24 26 31 28 31 20 16 14 15 21 14 12 12 12 11 11 11 12
89 76 64 63 56 44 36 36 42 60 68 81 95 95 66 29 30 23 19 17 16 16 16 13 14 19 23 29 40 34 42 33 26 18 16 16 19 16 13 14 16 17 18 16 13
87 78 74 64 53 34 33 35 47 66 67 80 77 86 58 28 20 23 23 22 22 20 20 20 21 27 29 34 50 41 34 30 30 22 19 20 20 16 14 13 14 13 12 12 15
83 85 72 61 43 30 39 56 78 89 73 69 63 43 30 17 17 17 14 17 22 25 35 28 35 39 31 29 27 27 26 28 25 21 20 20 20 18 14 14 13 14 13 12 12
95 83 66 52 30 28 45 66 34 41 51 42 55 37 18 19 28 22 17 19 31 38 30 32 39 28 24 23 25 26 28 28 23 19 20 21 22 21 20 19 17 16 15 14 12
80 66 55 39 36 42 47 34 36 43 57 33 22 33 21 26 30 22 15 18 26 32 33 39 30 23 24 25 27 29 31 29 26 23 21 24 26 28 22 20 16 13 14 16 13
66 54 48 43 57 49 44 37 44 58 73 38 21 24 26 28 35 22 18 18 21 28 29 31 24 24 24 29 27 34 26 26 24 30 48 33 57 35 27 22 16 28 20 15 14
58 61 45 47 72 59 46 41 46 70 65 24 23 21 23 31 21 26 18 20 28 28 25 34 28 27 28 27 24 30 25 28 31 37 45 40 50 38 29 25 18 62 50 26 21
65 54 44 56 68 58 44 50 60 92 64 27 29 27 23 19 17 25 25 22 22 28 25 26 20 21 24 20 22 25 34 39 40 42 57 42 55 55 41 32 50 67 64 64 63
86 66 53 58 66 57 48 67 96 77 17 21 26 17 14 14 15 12 28 35 39 44 44 32 27 22 18 26 25 30 43 72 61 62 60 38 49 61 79 73 65 67 67 71 70
73 48 61 62 66 60 66 79 73 27 21 15 14 15 16 13 11 12 16 20 18 22 22 23 30 20 22 26 36 40 46 73 73 70 59 37 52 69 87 67 57 62 63 72 75
62 50 73 71 50 64 83 83 48 28 20 19 13 15 14 11 14 19 23 25 23 45 64 59 44 32 24 26 31 40 46 38 54 51 62 43 33 67 70 74 72 60 64 74 77
73 68 62 52 55 72 80 57 31 19 18 16 17 14 20 23 22 22 21 17 18 28 24 43 68 40 33 31 30 33 34 69 85 91 81 46 76 98 84 69 72 72 72 78 79
76 77 56 47 61 84 89 44 22 21 23 25 25 23 24 24 25 26 22 21 22 24 22 30 65 63 45 44 45 42 46 47 59 74 87 86 87 88 86 76 76 74 74 82 81
78 90 48 55 86 83 61 30 31 24 23 25 27 25 26 32 32 30 28 26 36 35 40 49 69 67 52 37 32 43 50 55 70 68 73 77 90 77 76 75 64 72 73 78 79
82 63 38 60 94 77 32 30 26 27 31 29 29 34 36 36 39 32 34 30 36 39 61 55 69 86 48 38 50 69 73 79 89 82 96 90 80 78 75 67 68 79 81 81 83
87 90 53 63 49 58 45 40 38 33 41 33 33 37 40 42 35 40 35 30 37 35 51 46 63 72 81 64 51 88 72 57 86 99 97 90 65 61 66 82 80 80 80 81 84
90 88 57 87 66 53 45 35 45 45 36 36 49 45 49 55 45 44 44 41 36 37 43 58 75 61 53 44 42 44 70 52 72 86 98 86 77 89 83 83 83 72 75 82 86
96 88 60 57 45 49 48 38 31 33 29 50 49 42 38 47 45 55 52 53 53 46 54 72 83 80 69 56 54 44 38 39 49 72 79 84 97 84 82 76 76 76 80 90 92
48 52 74 52 46 53 50 37 34 37 33 27 32 40 46 46 49 47 46 48 50 54 59 63 89 85 68 56 61 68 52 46 54 62 69 88 95 80 93 94 93 90 89 94 95

GFSSW_925_rhum_090.txt.gz
RH
79 76 63 57 68 72 65 67 76 75 83 95 96 95 68 22 30 45 59 10 13 25 28 27 27 23 34 23 22 31 56 65 54 46 38 27 25 19 13 14 15 14 11 21 38
84 79 69 73 73 72 70 69 76 79 74 81 78 71 27 36 56 81 6 17 18 26 35 36 29 19 42 28 24 33 50 51 40 36 33 27 26 24 17 16 17 16 17 25 36
93 87 76 71 68 67 72 75 68 67 71 71 70 84 29 63 84 46 25 22 29 31 29 24 18 15 36 26 27 29 36 29 24 22 24 26 26 21 20 19 16 19 18 14 23
94 87 84 71 68 75 87 78 69 58 58 59 76 94 61 82 17 29 17 17 24 23 22 23 30 23 20 36 28 30 24 22 20 18 19 19 17 19 18 18 15 16 14 14 15
85 85 78 78 74 79 80 70 53 44 48 45 70 96 74 84 69 6 18 20 21 20 26 29 33 32 28 20 22 28 26 23 21 20 19 17 19 18 17 15 15 13 12 13 15
84 83 77 76 76 71 66 56 44 35 39 37 89 99 98 66 10 16 24 23 30 34 36 31 36 30 28 21 21 17 17 19 19 19 20 20 21 18 16 15 15 14 14 14 14
87 82 84 81 73 62 56 46 36 34 36 42 95 99 89 52 15 27 26 24 17 24 35 29 29 24 24 28 25 26 31 29 23 19 20 16 18 18 15 16 16 13 12 12 12
84 85 92 83 63 55 49 41 32 30 45 56 90 98 82 17 14 27 27 26 21 16 15 14 15 18 22 23 26 31 32 39 24 20 19 18 26 17 14 14 14 13 12 12 12
90 90 93 76 66 57 46 33 28 36 58 91 97 94 85 39 43 23 22 24 17 18 17 17 14 19 20 30 38 39 50 41 32 21 23 22 27 19 18 16 18 18 18 18 17
87 97 85 76 69 60 44 26 39 55 70 94 90 96 67 36 28 24 22 23 21 24 22 19 25 26 33 37 47 48 45 40 38 26 22 26 25 20 18 18 17 17 18 16 15
98 87 79 76 68 55 51 47 71 89 82 72 68 60 39 23 17 17 18 19 22 27 32 29 36 42 34 34 31 33 36 37 29 23 25 24 24 20 18 20 20 20 18 16 14
82 75 80 76 66 48 68 75 42 42 52 60 67 59 42 40 30 25 18 20 25 40 32 37 43 32 28 28 31 32 36 35 28 24 23 23 23 20 20 20 19 19 21 18 16
83 90 79 62 42 40 54 54 37 36 56 31 34 54 49 35 31 30 22 22 31 40 40 45 36 28 30 31 34 34 36 36 34 29 26 28 31 29 26 27 24 22 28 57 57
91 73 58 42 50 61 61 41 38 54 57 34 32 28 31 30 37 25 15 18 23 28 31 37 28 31 33 34 29 36 30 31 34 36 42 35 55 34 32 28 25 25 71 69 69
67 58 46 51 78 71 50 40 46 70 67 30 22 19 28 34 29 27 19 22 30 30 28 37 29 29 30 30 26 31 29 33 34 43 48 39 54 34 44 83 80 72 72 74 72
65 55 55 57 69 59 56 46 61 97 67 32 30 33 38 35 21 27 25 22 23 29 29 30 23 24 27 23 24 25 32 41 42 51 64 42 50 57 87 89 72 73 74 78 77
64 60 64 69 73 64 56 70 98 98 25 34 38 31 32 25 24 32 33 34 38 44 43 34 32 26 24 28 24 28 48 70 75 69 72 38 51 53 81 74 70 72 83 82 81
71 56 41 51 73 66 68 87 99 27 26 17 16 16 19 14 12 12 23 29 45 45 40 36 40 26 34 31 32 41 47 73 82 70 47 41 60 76 74 67 64 79 78 81 85
54 64 68 62 64 67 86 98 51 31 20 20 16 16 18 18 19 24 24 25 30 30 60 57 60 36 38 38 31 42 55 40 61 54 73 56 72 72 65 66 74 85 81 81 79
79 88 80 68 61 74 91 72 28 22 20 18 21 23 28 25 26 24 24 23 27 26 24 39 50 51 42 36 36 40 43 56 82 81 84 59 53 78 75 72 68 81 87 82 79
75 90 65 53 66 92 86 48 28 23 22 28 28 30 28 30 30 30 29 34 28 31 32 44 60 52 36 47 49 48 58 71 67 79 83 87 80 83 80 76 78 77 82 86 84
84 94 53 52 93 93 63 35 25 26 27 28 29 34 40 38 37 34 35 41 39 40 52 56 65 78 48 37 34 37 67 88 99 90 81 80 68 71 75 71 76 82 79 82 84
88 68 43 62 89 74 36 36 36 32 35 34 36 39 39 41 43 38 36 34 38 38 50 45 64 77 38 38 55 63 53 59 81 95 98 95 78 70 77 78 77 81 85 83 83
92 83 61 69 64 61 51 41 43 38 41 37 47 50 47 46 41 44 46 42 47 44 53 50 64 62 73 60 58 62 46 42 68 97 94 84 92 77 86 91 86 83 86 84 84
92 86 63 84 68 55 48 45 52 52 42 40 48 52 52 59 51 50 52 52 46 42 50 59 73 65 66 61 57 59 58 47 48 59 94 83 93 95 90 88 84 77 78 84 88
90 80 71 55 48 52 56 40 43 37 45 50 49 43 42 48 49 60 59 56 60 47 54 69 76 65 52 51 53 60 60 51 44 41 49 61 84 94 96 81 84 84 85 90 91
64 61 72 60 49 60 47 41 42 39 37 39 42 43 45 53 46 49 52 54 53 57 63 67 79 89 65 58 64 70 68 53 41 53 72 84 94 95 98 95 96 93 89 92 94

GFSSW_925_rhum_093.txt.gz
RH
63 64 67 56 52 56 62 63 70 78 95 96 96 95 46 31 19 34 62 6 8 14 22 24 30 32 32 24 24 40 61 77 49 44 41 30 32 25 21 19 17 15 15 21 54
71 73 76 71 63 59 61 63 71 73 76 95 90 84 21 22 39 60 10 19 13 32 30 36 34 28 40 32 28 37 65 53 45 37 40 36 35 31 24 26 24 20 17 10 24
77 80 90 79 69 64 57 64 70 74 66 83 73 85 21 22 43 19 22 18 21 26 35 31 26 18 30 31 30 32 46 36 31 29 28 27 26 22 25 25 23 21 19 15 10
82 87 93 86 75 72 68 75 75 63 54 50 70 94 51 37 16 26 17 18 21 31 39 24 25 19 20 40 33 35 28 25 24 22 24 24 21 22 20 20 19 18 18 14 15
91 89 91 88 80 74 81 76 59 48 43 38 67 96 66 71 53 6 14 22 23 28 24 32 38 32 27 23 25 31 27 26 26 27 26 24 24 21 21 18 17 17 16 16 19
96 92 89 79 78 80 72 63 48 46 42 38 68 95 91 47 11 13 19 26 25 26 32 29 34 32 33 31 24 19 19 22 21 21 20 23 23 20 19 16 17 17 18 17 17
97 95 88 80 77 79 71 55 47 39 38 50 82 93 81 52 12 32 43 32 26 37 38 34 32 34 24 26 26 28 34 32 29 24 21 20 22 22 17 17 17 17 15 14 16
100 99 89 89 86 78 64 56 54 38 33 62 86 96 81 38 25 27 15 26 24 23 29 20 16 23 23 23 27 30 33 40 28 26 23 19 27 21 19 18 19 18 16 15 15
100 99 93 90 95 83 72 59 38 35 43 84 95 84 79 42 60 35 39 31 24 22 20 18 17 21 21 32 38 38 46 42 36 26 24 24 30 21 19 19 19 18 18 18 16
100 95 93 100 91 80 71 50 40 69 70 95 91 84 70 43 35 31 29 27 23 23 23 23 25 27 35 37 52 45 42 43 42 29 26 28 28 22 20 21 21 21 20 19 18
99 97 99 94 87 81 77 46 82 86 82 74 68 64 42 37 23 18 24 25 26 29 36 27 33 39 31 33 31 34 39 42 35 29 29 30 28 24 21 22 23 20 20 20 23
100 94 90 82 78 87 87 74 54 45 64 68 62 59 40 44 56 28 18 27 28 42 35 40 43 31 32 31 33 35 39 39 33 28 31 32 30 25 23 24 23 24 38 73 69
99 93 85 83 83 83 72 49 44 39 49 36 54 63 53 54 59 36 22 22 28 34 43 48 38 33 34 36 38 38 40 38 39 32 31 31 33 28 25 32 64 71 72 72 75
93 93 83 69 59 57 74 21 53 42 33 30 39 49 49 46 42 26 20 22 26 33 40 44 32 35 39 39 37 46 33 34 38 39 47 32 52 33 30 77 71 70 75 78 77
100 85 66 52 78 81 55 45 55 63 48 26 37 27 42 36 34 35 17 21 27 29 33 36 31 38 40 38 34 39 34 34 35 42 52 46 56 37 61 76 75 64 66 79 78
89 78 67 64 52 60 59 50 63 93 58 35 34 37 41 36 29 28 26 22 24 29 29 33 24 25 28 25 27 25 33 40 47 54 67 40 53 56 90 87 76 64 74 81 80
82 72 64 67 77 69 61 71 89 88 27 45 44 41 43 42 39 32 34 38 45 48 47 35 33 27 25 30 28 29 40 59 61 71 70 44 54 53 85 74 72 71 85 81 83
75 56 53 61 71 66 64 91 100 34 27 19 30 37 46 18 20 23 38 49 27 46 46 45 42 38 39 40 41 39 43 62 68 77 50 40 63 54 74 70 70 81 81 78 81
51 45 62 51 70 68 88 98 60 35 22 24 19 27 26 21 20 24 26 32 31 28 52 48 56 32 40 30 39 40 50 38 50 53 69 57 56 74 73 64 71 82 83 86 83
80 87 82 60 64 76 96 84 38 32 31 32 29 28 29 28 26 25 30 32 31 28 29 38 40 45 31 36 40 38 47 71 90 92 86 64 59 69 69 68 71 89 90 87 81
77 93 76 76 69 96 97 77 32 29 29 34 31 30 32 32 33 32 38 42 32 33 45 49 50 47 26 46 46 43 48 71 81 83 91 86 79 74 69 75 86 85 88 90 84
88 96 69 68 98 95 91 46 32 33 31 32 39 42 41 39 39 39 44 43 38 39 48 48 65 76 43 38 38 42 78 82 97 93 86 95 85 82 86 80 79 83 82 83 82
90 78 65 66 98 85 43 45 46 39 44 40 41 42 40 45 50 41 44 48 44 46 45 41 61 65 32 42 47 54 47 47 60 84 92 94 78 69 78 80 82 88 87 84 85
92 85 66 81 75 64 51 46 47 41 44 45 50 47 46 51 45 45 51 49 48 53 54 50 61 56 67 50 59 68 59 55 62 95 90 84 74 70 81 93 91 84 82 84 87
94 85 63 87 72 55 50 48 51 51 42 45 53 57 54 60 50 58 57 54 46 44 60 60 68 67 65 65 55 56 57 54 62 58 73 58 67 57 97 96 100 79 78 82 87
90 79 69 60 50 52 56 50 51 45 50 51 56 49 48 56 51 57 56 53 54 49 54 71 75 63 61 45 44 58 57 55 56 54 52 45 48 95 96 95 100 90 83 88 92
70 66 68 65 55 53 49 47 46 46 44 41 42 45 54 56 52 51 52 52 48 59 64 67 80 81 64 56 66 67 67 89 56 46 56 62 64 97 99 94 95 92 93 94 95

GFSSW_925_rhum_096.txt.gz
RH
63 63 62 60 59 63 58 66 74 81 88 96 97 71 35 33 15 41 64 9 10 12 17 31 35 37 30 26 28 48 63 73 47 45 35 31 34 28 23 23 22 18 18 18 32
68 71 68 60 58 59 63 66 66 72 78 87 77 83 17 15 39 61 18 28 13 26 28 33 35 31 39 40 28 50 76 53 47 35 36 37 39 34 27 28 28 26 22 15 16
83 74 75 80 75 66 58 57 67 72 68 65 59 54 16 14 29 12 22 20 20 26 31 34 25 26 29 34 29 36 52 44 36 36 34 30 29 26 28 31 26 25 21 22 16
93 85 82 84 82 82 67 65 75 69 58 51 51 76 19 21 27 21 21 22 26 32 38 27 24 21 23 37 36 35 34 31 31 31 28 28 23 24 24 23 20 21 21 20 19
98 94 92 90 96 93 81 81 79 64 52 45 58 83 48 38 24 11 12 21 28 34 34 28 32 25 22 25 32 37 34 31 28 28 30 29 31 28 23 19 20 20 19 20 20
99 99 95 99 95 93 92 84 75 63 49 51 83 91 77 20 12 12 16 26 21 26 26 32 35 33 33 34 27 22 24 22 23 23 23 23 25 24 22 19 19 18 19 19 20
96 100 100 100 98 89 92 85 76 65 53 57 95 97 88 32 15 23 47 40 29 24 39 27 28 34 30 26 26 28 36 32 31 29 30 22 26 25 20 17 19 19 18 18 18
99 100 100 100 98 92 94 87 76 60 50 53 96 95 85 31 30 24 15 26 35 36 38 31 32 28 24 23 27 30 35 40 30 27 25 23 31 21 19 19 22 20 19 18 19
99 100 100 100 96 91 92 87 79 61 70 66 100 93 83 44 63 31 27 28 21 30 28 25 20 25 22 30 38 39 49 42 36 27 27 24 31 23 21 23 23 22 22 21 19
99 100 100 100 94 94 92 88 72 73 70 90 95 74 62 35 43 46 38 30 27 30 26 26 29 30 37 39 48 49 47 43 40 29 28 32 32 27 24 22 24 24 25 25 38
100 100 100 99 94 95 91 84 89 89 92 72 66 54 41 44 36 24 43 38 28 30 39 33 39 41 31 34 33 35 39 44 38 32 31 34 32 30 26 25 27 30 52 81 77
100 100 100 100 97 91 87 81 66 81 93 66 63 59 46 44 59 42 30 35 40 47 36 40 46 32 30 30 32 34 38 41 35 31 34 36 34 30 29 26 50 76 78 80 79
100 100 100 100 96 98 91 70 49 61 75 53 44 63 50 49 52 54 26 29 33 46 45 49 37 34 35 38 40 41 42 41 40 34 33 36 42 29 25 56 68 68 70 73 80
100 100 100 100 86 74 86 62 46 45 69 37 44 55 50 52 62 34 24 24 30 41 46 47 38 38 42 43 42 49 39 38 41 44 52 32 54 28 48 59 71 66 67 84 82
100 100 96 82 76 79 74 46 47 65 84 24 43 36 49 49 34 46 22 22 32 35 41 46 36 45 45 41 38 45 38 42 42 47 54 46 53 48 65 68 69 67 75 89 84
100 99 93 86 84 78 68 60 71 76 74 34 39 52 65 47 37 31 26 22 25 29 32 36 26 29 34 31 35 28 34 41 52 56 61 47 51 52 51 73 73 68 79 75 78
93 94 89 92 78 74 60 74 73 80 36 44 47 48 45 42 41 36 34 43 46 48 46 36 33 27 28 30 30 32 39 53 55 68 61 48 56 50 52 69 74 79 84 84 80
92 85 87 75 80 79 71 88 69 32 26 22 33 45 50 41 31 34 43 41 27 46 49 46 42 41 40 41 43 43 42 58 64 71 60 41 60 51 63 66 74 85 84 82 83
92 80 66 72 78 74 83 96 59 41 31 35 50 49 28 22 25 25 33 36 30 29 49 58 56 38 32 30 41 45 51 46 54 58 65 55 50 48 73 75 90 87 84 86 84
65 72 80 61 74 70 98 78 53 41 39 43 88 59 31 32 28 30 35 37 31 37 32 39 32 47 32 35 34 36 44 75 86 86 75 63 59 66 73 79 90 89 91 88 82
84 95 67 71 62 92 97 74 40 38 36 46 45 45 38 36 36 38 46 43 36 42 45 46 40 41 29 41 39 37 53 77 81 88 97 93 82 91 96 95 93 86 86 87 86
91 98 82 72 97 91 94 58 39 46 40 46 58 53 49 45 43 49 53 50 47 39 48 48 64 61 42 42 46 44 82 75 93 92 88 94 85 86 88 89 86 88 84 82 83
84 91 78 75 99 97 64 50 52 48 54 52 53 50 50 49 48 48 54 48 52 45 46 40 61 49 34 40 38 57 52 60 68 83 92 96 72 76 86 92 92 94 93 86 81
91 89 75 85 86 79 55 56 54 47 52 51 55 50 49 52 51 53 57 50 52 56 56 50 60 44 39 38 64 66 62 59 73 98 80 58 55 46 71 92 93 95 96 92 83
97 83 68 94 87 68 51 51 53 51 45 48 56 56 54 54 55 63 56 50 48 51 60 59 63 66 62 64 58 60 50 45 61 59 83 39 48 44 68 87 96 96 94 91 89
91 82 71 66 59 58 57 51 52 48 50 52 59 50 48 55 52 59 53 50 47 54 57 69 78 63 67 58 54 51 52 57 59 59 61 57 58 55 91 90 91 93 91 92 92
72 70 71 64 54 54 52 53 48 48 43 44 48 52 56 53 46 44 46 48 43 56 61 63 82 78 66 58 52 44 54 86 87 78 85 74 56 82 93 88 92 91 94 96 92

GFSSW_925_rhum_099.txt.gz
RH
86 78 69 61 59 70 68 64 71 74 73 73 66 40 16 12 11 37 49 16 15 15 23 29 32 29 29 25 36 37 29 27 24 30 20 28 29 26 24 24 23 20 20 16 17
95 91 84 76 67 63 68 69 72 78 82 80 61 58 18 16 42 64 16 27 18 18 30 32 32 32 39 30 26 37 38 26 32 27 26 25 32 28 25 25 24 20 19 20 18
97 96 96 90 83 74 73 73 71 74 80 69 52 55 23 24 35 14 22 21 19 30 29 30 32 28 29 32 25 31 27 38 35 32 31 30 28 25 26 27 22 22 17 18 18
100 94 98 98 94 89 90 83 76 76 75 60 51 44 31 34 37 19 21 20 16 29 30 29 20 25 26 31 29 25 30 26 26 24 24 28 23 22 22 22 18 17 17 18 16
92 86 95 100 100 97 97 89 84 81 68 59 57 54 49 38 14 12 22 24 29 33 30 27 26 22 20 21 29 34 30 28 26 25 26 24 25 24 22 17 16 17 18 17 17
91 96 86 97 100 100 98 89 83 74 66 61 76 86 82 27 13 11 12 26 30 38 34 26 23 22 20 24 24 24 28 25 22 22 21 22 22 24 20 17 17 16 16 16 16
89 96 99 92 100 100 99 92 84 79 67 69 77 93 86 40 16 16 32 33 33 31 27 28 30 33 33 30 27 26 30 28 28 26 26 26 26 25 19 18 17 16 16 16 16
95 91 100 91 100 100 100 94 89 79 71 50 70 96 82 36 37 34 23 30 45 32 28 32 28 33 26 22 24 27 32 34 28 27 24 22 29 17 17 18 18 18 17 18 17
97 98 98 95 100 100 99 92 86 85 76 54 91 92 74 47 55 37 43 28 26 36 40 30 27 27 24 26 30 36 30 39 31 26 26 24 28 20 16 19 21 20 18 20 28
92 99 94 100 100 100 100 94 87 77 78 91 94 87 63 44 38 46 50 35 22 30 32 29 26 28 28 28 33 33 38 38 34 24 27 25 25 22 21 21 24 21 24 47 55
88 99 98 100 100 99 99 89 89 93 85 79 72 60 44 43 45 37 52 39 26 28 37 32 36 39 30 29 28 34 36 35 31 26 26 27 27 25 23 24 23 27 59 58 57
88 100 99 100 100 100 93 81 69 74 90 70 65 63 56 51 56 36 43 39 39 29 27 34 40 31 28 29 29 30 33 30 28 27 30 29 30 26 24 24 27 56 56 60 63
92 100 100 100 100 100 83 72 74 64 78 64 66 68 61 59 69 49 37 35 36 43 39 35 33 30 30 30 32 33 33 38 35 32 30 33 30 27 24 49 64 59 57 66 66
98 100 100 100 97 99 90 74 75 60 89 62 60 50 52 51 71 49 36 33 33 46 41 42 32 34 33 35 33 40 34 34 36 39 38 31 35 29 32 40 58 55 65 65 61
100 100 100 98 88 74 83 67 66 58 90 36 38 36 44 53 37 53 41 26 55 39 46 49 41 42 44 37 36 38 35 37 38 42 43 39 38 34 41 50 49 59 66 66 64
99 99 91 80 87 93 82 68 78 91 92 34 44 59 63 52 40 37 48 27 26 34 39 36 29 35 36 34 34 31 37 41 46 47 50 36 34 31 30 44 52 60 72 69 67
91 87 82 86 97 91 79 94 89 90 40 41 47 65 59 57 42 39 36 36 36 40 41 35 32 27 28 30 33 32 36 39 46 55 41 39 43 28 30 52 61 75 72 71 69
93 94 98 90 95 94 85 98 91 46 29 25 28 50 53 42 38 36 39 38 27 41 41 40 46 40 31 37 36 37 34 35 46 49 43 44 46 36 51 70 76 72 72 72 70
78 87 95 95 98 91 96 92 74 60 41 42 61 57 31 28 28 32 37 32 30 31 44 50 54 42 31 30 38 44 43 45 47 52 48 36 38 46 64 86 76 76 75 78 73
67 76 70 84 96 95 97 81 60 38 40 44 79 96 48 33 31 33 39 36 34 42 34 38 41 44 32 34 24 41 45 67 69 55 45 44 48 50 83 90 78 78 81 77 71
77 82 69 68 95 98 90 75 54 38 38 51 63 85 46 38 41 48 46 46 51 49 43 46 36 38 32 36 34 23 36 72 66 73 69 56 57 77 81 82 80 80 77 76 73
89 93 88 88 98 99 88 53 43 44 42 50 73 63 50 45 44 60 51 51 56 47 47 51 48 37 43 43 40 50 70 68 54 67 80 83 67 72 80 78 76 78 75 74 72
93 99 80 75 94 84 68 46 48 47 54 72 65 58 47 48 49 49 47 48 51 48 46 42 43 32 40 46 40 48 49 49 52 64 65 73 56 77 81 77 81 88 84 77 76
76 96 98 83 90 89 70 56 54 46 55 54 65 59 48 48 50 54 49 45 52 60 56 47 50 33 28 47 51 52 54 51 58 78 59 50 35 26 28 49 70 82 82 78 77
93 80 70 93 83 81 65 54 52 52 48 47 54 54 52 49 52 56 48 46 48 52 58 54 54 54 48 58 56 54 48 44 44 40 51 22 32 32 31 42 83 81 76 75 78
92 88 74 71 61 76 70 59 47 50 46 52 56 48 46 50 50 54 50 46 45 50 54 60 74 60 60 52 53 52 43 40 38 42 49 54 63 47 47 80 88 88 88 89 82
76 74 69 64 65 62 60 56 49 46 43 44 48 49 50 51 46 48 47 50 48 49 58 56 67 58 46 51 44 42 45 42 59 65 70 84 66 59 90 87 87 88 88 90 88

GFSSW_925_rhum_102.txt.gz
RH
88 98 95 90 84 76 69 68 67 62 61 63 55 40 24 15 13 43 31 21 19 16 18 30 25 22 22 17 18 14 16 17 14 15 14 12 15 13 17 18 15 16 15 15 13
86 88 99 99 97 90 83 77 72 66 64 63 56 44 25 15 50 32 26 17 20 14 24 18 18 18 15 17 18 18 16 15 11 12 13 12 16 13 16 13 14 15 12 12 12
90 92 97 99 97 98 94 90 82 72 68 65 52 41 28 17 30 18 20 25 20 19 19 19 18 18 16 18 16 16 20 15 16 16 13 13 14 12 14 16 14 16 14 12 13
61 94 98 100 96 98 100 95 89 78 74 67 51 40 26 45 58 21 20 19 25 40 24 20 18 20 18 20 14 17 15 14 13 12 16 15 13 13 12 13 11 11 12 12 12
52 76 79 95 85 92 100 100 95 85 80 66 50 45 47 32 30 28 21 21 31 40 21 19 18 16 16 12 13 20 13 12 12 12 13 12 14 15 14 12 11 11 13 12 12
55 75 89 82 96 86 99 100 98 89 79 66 54 53 56 63 32 16 30 47 35 31 20 16 15 13 12 12 13 13 16 15 17 17 16 19 15 15 15 12 13 13 13 12 12
89 99 98 94 86 100 100 100 98 90 79 69 67 74 62 53 34 24 27 26 31 26 20 17 14 15 13 17 14 17 20 16 16 16 15 16 18 17 15 13 14 13 12 12 13
96 94 98 95 91 100 100 100 97 92 82 78 54 73 70 51 43 40 31 27 33 33 24 18 19 19 21 16 19 21 20 23 17 16 16 19 20 16 12 14 13 12 13 14 13
99 93 93 97 97 100 99 99 97 92 84 79 78 77 69 47 46 40 40 30 23 32 27 28 24 24 25 27 23 22 24 22 19 18 18 20 19 14 13 14 15 14 14 14 18
99 88 89 93 99 100 100 100 98 88 84 84 68 89 61 46 33 33 43 34 23 19 31 32 30 29 27 24 32 25 24 21 22 17 19 19 18 15 11 13 17 15 15 19 27
83 83 89 95 100 100 99 96 90 92 83 69 59 52 41 33 35 32 42 37 21 23 36 31 37 32 26 23 22 22 21 22 19 17 22 19 15 13 14 16 17 15 22 29 34
81 86 88 100 100 94 99 89 66 65 73 57 56 52 50 46 42 30 37 30 24 26 29 36 45 29 22 21 24 25 25 23 18 16 16 18 19 17 16 16 15 17 31 37 38
82 89 92 100 99 100 97 82 70 64 82 57 48 54 48 48 54 40 31 29 31 32 25 50 39 25 23 28 31 27 24 22 19 20 22 24 23 18 17 18 27 31 37 41 41
84 87 100 100 99 98 91 78 65 64 99 49 54 48 48 48 58 40 32 33 46 59 48 58 40 40 32 31 26 28 19 19 23 29 27 22 21 18 16 24 31 36 41 42 44
95 100 98 92 95 92 84 77 63 61 90 33 38 31 36 52 36 40 38 34 47 46 53 56 44 52 57 31 23 26 22 29 26 30 29 25 28 15 17 24 31 38 45 47 47
100 100 100 92 92 94 84 77 81 95 92 42 28 39 45 46 39 33 47 35 42 87 89 66 52 60 56 50 42 27 32 30 30 30 39 25 24 16 21 21 29 42 50 52 50
100 96 85 87 98 87 81 91 97 94 40 41 39 44 40 37 41 39 64 61 77 94 86 61 55 31 30 36 35 39 36 49 50 46 36 19 22 16 21 31 36 51 54 54 51
89 85 98 78 81 84 92 98 95 69 41 23 25 30 47 33 36 36 61 72 54 40 41 51 55 29 25 28 31 40 32 45 52 35 26 29 29 37 50 52 56 56 55 54 52
89 93 100 100 100 99 89 93 83 56 42 38 34 50 42 32 27 30 38 44 33 31 40 40 42 31 27 27 29 30 36 23 33 32 34 24 28 54 64 65 61 57 55 55 52
73 76 91 96 99 97 98 76 57 35 32 34 50 80 56 31 33 34 34 29 32 32 31 37 47 34 26 26 24 34 27 48 42 46 40 22 22 28 63 60 48 50 55 56 52
53 59 84 94 96 99 85 57 48 37 32 45 51 67 66 40 33 61 38 38 38 40 35 37 34 37 28 32 28 28 38 50 46 44 44 38 34 57 56 50 50 48 55 59 57
63 81 96 98 100 100 69 49 45 41 36 44 56 57 68 49 65 60 51 44 51 47 45 36 32 31 33 36 28 25 36 35 42 37 43 57 41 50 53 53 51 48 56 59 59
80 85 99 97 93 74 55 47 44 44 42 53 56 61 42 54 46 67 72 67 56 51 44 32 33 44 36 37 35 36 41 40 43 41 42 44 35 57 60 45 46 58 56 58 61
61 90 99 99 93 68 61 54 52 39 42 45 51 61 53 49 38 47 50 46 48 47 53 33 28 25 25 37 37 47 42 35 44 57 36 31 22 38 28 18 25 48 59 58 60
61 72 49 88 82 68 55 47 51 49 45 40 52 70 88 54 45 47 41 47 44 47 43 37 32 32 35 36 34 35 35 31 31 26 35 18 18 18 29 42 43 60 60 65 74
97 55 50 44 51 63 63 49 45 46 44 45 56 43 50 64 46 46 40 37 37 40 41 43 53 42 35 33 34 36 27 26 27 25 23 23 29 38 46 57 72 72 70 72 74
64 62 45 53 48 63 53 44 42 39 44 49 42 41 41 42 37 37 35 35 37 37 42 39 54 43 25 33 32 30 32 26 24 25 41 54 52 52 59 85 75 76 77 79 78

GFSSW_925_rhum_105.txt.gz
RH
96 95 91 87 96 97 90 84 76 70 62 57 56 49 34 28 29 44 32 29 25 24 13 19 20 17 14 13 11 13 15 17 15 13 11 9 11 9 9 14 12 12 13 12 13
100 99 99 90 94 99 98 96 87 81 72 65 62 53 38 26 50 40 31 29 18 14 18 16 15 14 15 15 14 16 18 16 12 11 11 9 10 11 11 12 13 11 11 11 11
64 78 80 77 98 100 100 99 95 89 79 68 63 52 40 32 43 24 16 19 22 12 19 15 14 14 15 13 14 16 20 14 12 11 11 12 10 9 10 13 12 12 12 11 11
50 50 51 66 92 95 100 100 100 96 84 73 66 54 42 54 61 27 17 17 15 29 19 16 15 18 18 17 14 18 15 12 12 11 11 13 12 12 11 11 9 9 9 9 11
52 54 52 54 84 97 100 100 100 99 88 79 71 53 57 48 42 41 30 20 27 33 19 18 20 19 22 18 14 16 14 12 10 10 10 9 10 10 9 8 8 9 10 11 11
53 53 53 69 82 91 90 100 100 100 92 81 65 60 62 68 41 36 26 35 26 27 23 19 19 17 18 18 16 13 12 12 12 11 11 12 11 11 11 10 10 10 10 11 11
56 55 77 82 92 93 96 98 100 100 94 80 69 70 59 57 44 35 24 26 31 27 24 23 18 18 17 20 16 16 17 14 13 13 14 13 16 15 11 10 11 10 12 11 10
73 99 99 97 90 94 100 93 100 100 95 84 78 69 70 49 43 41 36 27 25 25 25 22 19 17 19 17 18 21 20 23 17 14 13 14 21 12 10 11 12 11 11 11 11
97 98 98 99 90 93 100 100 100 100 95 84 76 68 57 44 44 40 37 32 29 26 26 25 18 24 23 30 31 28 31 25 20 14 15 15 20 13 11 12 12 11 11 11 12
94 99 99 98 85 93 100 100 100 98 89 80 68 76 49 41 32 29 29 33 30 25 26 30 27 33 29 33 52 39 34 25 24 16 16 17 19 14 11 12 12 12 11 11 13
92 100 97 87 94 100 100 98 93 92 82 58 44 42 34 29 31 29 31 31 26 23 29 28 37 41 34 32 29 30 31 32 19 14 17 18 16 13 12 11 10 12 13 13 17
93 82 80 89 100 99 96 91 63 58 67 59 49 42 37 36 42 32 26 35 32 35 27 34 52 33 29 29 34 35 32 33 27 20 17 18 16 12 11 10 12 12 13 17 24
92 87 87 100 100 100 98 83 69 67 85 51 36 39 37 34 42 38 28 31 35 33 30 32 35 33 36 44 65 58 47 33 42 35 19 18 17 15 13 12 12 12 15 24 27
88 83 97 100 100 100 98 77 71 69 98 45 36 33 32 34 45 31 31 32 36 37 32 34 28 36 44 54 57 76 43 32 38 32 30 17 29 17 14 15 15 20 27 28 32
88 94 99 98 97 97 88 74 71 71 95 19 25 29 28 42 28 24 26 35 42 40 54 48 43 44 45 49 39 63 40 45 41 30 26 25 27 19 14 17 21 25 28 34 36
95 100 100 100 95 89 82 71 75 96 78 31 25 30 35 40 35 23 31 31 38 62 82 70 63 54 39 35 47 59 63 42 37 32 46 42 30 22 19 15 20 27 34 40 39
100 100 100 99 96 90 78 80 97 96 40 39 30 28 32 33 34 30 37 55 59 94 85 68 63 63 47 61 51 65 87 81 77 70 61 25 28 29 19 14 21 36 39 42 40
100 96 94 88 93 77 76 97 98 47 47 27 27 26 37 31 30 29 35 56 44 52 67 87 84 60 50 54 64 59 70 64 75 66 50 30 39 51 36 37 42 42 43 42 40
87 96 99 100 92 85 94 98 78 71 40 38 30 36 35 30 30 29 32 50 46 45 63 53 44 26 27 28 31 63 57 36 46 42 44 52 49 56 50 51 45 45 42 42 39
88 92 100 100 100 96 100 84 52 37 32 30 45 58 45 36 34 27 28 32 43 45 33 49 59 28 25 23 25 33 36 47 51 68 46 34 40 50 65 51 42 40 41 38 37
82 94 99 100 99 99 89 58 42 30 27 36 39 56 46 44 30 29 35 30 37 29 29 38 40 44 29 30 36 30 62 53 59 53 54 48 60 63 59 44 42 40 39 38 40
63 98 99 100 100 100 72 51 42 36 31 35 39 44 46 46 36 54 41 34 36 28 38 38 44 50 33 31 26 26 27 41 75 53 65 44 54 51 43 42 34 34 36 37 42
94 92 96 99 98 91 55 47 38 40 37 44 47 42 38 51 53 84 45 50 47 39 38 35 46 43 37 32 26 26 24 28 32 37 36 45 48 44 42 33 23 18 36 38 44
75 98 100 100 96 74 60 55 47 34 37 41 61 44 47 50 41 63 69 58 43 38 54 40 34 36 42 37 29 36 28 26 32 51 32 26 18 38 18 19 28 39 43 42 50
83 79 60 97 96 61 58 50 49 47 35 35 59 55 57 61 51 52 47 49 43 48 36 36 43 30 24 25 24 28 28 27 27 26 30 19 16 14 34 40 51 47 49 52 59
97 60 45 48 49 59 68 63 44 41 37 46 51 49 57 67 50 44 40 39 37 36 33 34 36 35 31 25 24 24 19 18 19 18 19 17 17 42 41 44 65 64 62 63 66
69 57 47 53 51 65 69 46 42 44 40 43 47 43 59 60 35 30 29 31 32 36 38 38 46 36 24 26 23 22 24 20 18 14 22 32 46 45 62 82 86 79 70 71 72

GFSSW_925_rhum_108.txt.gz
RH
100 100 100 100 99 92 97 100 94 89 84 79 72 66 64 56 64 51 44 36 30 28 22 16 17 18 18 15 13 12 19 21 18 15 13 9 9 9 8 9 11 10 12 12 11
91 88 93 98 100 96 92 99 99 96 91 84 74 68 70 53 59 48 42 34 26 21 15 14 16 14 16 16 15 16 20 20 15 13 13 10 10 9 10 11 13 13 11 10 11
53 53 52 51 54 87 94 98 100 100 95 90 80 72 69 60 48 25 14 13 12 12 20 18 17 16 19 17 16 16 21 18 16 14 14 13 12 10 11 12 11 12 12 11 12
54 51 49 50 52 59 84 95 94 100 98 94 81 75 67 61 54 32 33 28 16 14 21 20 19 21 22 24 18 20 16 16 15 14 13 12 11 12 12 12 10 10 10 10 11
64 54 48 52 51 56 74 89 91 99 99 96 85 73 66 59 52 42 43 38 22 19 26 23 22 23 26 22 20 21 18 15 14 13 13 11 12 12 11 9 8 8 9 10 11
68 55 53 53 58 88 74 93 92 99 97 95 86 71 68 74 42 38 42 34 33 28 26 25 24 22 25 26 25 21 19 18 15 13 12 14 13 12 11 9 9 9 10 10 11
64 54 57 60 96 96 89 94 100 95 100 96 84 75 66 63 40 36 33 29 25 30 26 25 24 25 24 27 21 20 23 19 18 17 16 13 16 16 13 12 11 11 10 10 11
60 60 63 82 98 98 89 92 100 100 100 95 84 76 73 44 39 40 37 32 31 24 24 24 25 25 26 23 24 28 27 34 24 19 16 16 23 15 12 12 12 11 11 11 11
64 66 75 94 98 97 89 90 100 100 99 93 82 71 57 38 42 37 36 33 31 27 24 25 26 30 28 34 36 32 41 38 31 21 18 18 22 15 12 13 12 12 12 11 12
62 69 77 97 98 92 95 100 100 99 95 84 73 72 52 36 25 31 26 32 31 30 30 29 30 39 33 35 54 38 33 29 32 25 21 20 20 15 13 12 14 12 12 12 12
57 64 72 99 100 100 99 98 94 95 86 63 48 43 33 25 28 27 25 28 27 33 40 29 38 43 30 26 29 30 32 35 28 23 28 30 29 17 14 14 14 14 12 12 13
52 62 79 94 99 100 97 88 62 56 65 65 53 42 36 30 37 26 26 28 32 40 30 31 32 24 22 25 30 34 42 45 40 30 29 35 45 43 15 14 13 12 12 13 15
54 66 87 100 100 100 98 84 69 60 62 44 38 49 39 33 38 32 24 29 31 36 33 36 28 21 24 33 36 34 38 46 48 38 34 39 55 44 23 14 11 11 11 13 24
55 78 100 100 100 99 95 85 70 61 82 38 29 29 28 29 34 25 25 29 33 36 34 35 26 27 26 33 33 45 35 40 47 56 81 44 83 47 25 19 13 12 15 26 30
65 99 100 97 93 97 86 76 69 64 71 10 18 22 23 30 24 23 24 29 39 38 37 42 34 38 38 32 27 43 56 62 73 77 66 61 65 44 24 28 22 22 28 35 36
79 100 100 100 96 93 79 75 73 97 74 23 23 31 32 32 30 22 25 26 32 40 39 48 51 56 50 41 37 57 72 67 70 72 94 58 53 61 42 26 18 26 40 39 37
99 100 100 99 94 87 77 89 99 92 23 22 21 24 27 30 35 33 32 37 50 73 70 50 56 47 46 51 38 55 91 92 92 92 68 36 53 60 37 47 24 55 46 40 40
100 100 100 95 89 78 89 98 99 34 37 21 24 19 29 26 28 30 34 34 40 45 47 56 61 46 46 49 50 53 78 74 90 85 57 41 90 73 70 55 61 67 56 40 41
97 97 98 97 91 91 97 98 76 43 26 30 26 31 28 26 28 30 35 33 30 45 73 50 49 36 40 41 42 75 91 57 67 71 94 74 56 56 70 61 65 71 57 40 39
90 97 100 100 99 98 100 85 64 44 48 42 53 52 42 33 36 47 34 29 28 42 34 60 57 45 39 35 35 50 46 97 94 88 87 46 56 84 68 64 52 54 44 38 36
94 97 96 100 99 99 98 86 62 45 43 37 42 41 47 44 40 64 71 32 28 38 36 59 43 53 43 39 31 36 41 80 97 55 78 60 96 95 92 82 56 42 38 40 40
96 100 99 100 100 100 93 62 54 50 29 29 33 37 40 40 43 38 57 53 39 47 60 44 43 55 44 25 24 28 35 70 98 94 90 82 77 84 88 63 36 32 35 38 41
98 100 100 98 99 98 70 56 52 37 35 35 36 36 36 45 53 49 50 54 41 35 38 40 52 54 63 42 27 31 33 30 40 41 45 52 50 82 54 32 35 40 39 44 47
99 100 100 99 98 87 70 64 63 34 34 33 38 42 41 46 37 56 63 53 40 36 48 40 40 46 63 60 34 36 27 24 30 60 44 36 45 56 36 34 47 46 45 50 52
99 97 62 96 97 84 65 49 57 52 34 35 48 48 47 52 44 54 57 55 44 49 39 39 51 37 33 24 23 28 24 22 25 25 42 29 20 46 52 58 56 51 51 54 58
100 98 65 48 61 81 71 68 48 42 39 40 51 44 46 54 46 51 66 50 53 40 44 44 60 46 42 26 23 24 17 18 20 20 18 16 21 54 61 63 68 64 63 64 63
76 60 78 60 89 71 66 61 55 40 40 32 39 45 50 53 48 36 36 38 35 50 56 45 52 42 40 28 23 26 26 18 20 17 25 29 54 48 72 79 81 75 70 72 72

GFSSW_925_rhum_111.txt.gz
RH
92 94 95 98 96 97 99 96 96 99 96 92 85 86 82 75 67 58 53 46 34 33 29 18 15 17 20 24 22 17 30 30 26 23 19 15 18 13 9 11 11 12 12 13 14
77 77 76 72 73 83 90 82 86 96 99 97 91 84 82 72 64 57 42 38 28 17 14 14 18 19 23 20 21 24 34 28 20 18 20 18 17 15 14 14 14 13 13 12 12
60 58 55 52 50 50 52 58 84 91 94 98 93 89 80 72 61 36 19 21 24 23 18 18 22 22 25 23 24 24 28 22 20 17 18 19 18 15 15 17 17 17 18 16 15
71 61 54 51 49 55 54 54 80 91 88 97 87 87 77 68 64 27 37 42 39 30 20 22 24 27 28 30 24 29 24 21 19 17 18 18 16 17 14 15 14 13 13 10 11
78 67 59 51 49 52 54 58 70 91 92 99 86 86 73 70 65 41 46 44 40 28 24 25 32 29 33 29 29 30 26 23 21 20 19 17 16 16 16 12 11 10 10 12 13
80 75 60 58 64 72 77 78 78 96 99 99 95 86 74 90 43 35 41 46 41 29 28 28 33 29 34 33 35 30 29 28 23 21 20 21 20 17 15 14 13 12 12 12 15
76 64 61 62 77 99 98 95 92 91 100 84 97 80 73 75 39 23 37 44 39 30 33 29 27 33 35 40 32 30 35 30 28 24 23 20 24 22 17 14 15 14 12 13 14
67 64 67 68 81 99 99 93 92 95 100 88 95 81 87 58 43 44 41 40 35 33 26 25 24 30 33 33 33 38 36 44 30 27 25 27 36 23 17 17 16 15 15 14 14
66 67 70 72 84 97 96 89 89 100 99 98 92 81 86 45 50 41 42 40 34 31 31 24 26 36 38 48 53 46 56 47 39 28 29 30 35 24 28 23 17 15 15 16 17
67 66 67 67 82 94 96 94 99 100 99 93 84 81 67 42 37 37 33 35 36 35 35 36 38 46 50 58 72 55 54 44 41 29 38 43 36 27 25 28 24 17 18 18 19
61 60 58 70 96 100 99 98 97 96 90 83 73 65 36 31 26 31 26 28 32 37 55 44 57 63 53 48 43 41 41 39 33 32 39 43 42 45 37 36 34 20 16 16 33
60 60 58 77 100 99 87 93 71 66 88 81 64 61 45 38 44 31 27 34 42 51 44 51 57 42 37 37 36 34 38 44 38 32 38 43 50 40 35 37 35 30 17 18 39
57 58 66 84 100 100 96 79 71 62 84 56 70 69 59 49 55 45 33 35 40 46 46 52 41 32 32 33 32 32 42 43 42 36 41 48 52 45 34 31 31 26 15 17 39
55 54 73 99 100 97 97 82 77 62 98 61 42 44 46 42 50 36 32 35 40 47 42 45 34 38 38 38 34 44 36 58 65 74 86 64 85 52 42 38 33 34 23 41 46
56 55 79 98 88 98 84 78 70 63 100 24 25 26 31 47 32 31 31 36 46 45 45 49 42 43 59 48 48 56 63 69 72 79 76 68 86 55 40 39 34 42 39 47 46
60 66 81 100 97 90 83 76 72 97 93 33 30 33 37 42 32 29 31 28 34 46 48 46 53 58 60 49 46 59 70 65 70 82 95 61 66 59 47 46 58 54 47 46 45
70 76 99 96 95 89 80 84 100 98 30 23 28 33 37 39 36 34 36 47 60 75 75 56 58 54 52 64 51 76 79 94 93 97 86 38 64 64 47 53 63 68 72 50 47
94 100 100 99 86 82 84 99 98 52 41 20 25 23 34 30 32 38 42 49 49 54 59 70 72 48 52 60 60 74 75 87 94 92 87 64 92 74 77 88 86 80 76 61 50
100 99 99 97 89 85 97 97 82 55 31 34 30 32 32 27 29 32 42 46 39 47 67 68 55 42 41 45 53 73 91 57 86 74 90 73 65 68 83 92 90 77 69 58 48
90 94 96 98 92 99 98 84 70 48 37 45 58 49 40 33 32 37 60 38 39 35 46 58 78 44 44 48 49 61 57 95 96 93 89 59 74 97 98 100 95 81 56 55 59
92 97 96 100 100 99 97 97 70 48 42 53 62 61 57 50 44 60 68 60 52 51 43 61 64 53 47 62 61 59 68 78 88 97 96 85 99 100 100 99 95 82 59 53 53
97 98 98 100 99 100 97 86 56 59 46 54 52 52 56 47 47 48 66 61 47 52 66 62 66 69 55 44 42 39 53 61 97 92 98 98 99 92 84 88 79 52 54 55 56
98 100 100 100 98 97 87 69 58 64 69 68 43 41 38 47 56 54 63 60 44 55 81 78 99 83 56 58 51 47 39 62 66 83 79 78 92 77 83 60 51 58 57 56 58
99 99 100 100 100 97 79 91 92 75 53 51 39 37 48 54 50 54 81 56 48 43 52 49 56 57 67 73 64 48 37 38 54 80 64 52 82 83 60 63 61 62 60 60 63
100 99 84 98 97 100 80 79 73 77 47 39 47 52 61 64 58 56 57 66 49 45 44 55 67 48 42 50 34 30 30 30 37 40 57 42 74 83 78 77 70 64 62 64 68
100 98 88 81 71 92 89 99 87 67 66 48 62 56 56 64 56 60 83 89 62 46 55 52 82 52 59 39 28 30 24 21 22 23 23 55 90 73 73 71 77 71 71 74 72
98 84 96 98 93 90 82 75 70 64 50 42 46 53 59 56 54 48 63 60 48 56 62 59 69 64 81 45 37 36 46 40 48 62 56 75 79 72 79 83 89 82 80 83 80

GFSSW_925_rhum_114.txt.gz
RH
87 87 89 90 93 91 92 96 94 86 88 98 98 82 80 78 71 66 60 44 42 37 34 18 15 16 20 26 24 20 33 41 32 25 24 18 21 16 14 15 15 14 12 15 14
73 73 68 63 60 55 52 53 53 71 86 90 96 91 78 77 68 65 34 45 38 22 15 15 17 23 26 22 23 27 38 32 26 22 22 20 20 20 18 18 16 17 16 13 16
66 61 57 53 53 48 47 49 49 67 87 87 88 89 80 72 65 51 26 20 34 32 24 18 21 25 27 24 26 27 30 24 22 21 22 22 20 17 19 20 17 18 17 16 15
79 72 62 56 50 49 48 51 53 59 88 85 86 80 81 70 38 28 23 40 44 36 23 22 25 29 30 31 27 33 28 27 26 24 25 26 22 22 18 19 15 16 14 14 12
68 73 69 63 52 50 53 57 63 65 85 91 97 85 79 76 70 28 35 44 43 41 25 25 34 33 35 31 36 38 33 30 30 29 28 24 24 24 22 19 16 14 13 13 15
66 77 74 59 60 62 71 89 88 87 89 88 96 95 75 90 35 32 43 45 46 40 29 28 35 33 39 37 40 36 38 36 31 31 28 27 25 24 21 20 18 16 16 14 15
66 71 64 66 71 80 100 100 96 94 89 86 96 90 76 74 30 30 38 42 44 42 32 29 30 35 38 42 35 36 43 38 35 31 29 26 30 30 23 21 20 18 17 15 15
71 62 66 70 75 90 98 98 96 91 90 100 100 82 87 55 46 53 48 50 38 40 40 36 30 30 35 34 39 43 44 54 34 28 29 30 41 27 25 27 28 24 22 19 17
61 63 63 65 74 82 94 92 87 90 94 100 94 89 86 53 55 34 46 52 42 38 39 35 28 35 37 50 65 52 69 56 43 31 32 35 43 34 28 31 31 33 32 28 20
63 67 63 64 71 89 91 86 92 97 100 99 89 88 73 48 40 37 36 40 44 40 40 37 40 50 57 67 78 64 64 54 52 39 36 43 40 31 32 36 34 34 32 30 24
60 64 63 63 80 97 93 94 91 94 95 86 75 72 42 41 35 37 34 40 39 41 58 48 60 67 55 58 52 51 54 55 46 34 39 39 39 39 35 36 34 32 32 31 52
65 64 61 69 93 94 86 93 74 70 94 84 71 70 49 45 48 39 29 44 47 60 53 59 70 53 47 50 54 56 59 54 37 33 37 42 47 40 36 34 31 32 31 49 53
66 63 61 83 94 100 96 78 64 72 90 72 73 77 62 58 61 47 38 40 47 55 55 65 51 42 46 49 51 49 50 44 43 54 45 51 60 43 33 36 32 30 30 43 57
67 62 63 92 99 98 98 68 69 77 98 64 64 65 62 53 64 43 32 41 46 53 52 56 43 45 45 46 44 54 55 59 64 70 74 63 80 46 38 38 36 34 55 64 64
64 59 72 98 86 98 87 72 78 71 38 26 44 44 52 51 36 44 39 44 50 51 51 58 45 50 51 46 49 60 61 66 70 80 89 68 93 46 37 42 39 61 77 80 76
63 58 81 96 96 80 74 77 78 92 73 38 37 55 65 49 42 34 44 39 41 54 53 52 50 49 50 50 49 65 65 64 75 87 99 58 72 70 54 58 63 73 76 76 70
66 63 95 97 86 81 75 85 99 96 38 33 39 53 54 57 52 39 44 52 60 72 74 58 61 59 56 67 58 68 72 89 88 86 87 56 67 63 93 94 80 83 86 80 68
76 92 97 97 89 83 85 98 100 60 49 24 30 34 48 47 49 45 47 57 52 51 70 78 73 67 58 60 68 77 72 89 90 93 89 58 88 99 95 94 93 84 84 86 77
89 99 100 100 90 88 94 98 73 58 40 39 31 35 35 39 38 45 47 48 46 54 62 72 66 43 56 54 53 77 86 59 86 87 96 71 74 76 96 100 99 100 96 96 89
91 92 93 99 94 98 98 95 73 48 42 46 64 53 50 34 39 40 51 48 44 47 47 59 66 51 47 50 53 63 64 93 96 96 96 70 92 94 100 100 100 100 100 100 93
88 98 93 100 99 99 98 90 64 48 49 54 58 65 57 51 46 63 59 56 52 52 47 63 66 66 56 63 70 73 72 81 81 94 97 95 96 98 100 94 97 99 96 80 68
98 93 98 100 99 100 98 78 58 61 54 58 63 64 65 56 51 50 72 58 49 51 66 81 78 92 60 53 50 52 61 74 94 88 97 94 97 95 86 83 74 74 75 73 73
99 99 97 100 97 95 97 91 71 74 61 62 63 60 56 58 69 60 56 62 52 65 79 87 100 97 90 64 53 60 51 55 66 91 93 90 89 91 86 72 59 66 65 65 67
99 99 100 100 99 98 96 98 88 70 81 71 64 60 49 55 53 62 80 62 53 62 77 84 100 99 85 69 61 57 46 57 74 96 76 70 87 83 91 73 67 68 70 69 70
100 99 86 98 98 93 80 70 75 97 75 78 78 62 62 68 59 64 73 65 51 60 59 83 91 74 56 55 53 49 29 36 55 57 68 58 84 94 82 80 76 70 67 71 75
99 100 98 92 76 93 97 98 81 71 67 91 99 87 65 68 61 68 78 86 68 48 67 68 96 94 91 55 39 31 26 24 23 40 77 78 95 76 76 73 77 72 74 77 74
98 94 99 88 88 91 80 75 78 75 70 56 66 64 64 64 59 50 71 77 72 58 71 81 96 96 94 75 69 64 38 52 65 66 67 82 76 78 85 83 81 84 80 80 82

GFSSW_925_rhum_117.txt.gz
RH
89 87 86 88 90 89 79 76 78 71 63 80 84 93 92 77 57 52 62 29 40 40 38 20 16 19 20 26 25 24 36 43 34 29 25 20 24 18 16 17 18 14 14 17 17
78 76 74 71 59 55 52 50 49 49 55 76 82 87 86 75 60 61 36 43 46 26 23 20 20 26 29 24 26 30 41 37 28 23 26 23 24 23 21 22 21 18 17 14 11
65 64 62 58 52 48 46 48 52 50 59 81 86 85 81 75 59 39 37 29 27 34 28 24 20 27 30 26 27 28 34 29 24 24 28 29 29 23 21 23 19 22 20 19 16
69 73 71 63 59 49 50 51 50 51 54 84 86 86 81 72 16 34 22 34 48 41 31 24 27 30 32 32 29 34 30 30 30 31 34 34 29 29 25 25 19 19 19 17 17
69 68 74 70 57 53 56 64 68 70 63 80 90 81 79 81 70 36 33 38 40 40 31 26 34 35 38 37 38 40 36 37 36 34 34 31 33 30 30 24 22 20 18 19 19
62 64 77 68 56 60 69 93 83 89 85 89 86 90 79 91 32 34 42 44 44 47 34 27 34 34 40 42 44 39 42 42 37 37 36 35 32 29 26 24 24 23 24 22 21
62 71 64 58 61 70 98 99 97 97 91 93 84 86 79 76 34 43 45 47 40 47 34 32 32 35 38 41 37 38 46 43 39 37 34 33 36 33 25 30 31 31 30 29 29
77 66 63 62 66 75 96 98 95 94 90 88 88 85 91 52 50 49 40 48 45 46 47 41 39 34 36 35 45 46 48 56 38 31 30 31 44 34 30 28 29 34 34 32 29
75 60 66 67 70 77 91 90 89 89 89 97 93 83 86 54 55 37 47 57 45 45 43 40 36 40 37 50 65 59 69 59 46 34 34 36 42 34 27 30 33 38 35 35 32
59 62 64 64 67 83 88 85 88 86 97 99 89 88 71 41 36 40 46 51 46 44 44 48 45 55 60 66 79 69 71 60 52 38 40 46 43 31 30 38 39 37 34 37 46
58 60 65 66 78 90 87 92 84 88 98 87 76 72 53 42 40 39 44 50 44 47 63 49 59 68 56 61 54 54 59 64 53 44 47 45 41 36 33 39 38 34 33 40 74
59 62 63 67 88 89 87 94 74 75 92 81 77 74 58 55 58 39 38 50 55 65 58 62 76 54 50 53 59 61 67 67 54 45 44 48 47 40 37 39 36 35 38 66 70
62 63 64 72 93 100 96 79 79 76 96 78 80 80 70 65 65 53 43 47 52 61 65 75 59 52 55 59 62 62 67 64 60 55 52 56 60 41 33 33 32 34 35 58 70
66 63 64 78 97 88 96 69 73 81 98 64 78 73 67 62 76 44 38 42 48 57 55 62 49 50 53 58 58 71 49 55 63 66 80 58 77 43 42 53 62 75 83 77 74
66 66 66 89 78 89 70 68 80 75 34 36 64 51 58 66 41 54 37 42 57 56 56 62 49 60 61 52 47 56 60 58 66 77 84 82 85 72 66 81 91 86 84 89 86
63 69 80 94 100 85 77 78 81 73 30 32 61 70 76 60 49 52 52 41 42 52 55 55 48 48 52 49 51 64 62 66 83 86 98 65 68 77 94 97 89 83 79 79 81
64 74 94 85 90 73 87 86 96 80 30 34 55 68 66 66 54 47 66 62 69 80 82 60 62 56 54 64 68 64 68 96 93 96 90 59 75 95 95 95 95 96 96 96 93
70 80 85 94 81 71 88 99 99 60 57 34 38 60 64 55 55 51 66 75 58 53 72 78 69 74 63 58 75 78 74 87 91 91 86 68 80 97 96 90 90 94 96 97 100
88 95 99 94 82 85 94 97 77 66 46 43 29 35 47 50 46 54 59 61 56 56 59 77 71 51 61 57 58 76 85 61 86 89 97 76 96 98 96 95 93 96 95 98 98
95 95 96 97 84 99 98 80 75 48 44 50 54 46 45 39 56 59 57 48 47 51 45 58 68 52 54 54 56 63 63 87 93 91 92 76 86 95 99 100 100 100 100 100 97
93 99 87 99 100 97 96 80 58 49 45 53 60 62 61 55 45 53 52 50 49 54 50 58 65 62 62 68 77 74 81 78 81 90 92 95 88 88 98 96 98 99 98 97 96
98 99 86 100 100 100 96 80 60 60 50 58 62 66 66 60 59 54 63 59 52 59 70 72 82 86 68 53 55 59 65 84 92 94 90 95 90 75 89 86 86 80 85 88 88
98 100 91 100 95 94 82 76 67 65 63 68 62 63 63 68 73 63 57 60 57 69 82 85 92 99 90 83 75 92 64 64 76 82 94 95 82 86 80 84 72 72 71 71 69
99 99 100 100 98 88 93 96 87 78 73 75 68 60 66 67 64 63 71 68 57 68 82 78 92 84 75 76 74 94 74 62 73 98 87 86 86 93 93 74 74 76 75 76 74
100 99 86 98 98 95 85 83 89 93 75 75 71 80 77 78 68 71 75 67 53 78 85 83 94 96 90 84 91 94 82 73 68 71 80 64 88 84 86 76 76 74 73 73 73
99 99 99 96 78 96 90 84 87 76 66 97 94 78 88 82 82 62 76 72 68 67 73 81 90 90 89 73 62 75 47 28 48 56 64 72 91 76 74 75 85 81 77 75 75
98 94 96 92 91 94 82 81 71 71 66 61 73 86 84 87 83 69 62 73 71 64 83 88 96 97 88 87 96 97 63 35 67 68 76 87 78 81 88 87 88 86 77 87 77

GFSSW_925_rhum_120.txt.gz
RH
85 87 89 86 87 88 81 62 52 51 47 50 61 72 81 72 52 46 57 27 46 42 33 24 20 24 21 27 26 26 39 44 34 31 27 21 27 21 19 20 21 17 14 15 14
84 82 79 73 71 60 55 52 48 49 48 50 65 77 80 71 60 61 44 44 46 26 30 26 25 26 33 25 28 33 44 39 30 26 25 27 28 27 24 26 24 21 19 16 16
74 70 66 62 57 53 49 48 48 48 50 49 71 79 79 67 57 28 44 38 44 35 32 27 23 28 31 28 27 31 38 31 26 25 35 36 35 26 26 30 23 26 23 22 18
75 72 75 70 65 59 50 49 53 55 47 55 80 77 76 63 12 35 28 37 46 39 36 26 29 32 34 34 32 36 32 31 34 36 36 38 32 31 27 29 23 24 24 23 21
76 72 69 74 69 56 55 59 58 74 69 71 84 85 76 77 60 40 36 37 38 39 34 29 35 36 40 42 41 41 40 42 41 39 37 36 38 35 33 29 26 24 24 26 27
71 64 67 77 67 60 65 72 84 76 84 92 89 85 81 78 32 37 41 43 44 46 38 28 36 36 41 44 44 42 44 45 42 40 40 40 38 30 29 28 29 29 30 29 29
70 65 72 67 65 68 81 97 98 93 92 88 85 82 84 70 37 44 43 42 40 43 40 35 33 36 39 42 39 40 48 46 40 36 36 33 30 33 29 29 29 29 34 34 34
70 78 67 62 64 71 87 92 95 91 90 86 83 73 92 50 51 32 34 44 38 41 45 44 43 37 36 36 46 48 51 57 35 38 32 33 43 31 33 28 28 30 33 33 33
85 76 67 66 66 72 84 89 89 85 85 82 88 74 87 46 49 36 50 48 54 49 43 45 38 45 39 56 65 64 60 60 50 36 38 39 45 36 30 29 33 31 40 41 38
88 64 68 68 67 74 87 89 88 84 81 81 89 78 63 34 38 46 57 47 49 56 50 50 55 57 65 67 62 64 72 64 59 40 42 49 49 40 35 36 36 36 41 40 84
76 65 69 67 69 84 88 87 83 85 93 82 77 69 57 47 44 46 52 50 46 51 67 53 70 78 66 61 54 56 55 60 57 48 56 56 48 42 38 40 43 40 41 52 86
73 65 70 71 80 93 97 92 71 79 92 81 78 79 67 60 62 37 47 52 57 70 63 68 81 62 53 59 60 63 69 73 62 51 48 52 54 46 44 44 65 83 72 83 85
74 65 71 69 97 95 91 83 83 75 94 77 83 82 72 67 66 60 52 53 60 68 71 80 56 56 58 61 65 68 71 70 70 56 55 64 61 50 51 73 79 86 82 81 84
71 68 68 74 84 93 87 89 82 82 90 58 88 81 72 69 75 54 40 45 50 69 67 68 57 55 65 66 66 80 60 62 62 68 79 57 84 71 74 81 77 89 86 87 84
62 65 68 86 93 95 82 79 86 70 33 43 80 59 64 65 48 60 39 42 59 60 56 58 55 58 65 56 56 66 52 59 66 76 82 77 85 71 83 86 85 91 91 94 95
65 66 73 87 96 89 84 81 82 70 26 54 72 81 83 73 56 58 50 42 46 54 55 57 49 52 55 53 52 61 64 65 84 85 94 74 75 76 92 95 95 95 95 96 96
73 74 82 90 85 68 93 89 91 74 23 43 75 80 76 76 60 62 66 65 70 78 77 58 60 54 51 61 67 62 69 95 95 95 90 63 77 84 94 95 94 95 97 97 96
76 85 87 80 67 76 97 100 96 40 45 36 56 69 74 63 55 57 73 75 62 58 82 81 63 70 63 57 73 78 71 81 94 92 78 69 89 82 85 82 84 84 88 92 96
90 99 99 86 72 93 96 98 78 64 51 40 25 46 63 54 46 56 74 76 63 61 62 77 71 62 66 58 60 80 82 68 94 91 96 80 88 93 87 90 92 94 94 96 96
95 98 92 82 94 99 95 80 73 52 45 52 36 35 42 48 63 63 67 54 57 56 45 55 66 54 60 55 61 67 64 92 99 94 90 76 81 91 98 98 94 99 100 100 96
94 99 80 88 99 97 95 78 57 52 51 48 58 63 62 55 59 64 58 48 50 54 51 59 62 62 68 73 80 78 81 77 81 88 90 92 88 83 87 89 95 95 98 94 90
98 99 87 100 100 96 95 75 59 56 51 57 63 64 61 59 60 55 62 53 53 60 68 63 73 75 67 60 61 67 72 77 94 91 92 94 89 80 82 85 86 91 84 84 83
97 93 94 100 96 98 85 74 65 68 62 66 64 68 66 66 69 63 54 53 59 67 77 84 92 96 88 76 73 77 72 65 69 84 91 94 77 76 78 82 80 84 77 73 77
99 99 99 100 93 78 85 96 91 68 67 70 72 63 66 70 68 74 64 64 60 65 78 78 89 75 71 62 76 97 87 79 80 98 87 76 94 90 91 86 78 77 82 84 80
99 99 87 98 97 93 81 78 80 80 73 70 93 85 81 87 77 78 71 69 57 64 90 88 83 96 84 82 84 84 83 82 94 90 96 86 75 82 82 79 82 80 79 75 76
99 99 99 93 78 97 88 95 87 76 71 90 86 77 76 89 72 68 67 79 81 84 90 87 92 92 89 81 85 92 86 88 92 98 100 90 86 74 72 77 83 82 80 80 80
100 98 90 89 93 96 92 79 68 72 69 64 70 89 98 81 77 73 84 78 75 86 86 92 95 97 91 82 89 93 80 70 61 67 72 86 74 81 86 84 87 86 77 79 76